[[[{"header":{"parameterUnit":"kt","parameterCategory":2,"dx":1,"dy":1,"la1":29.587661999999998,"la2":31.0,"lo1":-88.76705300000003,"lo2":-86.6583820000003,"nx":115,"ny":88,"refTime":"2022-10-08T12:00:00:Z","depth":0,"parameterNumber":1,"parameterNumberName":"U-component_of_WINDS"},"data":[15.0882,15.1827,15.3146,15.37,15.3466,15.2538,15.1674,15.0924,15.1122,14.9693,14.7397,14.7093,14.6346,14.3456,14.4109,14.5021,14.5608,14.4934,14.617,14.7331,14.5613,14.4777,14.3541,14.1599,14.1442,14.1931,14.2836,14.4112,14.5713,14.724,14.8083,14.8083,14.8083,14.8015,14.7992,14.7809,14.7626,14.7276,14.6809,14.6415,14.6078,14.5625,14.5086,14.39,14.2531,14.1309,14.0116,13.9078,13.7596,13.4726,13.0596,12.6754,12.3743,12.135,12.0364,12.02,12.0217,11.9491,11.8541,11.7524,11.6126,11.5554,11.4874,11.4064,11.4016,11.468,11.5442,11.6168,11.633,11.6471,11.6415,11.5775,11.5366,11.6416,11.679,11.68,11.6712,11.6461,11.6088,11.5608,11.507,11.4181,11.3095,11.2441,11.1673,11.1377,11.0374,10.9258,10.9151,10.9089,10.8985,10.9332,10.9597,10.9359,10.8983,10.9418,11.0284,11.0714,11.1423,11.2773,11.3709,11.3994,11.4996,11.6611,11.758,11.8554,11.9353,12.0283,12.0706,12.1185,12.1908,12.2407,12.2354,12.2535,12.2997,15.1988,15.2905,15.3837,15.4824,15.552,15.3324,15.2053,15.1421,14.9015,14.721,14.6646,14.6676,14.6411,14.5478,14.502,14.6213,14.6581,14.5779,14.6736,14.743,14.6015,14.5327,14.395,14.2371,14.1669,14.183,14.2918,14.4248,14.5479,14.7472,14.8604,14.8604,14.8514,14.8378,14.806,14.7901,14.7763,14.7329,14.7121,14.6795,14.6326,14.5965,14.5134,14.395,14.2631,14.1526,14.0518,13.937,13.7894,13.4951,13.1595,12.8156,12.5293,12.3199,12.2372,12.168,12.1646,12.0929,11.9991,11.8935,11.7456,11.6232,11.5709,11.5077,11.4466,11.4933,11.577,11.6168,11.6242,11.6355,11.6337,11.6065,11.5603,11.5632,11.5523,11.5489,11.5182,11.4908,11.448,11.41,11.3523,11.2918,11.2205,11.1633,11.1378,11.1516,11.0766,10.9479,10.8558,10.8454,10.8191,10.8185,10.7967,10.7324,10.6837,10.752,10.8733,10.9224,10.9998,11.1633,11.2963,11.3352,11.4156,11.5459,11.6726,11.7872,11.8781,11.9223,11.9819,12.0343,12.0998,12.1559,12.145,12.1365,12.1931,15.3346,15.4151,15.4087,15.4278,15.4082,15.2342,15.1564,15.1304,14.9283,14.7735,14.6934,14.7044,14.6884,14.6126,14.668,14.7628,14.742,14.6449,14.7318,14.7499,14.6501,14.5785,14.5421,14.4592,14.3156,14.2611,14.3636,14.4174,14.5153,14.7278,14.9008,14.903,14.903,14.8941,14.8807,14.865,14.838,14.7583,14.7583,14.7098,14.6373,14.5989,14.5344,14.4284,14.3021,14.1821,14.083,13.9731,13.8184,13.5794,13.3904,13.0744,12.7427,12.5264,12.3935,12.3223,12.2578,12.205,12.0976,11.9691,11.815,11.6798,11.5958,11.5246,11.4732,11.4113,11.491,11.5355,11.5405,11.5589,11.5629,11.5844,11.5461,11.5198,11.5118,11.5093,11.5007,11.4062,11.2907,11.2536,11.2051,11.1508,11.1365,11.0827,11.0546,11.0637,11.0294,10.8996,10.8283,10.7902,10.7386,10.6936,10.6145,10.5507,10.5756,10.6575,10.7473,10.7937,10.8461,10.9671,11.0649,11.1885,11.3145,11.3976,11.5111,11.6683,11.7566,11.7873,11.8421,11.9274,11.9971,12.0659,12.0269,12.0022,12.0042,15.4716,15.507,15.4893,15.4176,15.3187,15.1751,15.1223,15.1155,14.9673,14.8278,14.7596,14.7661,14.7423,14.6901,14.7854,14.8053,14.7893,14.721,14.7565,14.7388,14.6894,14.6662,14.7166,14.5805,14.5209,14.4817,14.4336,14.4277,14.5747,14.7698,14.9274,14.9274,14.9496,14.923,14.8986,14.8964,14.8493,14.7606,14.7583,14.7306,14.6491,14.5989,14.5252,14.4052,14.3406,14.2189,14.0995,14.01,13.8909,13.7343,13.6431,13.3819,12.9942,12.7496,12.5719,12.4377,12.3257,12.2408,12.133,11.9786,11.8536,11.7278,11.6008,11.5385,11.4656,11.3802,11.3584,11.3998,11.429,11.454,11.4803,11.5083,11.5207,11.5052,11.5011,11.514,11.5318,11.3468,11.1478,11.0947,11.0543,11.0403,11.0354,11.0064,10.9678,10.9398,10.9093,10.8711,10.7925,10.7459,10.699,10.6411,10.5289,10.5033,10.5384,10.61,10.6722,10.7232,10.7519,10.7751,10.8098,10.939,11.0712,11.2015,11.3479,11.4957,11.607,11.6454,11.7158,11.8016,11.8814,11.9607,11.9436,11.8606,11.8291,15.5883,15.5312,15.7072,15.6288,15.4155,15.2591,15.1601,15.0712,14.9046,14.8032,14.7903,14.7946,14.7732,14.7542,14.8409,14.8364,14.8142,14.812,14.8273,14.7948,14.7656,14.7855,14.7806,14.6602,14.6846,14.5896,14.537,14.5667,14.7072,14.823,14.9252,14.9296,14.965,14.9584,14.9075,14.8986,14.8425,14.7606,14.7422,14.7303,14.6444,14.577,14.4992,14.3478,14.2877,14.2385,14.1083,14.0488,14.0231,13.8882,13.7527,13.6044,13.3304,13.0891,12.82,12.6412,12.4546,12.3273,12.164,11.9618,11.8537,11.7328,11.5877,11.4855,11.4166,11.3488,11.306,11.3346,11.3847,11.4167,11.4284,11.4506,11.445,11.4328,11.3841,11.3583,11.3262,11.191,11.0106,10.9097,10.8815,10.8887,10.8887,10.8935,10.8514,10.8392,10.8247,10.7997,10.753,10.7279,10.6822,10.6305,10.5652,10.5378,10.5594,10.5793,10.6231,10.6397,10.66,10.6832,10.6992,10.7623,10.8448,11.0032,11.1661,11.3227,11.4509,11.4878,11.5446,11.6385,11.7354,11.8432,11.8252,11.734,11.6879,15.6762,15.6169,15.6957,15.6383,15.4606,15.2657,15.1678,15.1119,14.9865,14.8847,14.8452,14.8627,14.854,14.8209,14.8609,14.8919,14.8645,14.8889,14.8998,14.9011,14.9519,14.965,15.0029,14.9916,14.9223,14.8529,14.8023,14.7503,14.8273,14.8942,14.9097,14.9186,14.9385,14.9496,14.9319,14.8941,14.8246,14.7606,14.6982,14.6561,14.6084,14.5471,14.4188,14.2833,14.2161,14.1735,14.102,14.0198,14.0012,13.9491,13.89,13.7473,13.5599,13.4188,13.1974,12.8621,12.6363,12.4081,12.2169,11.973,11.824,11.7111,11.5492,11.4276,11.356,11.3086,11.2716,11.263,11.3269,11.3713,11.3869,11.3883,11.3708,11.3436,11.2658,11.1845,11.1016,11.0031,10.8811,10.7566,10.7267,10.7387,10.7459,10.7423,10.7459,10.7782,10.7853,10.7649,10.7517,10.7398,10.7087,10.6572,10.6126,10.5747,10.5659,10.5769,10.5874,10.5906,10.6008,10.6008,10.5914,10.6455,10.7209,10.8497,10.9938,11.13,11.273,11.3174,11.3558,11.4424,11.5366,11.5882,11.5767,11.5431,11.5627,15.7508,15.6958,15.7078,15.6582,15.5581,15.3854,15.2501,15.1543,15.0676,14.9697,14.8717,14.8986,14.8942,14.8918,14.8852,14.9051,14.9201,14.9349,14.9816,15.0529,15.1398,15.1679,15.1922,15.2102,15.183,15.0886,14.9861,14.9186,14.9338,14.8874,14.8874,14.8964,14.903,14.9119,14.9097,14.903,14.8267,14.7537,14.6795,14.6368,14.5846,14.532,14.343,14.2285,14.1543,14.1211,14.074,14.0052,14.035,14.023,13.9801,13.8962,13.7343,13.6459,13.5236,13.1653,12.8224,12.5153,12.3204,11.9884,11.7582,11.6986,11.5508,11.4005,11.3041,11.2423,11.184,11.1954,11.2259,11.2716,11.2923,11.2954,11.285,11.2172,11.1199,11.0652,11.0399,10.9299,10.795,10.6843,10.6413,10.6605,10.7003,10.6966,10.6978,10.7459,10.7757,10.773,10.7753,10.7804,10.7553,10.7025,10.6621,10.6413,10.6207,10.5959,10.5738,10.549,10.546,10.5487,10.5611,10.5894,10.6215,10.6991,10.8068,10.9382,11.08,11.1212,11.1455,11.2298,11.3288,11.3335,11.3459,11.3961,11.4196,15.8376,15.7579,15.7958,15.7863,15.7318,15.6553,15.4509,15.1766,15.1071,15.0047,14.8783,14.8806,14.8874,14.9186,14.923,14.9071,14.897,15.1158,15.153,15.1948,15.3699,15.3556,15.3594,15.3367,15.2794,15.1852,15.0961,15.0436,14.9887,14.9319,14.8604,14.8333,14.8559,14.8537,14.8333,14.8063,14.7789,14.7283,14.6608,14.606,14.5573,14.5029,14.301,14.1519,14.0756,14.0363,13.9951,13.9772,14.0437,14.0792,14.0544,13.9731,13.8909,13.7995,13.685,13.4528,13.0684,12.7579,12.4721,12.1019,11.8844,11.7648,11.6202,11.4777,11.3822,11.3023,11.2178,11.1837,11.1907,11.204,11.2049,11.2096,11.2103,11.1058,11.0039,10.9686,10.9512,10.8594,10.7235,10.6496,10.6066,10.5856,10.6255,10.6447,10.6433,10.6883,10.7278,10.7382,10.7744,10.7845,10.7312,10.6832,10.69,10.6812,10.6716,10.6453,10.6213,10.6054,10.5828,10.5369,10.5583,10.5859,10.6033,10.6274,10.6674,10.7417,10.8814,10.941,10.9681,11.044,11.149,11.1447,11.0416,11.1312,11.254,15.8687,15.8288,15.7907,15.8135,15.8595,15.7683,15.6417,15.4687,15.2411,15.0938,15.0001,14.907,14.8649,14.8694,14.9119,14.9493,15.1393,15.2797,15.3139,15.4988,15.6508,15.5758,15.5202,15.5053,15.4056,15.2727,15.2039,15.1433,15.0452,14.9869,14.9008,14.831,14.8106,14.8106,14.7832,14.7306,14.7028,14.6795,14.6297,14.5655,14.5276,14.4171,14.2373,14.0864,13.9795,13.9123,13.8702,13.8916,13.9568,14.0363,14.033,13.9784,13.9149,13.8373,13.7507,13.6327,13.3447,13.0652,12.6749,12.2861,12.0637,11.9249,11.8475,11.7173,11.5557,11.4382,11.316,11.2152,11.2264,11.1814,11.1087,11.1621,11.1329,11.0511,10.9646,10.9201,10.8903,10.8193,10.6967,10.6394,10.5945,10.5539,10.544,10.5607,10.595,10.6331,10.68,10.7209,10.7598,10.7097,10.6499,10.6555,10.659,10.6615,10.6621,10.6625,10.6598,10.6555,10.6071,10.5498,10.5617,10.5725,10.5809,10.5986,10.644,10.6942,10.7565,10.8065,10.8793,10.9446,10.9825,10.8927,10.7713,10.8748,11.0357,15.9341,15.9606,15.8114,15.8162,15.9127,15.8619,15.7824,15.662,15.4281,15.2137,15.0682,15.0326,14.9612,14.9509,15.0362,15.1834,15.339,15.4208,15.545,15.7104,15.8242,15.7277,15.6474,15.6317,15.5617,15.3771,15.2756,15.2059,15.107,15.0214,14.9363,14.8605,14.8424,14.8129,14.7763,14.719,14.6655,14.6467,14.5846,14.5368,14.5477,14.414,14.2349,14.0507,13.9597,13.8828,13.8094,13.8622,13.9404,14.0257,14.0868,14.0361,13.9635,13.9024,13.8076,13.6933,13.5715,13.3105,12.9376,12.5775,12.3219,12.1693,12.0468,11.8665,11.655,11.5704,11.4054,11.2475,11.1759,11.0903,11.0086,11.0501,11.0371,10.9548,10.8768,10.8354,10.8129,10.7369,10.6668,10.6008,10.4911,10.4271,10.4636,10.5002,10.5583,10.607,10.6464,10.6884,10.6854,10.6283,10.6079,10.6251,10.6281,10.6428,10.6624,10.6755,10.6833,10.6631,10.6159,10.5554,10.5435,10.5574,10.5689,10.5778,10.6269,10.665,10.6848,10.7138,10.7857,10.7964,10.7675,10.6977,10.674,10.7495,10.8684,16.0436,16.1281,15.8717,15.8144,15.9136,15.9874,15.9109,15.7299,15.6205,15.3884,15.1083,15.1658,15.1622,15.1328,15.2452,15.3685,15.4759,15.5877,15.7221,15.8335,15.9394,15.881,15.8001,15.7156,15.6314,15.4305,15.332,15.2715,15.1929,15.0858,14.9911,14.9275,14.9184,14.8936,14.8101,14.7464,14.7144,14.6982,14.6202,14.5799,14.5614,14.4906,14.3001,14.1272,14.0108,13.9045,13.8306,13.8437,13.8922,13.9731,14.0351,14.0327,13.9629,13.9059,13.8056,13.7159,13.6122,13.427,13.1946,12.8895,12.5973,12.372,12.2176,11.9982,11.7136,11.5353,11.4172,11.2308,11.1292,11.0338,10.9609,10.9126,10.8961,10.8436,10.7434,10.6927,10.6935,10.6544,10.5728,10.5019,10.365,10.273,10.3708,10.4486,10.5119,10.5558,10.6045,10.6199,10.602,10.5844,10.5898,10.5928,10.5866,10.5953,10.6175,10.6616,10.676,10.6663,10.6226,10.5485,10.5255,10.5201,10.5403,10.5706,10.5927,10.6051,10.6157,10.6271,10.6177,10.6152,10.5718,10.5518,10.596,10.6512,10.742,16.0815,16.0599,16.0088,16.012,16.0154,15.9522,15.8596,15.7527,15.7209,15.5502,15.328,15.2772,15.2491,15.252,15.3654,15.4892,15.6055,15.6998,15.8455,15.953,16.002,15.9449,15.8531,15.7587,15.6663,15.4907,15.3885,15.3228,15.2607,15.1517,15.0742,15.036,15.0409,15.0563,14.9706,14.7988,14.6608,14.6514,14.6108,14.5864,14.5668,14.4762,14.3072,14.27,14.0307,13.9066,13.861,13.8128,13.8462,13.8673,13.8881,13.9031,13.8644,13.7869,13.6721,13.6164,13.5298,13.3493,13.1906,12.9451,12.6302,12.4237,12.3088,12.1161,11.887,11.7074,11.4928,11.2855,11.1536,11.0729,11.0026,10.88,10.8157,10.7931,10.6904,10.6108,10.6052,10.5383,10.4623,10.4102,10.3682,10.3012,10.357,10.3485,10.3882,10.4085,10.4679,10.5126,10.5038,10.5136,10.5307,10.5315,10.5217,10.5406,10.5674,10.5724,10.5807,10.5722,10.5479,10.4975,10.4581,10.4692,10.4785,10.4843,10.5057,10.5426,10.5737,10.6008,10.5434,10.4531,10.3883,10.3428,10.4102,10.5297,10.6216,16.1699,16.1459,16.1265,16.0991,16.0599,16.0493,15.9839,15.8897,15.8643,15.7631,15.6098,15.4953,15.4054,15.4113,15.5169,15.6542,15.7486,15.7916,15.913,16.025,16.0237,15.9233,15.85,15.7608,15.6738,15.5042,15.4218,15.3696,15.3507,15.3016,15.209,15.2159,15.2769,15.2703,15.1582,14.9644,14.7778,14.6964,14.6279,14.606,14.571,14.4667,14.3791,14.3454,14.0573,13.9185,13.8529,13.7942,13.7796,13.7804,13.7658,13.8025,13.8144,13.6248,13.5106,13.4629,13.318,13.1872,13.0822,12.8434,12.5821,12.3946,12.2934,12.1563,11.8471,11.7293,11.5532,11.3766,11.1948,11.0633,10.986,10.8564,10.7659,10.7418,10.6866,10.5926,10.5184,10.4075,10.3301,10.3107,10.2924,10.2639,10.2454,10.2373,10.2397,10.2524,10.3394,10.4079,10.4104,10.4181,10.437,10.442,10.4234,10.4333,10.4807,10.4901,10.4878,10.4708,10.4548,10.3839,10.3179,10.3424,10.3703,10.3757,10.3899,10.435,10.4882,10.5512,10.5007,10.3617,10.2666,10.2036,10.2884,10.402,10.4982,16.2682,16.3456,16.2161,16.1137,16.039,16.2222,16.2069,16.0377,16.0322,15.9489,15.8164,15.7288,15.6097,15.6004,15.7122,15.8301,15.8893,15.896,15.9579,15.9579,15.8987,15.8449,15.7951,15.7029,15.5822,15.4678,15.4218,15.4343,15.4572,15.4579,15.5601,15.5943,15.5335,15.496,15.3616,15.1282,14.904,14.7848,14.6767,14.6467,14.5957,14.5088,14.4141,14.3297,14.139,13.9582,13.876,13.8243,13.786,13.7373,13.7188,13.7383,13.6979,13.5159,13.3634,13.2826,13.1406,13.0014,12.877,12.6629,12.4852,12.355,12.2079,12.0234,11.796,11.6563,11.498,11.3195,11.2323,11.1013,10.9619,10.8195,10.7692,10.7107,10.6075,10.52,10.4138,10.2978,10.2307,10.2058,10.1601,10.1003,10.073,10.0559,10.0566,10.0659,10.1481,10.248,10.2611,10.3738,10.3775,10.3524,10.3359,10.3559,10.4021,10.4099,10.4081,10.3928,10.3691,10.2919,10.2198,10.2178,10.2528,10.2713,10.3205,10.3421,10.3732,10.3523,10.316,10.2327,10.1953,10.176,10.229,10.3095,10.3906,16.1159,16.2378,16.2507,16.1794,16.0751,16.1532,16.1225,15.999,16.021,15.9543,15.8397,15.792,15.7461,15.7351,15.8109,15.8819,15.896,15.896,15.9578,15.958,15.8941,15.8185,15.7869,15.6872,15.5537,15.411,15.4357,15.4528,15.5515,15.6868,15.8453,15.9742,15.7955,15.7041,15.5496,15.2873,15.0565,14.9242,14.7829,14.6795,14.6299,14.5306,14.462,14.3411,14.1684,13.9853,13.9341,13.821,13.7434,13.6812,13.6271,13.5945,13.5808,13.3925,13.2169,13.1674,12.967,12.8075,12.6283,12.4947,12.4074,12.3365,12.2156,11.9657,11.7575,11.6396,11.5006,11.3252,11.2697,11.1903,11.0725,10.9234,10.8442,10.7218,10.5569,10.4317,10.3189,10.2121,10.1338,10.0691,9.9961,9.9332,9.8649,9.8596,9.8724,9.883,9.9624,10.0673,10.1959,10.3521,10.3357,10.2735,10.2702,10.3079,10.3359,10.3423,10.3328,10.3188,10.2915,10.2378,10.1878,10.1678,10.1727,10.2154,10.2701,10.2779,10.2561,10.1799,10.1108,10.1108,10.1149,10.1198,10.158,10.2117,10.2932,16.0609,16.2335,16.2416,16.2474,16.2638,16.3167,16.2946,16.2147,16.1674,16.0875,16.0,15.9492,15.8792,15.8126,15.8393,15.8796,15.8983,15.919,15.9714,15.9961,15.8748,15.8252,15.828,15.6785,15.6265,15.5674,15.5408,15.5331,15.6397,15.8379,16.0226,16.0903,16.0082,15.9035,15.8544,15.4557,15.2517,15.0948,14.9001,14.7303,14.6495,14.5483,14.4631,14.443,14.1516,14.0205,13.9414,13.7807,13.6693,13.5479,13.504,13.4294,13.3478,13.2251,13.0401,13.0513,12.8103,12.5902,12.4002,12.2863,12.2351,12.2027,12.1099,11.9277,11.746,11.6087,11.486,11.3644,11.3431,11.2719,11.1447,11.0592,10.9712,10.827,10.6334,10.4772,10.2971,10.1644,10.0125,9.913,9.8205,9.702,9.6064,9.6364,9.685,9.748,9.8598,9.9997,10.1644,10.2643,10.2342,10.192,10.2304,10.2543,10.2742,10.2612,10.2429,10.236,10.2091,10.1531,10.1207,10.1188,10.122,10.1538,10.1814,10.1757,10.1577,10.1108,10.065,10.0488,10.0295,10.0852,10.1357,10.1783,10.2188,16.09,16.2696,16.2454,16.3249,16.4673,16.5381,16.5742,16.5275,16.3896,16.3018,16.1857,16.1315,16.0245,15.9251,15.8743,15.8694,15.8847,15.9013,15.9355,15.9824,15.7859,15.7739,15.9487,15.6541,15.6186,15.6643,15.6565,15.6985,15.8101,15.916,16.0524,16.1303,16.1091,16.0802,15.9659,15.6392,15.4512,15.3011,14.9994,14.7892,14.6881,14.4882,14.408,14.3342,14.137,13.942,13.8832,13.7839,13.5931,13.4143,13.3942,13.2898,13.1037,13.0357,12.9289,12.753,12.586,12.3997,12.2028,12.1144,12.0712,11.98,11.9424,11.8524,11.7177,11.5915,11.5188,11.4294,11.4134,11.3524,11.2462,11.204,11.0998,10.9246,10.7038,10.4835,10.2552,10.0905,9.9081,9.7953,9.6816,9.5364,9.4227,9.4647,9.5162,9.6422,9.7765,9.9632,10.1028,10.1092,10.087,10.1529,10.1955,10.2138,10.2249,10.1715,10.1554,10.1495,10.0966,10.0346,10.0224,10.0234,10.0437,10.0302,10.0724,10.0729,10.0323,10.0134,10.0149,9.9834,9.9495,10.0062,10.0865,10.1332,10.1491,16.3118,16.1662,16.3818,16.4298,16.4004,16.5397,16.5826,16.53,16.5224,16.4164,16.2463,16.2156,16.1553,16.0534,15.9779,15.9123,15.887,15.7777,15.8726,15.9262,15.6833,15.6556,15.82,15.7177,15.6009,15.7157,15.7136,15.8557,15.9671,16.043,16.0884,16.1203,16.1249,16.0596,15.9449,15.7622,15.516,15.2948,15.0444,14.8753,14.668,14.3888,14.1831,14.1356,13.9469,13.8048,13.7612,13.7147,13.5678,13.3966,13.3429,13.2938,13.0926,13.0295,12.8631,12.5829,12.4713,12.301,12.1109,11.9727,11.8863,11.8053,11.7691,11.7142,11.6407,11.6252,11.585,11.4599,11.4416,11.4268,11.3107,11.2866,11.1804,10.997,10.7746,10.5154,10.2575,10.0286,9.8483,9.6711,9.5455,9.4474,9.3719,9.3953,9.4824,9.5993,9.6767,9.8651,10.0387,10.0249,10.0503,10.1156,10.1699,10.1834,10.1674,10.1209,10.0779,10.0549,9.996,9.9504,9.9384,9.9294,9.8738,9.8433,9.8896,9.9131,9.8911,9.8661,9.8872,9.8878,9.8624,9.8771,9.93,9.9815,10.0425,16.3752,16.1563,16.4976,16.562,16.4802,16.6395,16.6618,16.5809,16.6132,16.5156,16.3719,16.3613,16.3278,16.1996,16.1043,16.0004,15.9316,15.8432,15.9198,15.9621,15.7958,15.813,16.0467,15.8122,15.765,15.8531,15.901,15.9914,16.0377,16.0644,16.0896,16.1008,16.0808,16.0403,15.9481,15.8139,15.5944,15.3619,15.1381,14.938,14.7036,14.5224,14.2695,14.1383,13.968,13.8198,13.7173,13.6945,13.5586,13.3524,13.3645,13.2105,13.0182,12.8679,12.7486,12.4467,12.3303,12.2201,12.0448,11.9371,11.8167,11.7459,11.72,11.6697,11.6341,11.6176,11.6019,11.5319,11.5261,11.4532,11.3328,11.3599,11.2706,11.1027,10.869,10.5881,10.2938,10.0342,9.7937,9.5654,9.5081,9.4523,9.3577,9.3678,9.4515,9.5226,9.5988,9.7711,9.9793,10.0037,10.0238,10.0995,10.1678,10.1744,10.1594,10.0815,10.012,9.9557,9.8948,9.8705,9.8557,9.8557,9.7988,9.697,9.6861,9.7139,9.7153,9.74,9.7694,9.7856,9.7542,9.7388,9.7833,9.8423,9.9232,16.4164,16.1719,16.5957,16.6837,16.5872,16.7656,16.7578,16.6331,16.6923,16.5936,16.3926,16.5013,16.4675,16.3343,16.2304,16.1078,15.9884,15.9038,15.9512,15.996,15.8639,15.927,16.0721,15.9026,15.9315,16.1327,16.1216,16.0278,15.9987,16.002,16.0342,16.0699,16.041,16.0005,15.9375,15.8613,15.6751,15.3909,15.223,14.9656,14.7356,14.5587,14.3945,14.0877,13.9653,13.8236,13.701,13.6633,13.557,13.3049,13.3544,13.144,12.8648,12.8106,12.6354,12.3556,12.2298,12.1423,11.984,11.9101,11.8383,11.7594,11.6889,11.6437,11.5845,11.5661,11.5409,11.5132,11.4577,11.4006,11.2763,11.3435,11.3314,11.1984,10.9648,10.6925,10.3855,10.1197,9.8768,9.6642,9.5576,9.4887,9.4082,9.3794,9.4906,9.5965,9.6123,9.7015,9.866,9.9245,9.9642,10.048,10.1331,10.1364,10.1335,10.0285,9.9374,9.8823,9.8229,9.794,9.7643,9.7672,9.7043,9.5824,9.538,9.5562,9.5875,9.6115,9.6252,9.6025,9.6041,9.6025,9.5836,9.5722,9.6885,16.5879,16.2546,16.6776,16.7382,16.6161,16.8265,16.7859,16.5918,16.7319,16.6191,16.3825,16.4984,16.5001,16.3808,16.3443,16.2633,16.0932,15.9241,15.877,15.94,15.7711,15.8559,15.9994,15.9533,15.9375,16.0472,16.0476,16.0298,15.9782,15.9625,15.9558,15.976,15.967,15.9041,15.8724,15.8613,15.7177,15.4041,15.2832,15.0677,14.6776,14.5047,14.3026,14.0179,13.8799,13.7341,13.6113,13.5928,13.513,13.2042,13.2759,13.061,12.7935,12.7353,12.6834,12.1975,12.1667,12.0778,11.9198,11.7752,11.6739,11.5466,11.5727,11.5526,11.4852,11.4718,11.4564,11.389,11.3271,11.2818,11.3818,11.3662,11.3058,11.2505,11.0701,10.7663,10.4662,10.3414,10.1297,9.8991,9.7637,9.6281,9.5091,9.4104,9.546,9.6519,9.5972,9.6062,9.731,9.8133,9.861,9.9266,10.0058,10.0331,10.0372,9.9612,9.8912,9.825,9.7503,9.7099,9.6658,9.6297,9.5566,9.4489,9.3956,9.4335,9.4574,9.4251,9.402,9.4048,9.3985,9.3899,9.3615,9.3269,9.4024,16.6108,16.3392,16.7126,16.7497,16.6188,16.8099,16.7963,16.6579,16.783,16.6651,16.4384,16.5231,16.5093,16.3732,16.346,16.2875,16.1434,15.9786,15.9257,15.9017,15.8434,15.8523,15.9938,15.9198,15.8951,15.976,15.9737,15.985,15.949,15.8815,15.8275,15.8456,15.7311,15.7132,15.7424,15.7692,15.6325,15.4132,15.3387,15.0769,14.6425,14.4562,14.2375,13.9678,13.7987,13.6808,13.5466,13.6042,13.4659,13.2947,13.2667,13.1019,12.7159,12.7014,12.5788,12.2361,12.1246,12.0004,11.9141,11.7735,11.6614,11.582,11.5456,11.5215,11.5128,11.4454,11.4211,11.3896,11.3099,11.2555,11.4035,11.3535,11.3919,11.3871,11.2071,10.9205,10.6793,10.5958,10.4653,10.1748,9.9925,9.814,9.64,9.5187,9.5924,9.6501,9.5949,9.5944,9.7061,9.7516,9.781,9.8147,9.8863,9.9234,9.9325,9.8943,9.8154,9.7507,9.6681,9.5986,9.5511,9.4847,9.4125,9.3272,9.2454,9.2865,9.262,9.1796,9.1366,9.1656,9.1831,9.1685,9.1713,9.2152,9.2633,16.6124,16.4141,16.71,16.7277,16.6129,16.7641,16.7556,16.6318,16.7987,16.6951,16.4944,16.5592,16.5306,16.4018,16.3798,16.2825,16.176,16.1591,16.0731,15.9666,15.9351,15.9533,15.951,15.8689,15.8502,15.887,15.887,15.9214,15.9242,15.7915,15.6951,15.7043,15.6012,15.5116,15.6032,15.6212,15.5518,15.4177,15.321,15.0244,14.612,14.4349,14.2388,13.9095,13.7979,13.6872,13.6083,13.6068,13.4771,13.2634,13.1859,13.0081,12.6548,12.6088,12.5159,12.2778,12.1047,12.0037,11.9755,11.8665,11.749,11.687,11.6197,11.5497,11.5826,11.4721,11.4333,11.4206,11.317,11.2413,11.3167,11.3757,11.4532,11.4841,11.3389,11.1101,10.9292,10.8411,10.6589,10.3848,10.1879,9.999,9.7041,9.6723,9.6451,9.6233,9.6262,9.6162,9.6507,9.6962,9.7148,9.722,9.7737,9.7862,9.7827,9.7489,9.7018,9.6601,9.5547,9.473,9.4356,9.3732,9.2803,9.1982,9.1202,9.0742,9.0629,8.9916,8.9579,8.9614,8.9757,8.965,8.9899,9.0999,9.1604,16.6341,16.5478,16.6535,16.6535,16.6074,16.7192,16.6824,16.5638,16.7547,16.7074,16.5195,16.5682,16.5552,16.4921,16.4723,16.3776,16.1777,16.2483,16.1259,15.9607,15.8752,15.8432,15.8481,15.7882,15.7852,15.8052,15.8636,15.8729,15.8327,15.7282,15.6657,15.6099,15.5027,15.4646,15.4646,15.4714,15.3976,15.2837,15.2256,14.9541,14.5617,14.4414,14.2196,13.8801,13.7908,13.7111,13.5926,13.5267,13.3939,13.0384,12.9892,12.816,12.539,12.4958,12.4401,12.3139,12.1393,12.0574,12.0707,11.9509,11.8525,11.7868,11.7321,11.6817,11.5807,11.4758,11.4029,11.4009,11.2302,11.1951,11.2073,11.331,11.4648,11.5151,11.502,11.3575,11.1939,11.0271,10.8049,10.5063,10.4006,10.2289,10.0309,9.9164,9.8777,9.79,9.7503,9.7207,9.6974,9.6937,9.6765,9.6572,9.6412,9.649,9.6342,9.6174,9.6074,9.565,9.4576,9.3957,9.3609,9.2686,9.1671,9.0646,8.981,8.9269,8.8744,8.8405,8.8219,8.8054,8.7511,8.7469,8.7656,8.8749,8.9818,16.6008,16.5743,16.6496,16.6387,16.5993,16.6746,16.6703,16.6233,16.7125,16.6797,16.5885,16.5749,16.5388,16.5062,16.5106,16.3925,16.2067,16.2818,16.1662,15.9316,15.8685,15.7938,15.6965,15.6269,15.6758,15.7707,15.7745,15.7887,15.7792,15.5975,15.5131,15.4731,15.2949,15.2279,15.277,15.3083,15.2793,15.2079,15.1633,14.9297,14.482,14.4002,14.1418,13.8295,13.6956,13.6189,13.4541,13.3452,13.1807,13.0012,12.9606,12.8044,12.4339,12.4612,12.4239,12.2034,12.1085,12.0623,12.0647,12.0012,11.8984,11.8145,11.7459,11.6962,11.6385,11.5415,11.4929,11.4844,11.4315,11.355,11.3197,11.4509,11.5721,11.6017,11.6299,11.5844,11.4487,11.2572,11.0273,10.7869,10.6055,10.4459,10.1647,10.0833,10.0101,9.936,9.8851,9.8075,9.74,9.6888,9.6465,9.5685,9.5335,9.549,9.5398,9.5559,9.5515,9.4749,9.3873,9.3542,9.2861,9.1874,9.079,8.9618,8.8616,8.7659,8.6894,8.6276,8.6235,8.597,8.5327,8.518,8.5668,8.6464,8.757,16.5554,16.6051,16.5945,16.5887,16.5869,16.6327,16.6538,16.6538,16.6689,16.6642,16.6179,16.5545,16.5167,16.497,16.4751,16.3619,16.2207,16.2417,16.1195,15.8896,15.8607,15.7437,15.566,15.4999,15.563,15.6829,15.6588,15.6848,15.7526,15.4675,15.3478,15.3656,15.1455,15.0318,15.0921,15.1366,15.1343,15.1076,15.072,14.8275,14.4798,14.3277,14.0807,13.7468,13.6159,13.5016,13.3756,13.1951,13.0226,12.8536,12.865,12.6745,12.3615,12.3645,12.3202,12.1397,12.0858,12.0768,12.0817,12.0379,11.9587,11.8579,11.7971,11.7438,11.7329,11.6258,11.5871,11.6138,11.6159,11.5459,11.4844,11.5757,11.666,11.7033,11.7193,11.6822,11.5509,11.4069,11.2039,10.9439,10.7896,10.5944,10.3757,10.2455,10.1697,10.071,9.9879,9.8969,9.8251,9.7566,9.6284,9.5306,9.4643,9.4662,9.467,9.4871,9.456,9.3666,9.2992,9.2533,9.1539,9.0749,8.9759,8.8766,8.7789,8.6697,8.5644,8.4583,8.4109,8.3963,8.3647,8.3702,8.4011,8.4417,8.554,16.4913,16.6346,16.4664,16.4674,16.5808,16.5901,16.5962,16.596,16.6445,16.6281,16.5707,16.5274,16.5074,16.479,16.3921,16.2891,16.1826,16.1614,16.0083,15.8097,15.7379,15.6325,15.4624,15.456,15.473,15.4958,15.5076,15.5716,15.6235,15.3421,15.2411,15.3143,15.0854,14.943,14.9652,14.9497,14.9652,14.9385,14.825,14.6653,14.4287,14.257,14.0263,13.7631,13.5924,13.4612,13.365,13.1739,12.9688,12.7281,12.5188,12.387,12.2849,12.1678,12.1431,12.1132,12.1199,12.129,12.1536,12.0787,12.0195,11.978,11.8745,11.8283,11.7978,11.6898,11.616,11.649,11.6688,11.6298,11.5514,11.6032,11.6835,11.743,11.7547,11.6842,11.5191,11.4037,11.231,11.0234,10.8948,10.7676,10.5398,10.4438,10.3673,10.2686,10.0979,10.0079,9.9165,9.7693,9.6389,9.5382,9.4513,9.435,9.3865,9.3927,9.3134,9.2224,9.1436,9.0698,8.9776,8.9347,8.8654,8.7923,8.7039,8.5832,8.4748,8.3781,8.3025,8.2403,8.2256,8.2457,8.2715,8.3022,8.3808,16.3883,16.5892,16.439,16.4518,16.5777,16.5777,16.5777,16.5806,16.553,16.5554,16.5365,16.4475,16.4326,16.466,16.3658,16.2601,16.1735,16.128,15.9484,15.6814,15.6187,15.4881,15.3253,15.3216,15.3294,15.3489,15.3171,15.336,15.3856,15.2168,15.1381,15.1694,15.0542,14.9628,14.9318,14.9584,14.9049,14.8072,14.7689,14.5798,14.2656,14.1245,13.9193,13.5948,13.4513,13.3362,13.1864,12.8874,12.6931,12.6122,12.4516,12.253,12.1034,12.0862,12.0238,11.9415,11.9354,11.9825,11.9987,12.0357,12.0184,11.9101,11.8454,11.8147,11.7901,11.6916,11.6624,11.7155,11.7419,11.7112,11.6193,11.6635,11.7597,11.8496,11.7975,11.7411,11.6939,11.5377,11.3283,11.1305,11.0149,10.8922,10.7391,10.6272,10.5403,10.3957,10.2382,10.1251,9.938,9.7877,9.6432,9.5231,9.434,9.3679,9.3252,9.2565,9.1775,9.0928,9.0225,8.9603,8.8999,8.868,8.8363,8.7711,8.6556,8.5394,8.4282,8.3214,8.1951,8.1076,8.0503,8.0679,8.0905,8.1332,8.2212,16.2662,16.4833,16.3166,16.3418,16.5022,16.4919,16.479,16.4754,16.45,16.4388,16.4385,16.3505,16.3292,16.3395,16.2843,16.1898,16.1047,16.0446,15.8808,15.6502,15.5646,15.442,15.2846,15.221,15.2234,15.247,15.1651,15.1492,15.1841,15.0787,15.051,15.0624,15.0231,14.9471,14.8826,14.9088,14.8529,14.6798,14.6185,14.4247,14.0933,13.942,13.7395,13.4576,13.2932,13.1345,12.9403,12.627,12.5046,12.5657,12.4195,12.2287,12.0397,12.0015,11.9213,11.7887,11.8351,11.8732,11.872,11.9249,11.9143,11.8163,11.8116,11.8192,11.8114,11.7444,11.7424,11.8042,11.8184,11.7828,11.717,11.748,11.8253,11.9074,11.8253,11.7825,11.7792,11.6032,11.3884,11.1923,11.0933,11.0091,10.884,10.6837,10.593,10.5319,10.3584,10.1987,10.0273,9.8765,9.6951,9.5583,9.3941,9.3,9.274,9.2275,9.1241,9.0283,8.9953,8.9512,8.9015,8.8646,8.8383,8.7684,8.6247,8.5025,8.3959,8.2743,8.1382,8.0279,7.978,7.948,7.9254,7.985,8.0798,16.1281,16.3232,16.0837,16.1529,16.3604,16.3106,16.261,16.2824,16.3127,16.2971,16.2768,16.2645,16.1907,16.1154,16.0941,16.0417,15.9586,15.8847,15.7674,15.6481,15.5961,15.4869,15.3257,15.1937,15.1563,15.2034,15.0774,15.0558,15.1284,14.9831,14.958,15.0424,14.9853,14.909,14.7855,14.8075,14.7227,14.5505,14.3308,14.1405,14.0158,13.696,13.5021,13.4223,13.1431,12.8961,12.7012,12.4973,12.4258,12.4994,12.3464,12.1971,12.0263,11.8979,11.8011,11.7985,11.8365,11.8438,11.8029,11.8114,11.8061,11.7532,11.826,11.8738,11.8653,11.8624,11.8608,11.863,11.8653,11.8482,11.8021,11.8218,11.8783,11.9168,11.8296,11.797,11.7793,11.5939,11.3595,11.2301,11.1302,11.0552,10.9779,10.7846,10.6218,10.6336,10.4566,10.2367,10.164,9.9829,9.8126,9.6857,9.5264,9.3627,9.2776,9.1961,9.0803,8.9824,8.9718,8.9587,8.9201,8.8914,8.8679,8.8108,8.6718,8.5157,8.4087,8.206,8.0728,7.9952,7.9478,7.9055,7.9174,7.9465,8.0134,16.0619,16.2658,16.1602,16.2096,16.3448,16.2493,16.2189,16.2347,16.1152,16.1271,16.1664,15.9836,15.9634,16.0398,15.9033,15.8183,15.8143,15.7826,15.6931,15.5653,15.5071,15.4049,15.2566,15.0835,15.0353,15.0814,14.9382,14.8629,14.9047,14.8842,14.9117,14.9808,15.0269,14.9846,14.8928,14.883,14.7528,14.5126,14.3123,14.0833,13.8349,13.5235,13.2882,13.1164,12.8587,12.6951,12.6721,12.3636,12.2284,12.2468,12.0234,11.8391,11.7728,11.7185,11.7003,11.718,11.7343,11.7228,11.6834,11.7582,11.7883,11.7482,11.8454,11.8954,11.8429,11.9161,11.8971,11.8449,11.8766,11.8978,11.8216,11.8552,11.9252,11.9465,11.8291,11.7563,11.7855,11.6005,11.4417,11.3371,11.2569,11.1394,11.0113,10.8821,10.748,10.5971,10.4761,10.3063,10.2044,10.0576,9.9464,9.7957,9.6229,9.4852,9.3536,9.2671,9.1651,9.0341,8.992,8.9739,8.9457,8.9277,8.8992,8.8423,8.7261,8.5668,8.3779,8.1628,8.0422,7.9746,7.9345,7.9291,7.9336,7.9474,7.9479,15.9047,16.0445,16.0256,16.0829,16.1603,16.0605,16.0155,16.0001,15.8875,15.912,15.9754,15.7924,15.7759,15.907,15.6472,15.5469,15.5827,15.6235,15.5879,15.4953,15.4021,15.312,15.2026,15.0236,14.9622,14.9872,14.8536,14.7851,14.818,14.8096,14.8253,14.8672,14.9073,14.8826,14.8079,14.7991,14.6647,14.3797,14.2168,13.966,13.6147,13.3548,13.082,12.8141,12.5656,12.4365,12.4434,12.1953,12.0536,12.0753,11.884,11.734,11.6577,11.637,11.6383,11.6224,11.5957,11.5831,11.6101,11.6876,11.7272,11.7074,11.8376,11.8931,11.8689,11.9481,11.9848,11.9057,11.9616,11.9765,11.9092,11.9499,12.0162,12.0102,11.8618,11.7453,11.7387,11.591,11.4491,11.4144,11.3421,11.2256,11.0434,10.8751,10.7426,10.6089,10.4867,10.364,10.2388,10.141,10.0405,9.8925,9.7425,9.5851,9.4176,9.3321,9.25,9.1213,9.0249,9.0171,8.9911,8.9705,8.9031,8.8438,8.6576,8.5006,8.4338,8.2253,8.1219,8.0463,7.9905,7.9827,7.9739,7.9173,7.8944,15.6566,15.673,15.7282,15.8115,15.8364,15.7748,15.6833,15.6148,15.6358,15.6642,15.676,15.6336,15.6246,15.5843,15.3382,15.2363,15.3003,15.3943,15.4248,15.3936,15.2766,15.2077,15.1874,15.007,14.9071,14.8988,14.785,14.7777,14.8519,14.7698,14.7206,14.7248,14.7143,14.627,14.5525,14.5804,14.444,14.1797,14.011,13.7545,13.4069,13.1768,12.8758,12.5456,12.308,12.154,12.0529,11.9938,11.9463,11.9119,11.873,11.8118,11.6839,11.6315,11.5872,11.5263,11.4458,11.4548,11.5662,11.5892,11.5892,11.6166,11.7622,11.8701,11.8491,11.9993,12.0766,12.0629,12.0292,12.0514,12.0917,12.0938,12.0956,12.0896,11.891,11.7665,11.7911,11.5618,11.434,11.4088,11.3533,11.2544,11.1179,10.7492,10.6542,10.6506,10.5533,10.3936,10.3239,10.2222,10.1085,9.9679,9.7931,9.606,9.4821,9.415,9.3459,9.2145,9.103,9.0901,9.0509,8.9962,8.9103,8.7987,8.6051,8.4764,8.4186,8.3215,8.1979,8.1374,8.0711,8.0453,8.0497,7.9304,7.8771,15.6489,15.7482,15.8624,15.8623,15.7727,15.7417,15.6131,15.4383,15.3508,15.3614,15.4009,15.1737,15.0871,15.1115,15.0477,15.0543,15.1441,15.1708,15.1687,15.1274,15.0874,15.0052,14.9037,14.7369,14.6983,14.7298,14.6235,14.6442,14.7887,14.8405,14.8337,14.79,14.8237,14.6934,14.4197,14.4198,14.3109,14.0536,13.8893,13.7023,13.4485,13.0043,12.6428,12.4146,12.2114,12.0714,11.9887,11.8758,11.7883,11.7544,11.6351,11.5391,11.5009,11.5072,11.4922,11.4417,11.4055,11.407,11.4328,11.4087,11.4067,11.4563,11.6765,11.795,11.802,12.0585,12.193,12.0904,12.1275,12.1845,12.2292,12.1282,12.0475,12.031,11.8761,11.7191,11.651,11.602,11.5066,11.4155,11.379,11.3179,11.2188,10.9765,10.7226,10.6597,10.598,10.5421,10.4033,10.2996,10.1798,10.0018,9.8527,9.6955,9.5363,9.4667,9.3737,9.2393,9.1011,9.0462,9.033,8.9002,8.7967,8.7656,8.579,8.4505,8.4283,8.3123,8.1741,8.1764,8.1585,8.1378,8.1209,8.0694,7.9925,15.5932,15.6929,15.8275,15.7742,15.6001,15.5283,15.3737,15.146,15.0165,15.0205,15.0832,14.7553,14.5771,14.5595,14.7587,14.8395,14.8484,14.9305,14.9454,14.9172,14.8344,14.7577,14.659,14.5135,14.483,14.5381,14.466,14.4905,14.6278,14.7929,14.8261,14.7433,14.7341,14.5909,14.3048,14.3192,14.2077,13.9541,13.7942,13.557,13.2415,12.8721,12.5055,12.1712,11.9781,11.8217,11.6675,11.5404,11.4653,11.4456,11.3437,11.2672,11.2306,11.2765,11.28,11.2211,11.2991,11.3731,11.4232,11.408,11.4055,11.4446,11.6116,11.6795,11.6444,11.9502,12.1161,12.0056,12.0566,12.1284,12.1453,12.0611,11.9847,11.9441,11.8303,11.7216,11.6492,11.6352,11.5873,11.4961,11.4228,11.3454,11.2402,11.0624,10.8621,10.7131,10.5887,10.5334,10.436,10.3007,10.1662,10.0141,9.8667,9.7114,9.5501,9.4567,9.3485,9.2206,9.079,8.9864,8.9702,8.8532,8.7228,8.7228,8.5649,8.4674,8.4513,8.3327,8.2437,8.271,8.261,8.1945,8.1809,8.1056,8.0293,15.5304,15.5893,15.704,15.6163,15.4094,15.2313,15.023,14.7883,14.6669,14.6684,14.6902,14.3793,14.1524,14.069,14.4594,14.5888,14.5046,14.6503,14.7241,14.7125,14.5537,14.4597,14.4299,14.2942,14.2552,14.2874,14.271,14.2957,14.4051,14.6185,14.7012,14.6356,14.5229,14.3809,14.2023,14.2041,14.0943,13.8396,13.6615,13.3331,12.8599,12.7256,12.3971,11.8196,11.6706,11.4564,11.1745,11.068,11.0172,11.0094,10.9928,10.9466,10.8896,10.9675,10.9803,10.915,11.1069,11.305,11.4346,11.4746,11.4807,11.5212,11.5418,11.5735,11.5773,11.7663,11.87,11.8665,11.9012,11.9646,11.9769,11.9583,11.933,11.9108,11.8069,11.7325,11.7414,11.6989,11.6525,11.6252,11.4892,11.355,11.241,11.0747,10.9376,10.8297,10.6629,10.5044,10.4245,10.2586,10.0967,10.0253,9.8857,9.7106,9.5419,9.412,9.3247,9.2264,9.0458,8.9597,8.9168,8.8037,8.6467,8.6437,8.5414,8.4785,8.4487,8.3989,8.3469,8.3746,8.3258,8.2385,8.1799,8.0944,8.0149,15.6288,15.6362,15.7152,15.6451,15.4582,15.1208,14.7722,14.4687,14.4216,14.2793,14.0737,14.0187,13.9996,14.0063,14.1483,14.2412,14.2664,14.2473,14.297,14.382,14.2827,14.1854,14.1019,14.0022,13.9474,13.9301,13.8639,13.9759,14.2186,14.2954,14.43,14.5988,14.4668,14.2543,13.9862,13.9443,13.7929,13.5149,13.2143,12.9843,12.8258,12.445,12.0734,11.6975,11.468,11.185,10.8278,10.6828,10.5735,10.4956,10.4073,10.3863,10.4555,10.5319,10.6153,10.6835,10.7815,10.9196,11.0935,11.2455,11.3026,11.2211,11.4357,11.5772,11.5927,11.7021,11.7692,11.7593,11.8808,12.0039,12.0,11.9337,11.8938,11.9324,11.8464,11.7691,11.778,11.7822,11.7754,11.7397,11.576,11.4414,11.3684,11.1724,11.0074,10.9507,10.7716,10.5576,10.3907,10.2369,10.1234,10.0651,9.9816,9.8053,9.5776,9.4696,9.3505,9.179,9.0333,8.9494,8.8863,8.7571,8.6388,8.5919,8.5241,8.4917,8.4771,8.448,8.4434,8.4525,8.4242,8.3798,8.2919,8.1806,8.0821,15.6201,15.5808,15.713,15.606,15.3331,15.0638,14.6431,14.1492,13.9954,13.7924,13.6038,13.6848,13.7291,13.7466,13.8822,13.9885,14.0761,14.049,14.0949,14.1744,14.073,13.9816,13.9267,13.7851,13.7407,13.7645,13.67,13.738,13.9571,14.1022,14.2536,14.4194,14.4416,14.2946,14.0093,13.8411,13.6531,13.4328,13.0857,12.7853,12.5434,12.2068,11.811,11.3401,11.0344,10.676,10.2364,10.1573,10.1033,10.0559,10.0404,10.0502,10.0816,10.1322,10.1777,10.1994,10.365,10.5435,10.7233,10.9005,11.0105,11.0507,11.2855,11.4026,11.328,11.4333,11.4962,11.4886,11.5994,11.6882,11.7002,11.6614,11.647,11.6831,11.6927,11.6844,11.6789,11.7555,11.8056,11.7509,11.6378,11.5372,11.4805,11.2742,11.1194,11.0453,10.9055,10.6799,10.4306,10.2404,10.0959,9.995,9.9173,9.7718,9.564,9.4368,9.2984,9.1442,8.9847,8.8852,8.864,8.7801,8.6831,8.63,8.605,8.5776,8.547,8.5068,8.4877,8.4947,8.4779,8.4486,8.4126,8.2999,8.1789,15.5602,15.4817,15.6584,15.5057,15.146,14.9794,14.536,13.9137,13.5841,13.3744,13.2775,13.4187,13.4639,13.4517,13.6612,13.8136,13.9211,13.942,13.9855,14.0402,13.9001,13.8113,13.779,13.6055,13.5644,13.6127,13.5261,13.5272,13.6282,13.8833,14.0618,14.1351,14.3568,14.3356,14.074,13.8029,13.5886,13.4216,13.0639,12.6383,12.1715,12.0066,11.6006,10.9345,10.6017,10.1719,9.627,9.5991,9.5878,9.5757,9.6402,9.669,9.6503,9.6732,9.6809,9.6652,9.9091,10.1479,10.3376,10.4482,10.6129,10.8615,11.0721,11.0925,10.8893,11.0043,11.1242,11.1651,11.1995,11.2245,11.2798,11.3537,11.3921,11.3992,11.4744,11.5412,11.5787,11.6974,11.7642,11.741,11.6835,11.5894,11.5094,11.3595,11.2234,11.1293,10.9473,10.7702,10.5315,10.3028,10.0945,9.9078,9.8214,9.7076,9.5262,9.3513,9.2404,9.1126,8.9358,8.8365,8.8642,8.8042,8.7473,8.7159,8.6957,8.6876,8.655,8.5638,8.5368,8.5618,8.5088,8.45,8.4965,8.3949,8.2751,15.498,15.5502,15.4181,15.2638,15.0998,14.6947,14.3138,13.9612,13.6227,0.0,0.0,13.374,13.4557,13.4856,13.5708,13.7185,13.9085,13.8015,13.8047,13.8913,13.7535,13.5947,13.4401,13.3659,13.2969,13.2367,13.1777,13.1785,13.2264,13.422,13.6108,13.7812,14.0043,14.0846,13.9818,13.7224,13.4523,13.1793,12.8159,12.4262,12.0275,11.8774,11.4314,10.647,10.5306,10.1003,9.3113,9.1664,8.9994,8.7771,8.687,8.7216,8.8917,8.9657,9.1136,9.3558,9.4885,9.6667,9.9215,9.8486,9.9576,10.3458,10.671,10.6573,10.2043,10.3974,10.6435,10.8917,10.9067,11.0152,11.2785,11.3433,11.38,11.4024,11.4218,11.4921,11.61,11.6005,11.6461,11.7981,11.6721,11.553,11.6083,11.444,11.2963,11.2349,10.957,10.671,10.6955,10.5425,10.291,10.0118,9.8875,9.7779,9.537,9.4107,9.315,9.1087,8.9959,8.9353,8.9003,8.8319,8.7686,8.7486,8.7271,8.7204,8.7361,8.6894,8.6724,8.6776,8.6272,8.565,8.4877,8.4007,8.3404,15.3623,15.3015,15.2485,15.0921,0.0,14.5743,14.2429,13.8615,13.6516,13.3396,12.9898,13.1365,13.2039,13.2078,13.2796,13.4797,13.774,13.6555,13.681,13.8132,13.7213,13.5748,13.3918,13.3118,13.1928,13.0239,12.9499,12.9207,12.9414,13.096,13.2926,13.5319,13.7539,13.8863,13.9146,13.8209,13.5496,13.0934,12.61,12.2106,11.8974,11.6137,11.1769,10.5826,10.2564,0.0,0.0,0.0,0.0,0.0,0.0,0.0,0.0,0.0,0.0,8.6592,8.6119,8.7227,9.0333,8.9934,9.2357,9.8723,9.9524,9.8021,9.4518,9.9269,10.277,10.3583,10.419,10.5214,10.6833,10.7189,10.7661,10.8762,11.0069,11.1433,11.2843,11.4468,11.6001,11.7112,11.6867,11.6566,11.6923,11.5525,11.4384,11.3494,11.0994,10.902,10.8098,10.5639,10.3279,10.1419,9.9452,9.6887,9.4733,9.3808,9.2734,9.1159,9.035,8.9777,8.8734,8.8618,8.819,8.6764,8.703,8.7174,8.6909,8.6974,8.7169,8.7271,8.7002,8.6511,8.6208,8.535,8.4659,15.1865,15.0183,15.0826,14.9165,14.6135,14.4714,14.1623,13.7613,13.6068,13.2696,12.8354,12.8992,12.9104,12.8868,13.0069,13.2503,13.5786,13.5516,13.617,13.7677,13.7386,13.6113,13.4087,13.3164,13.1277,12.8655,12.7986,12.7291,12.6513,12.7969,12.9865,13.2217,13.4794,13.6774,13.8086,0.0,0.0,0.0,12.5241,12.0714,11.7751,11.37,10.9417,10.5009,9.9971,0.0,9.3127,9.1769,9.1169,9.122,9.0588,0.0,0.0,0.0,0.0,0.0,0.0,0.0,0.0,0.0,0.0,0.0,8.9908,8.8373,8.8095,9.349,9.7032,9.6841,9.8206,9.953,10.0544,10.0787,10.1556,10.3145,10.5283,10.7141,10.8615,11.1765,11.454,11.5228,11.6516,11.7338,11.75,11.7012,11.6118,11.5096,11.3119,11.105,10.9119,10.5762,10.3062,10.2038,9.8896,9.5741,9.36,9.2652,9.1735,9.0682,9.0238,8.944,8.8216,8.8517,8.7991,8.6179,8.6411,8.6873,8.6155,8.6531,8.7086,8.7475,8.7307,8.7206,8.7241,8.6493,8.5684,15.0024,14.9282,14.822,14.7224,14.6037,14.2236,13.9614,13.7679,13.4006,13.1468,12.979,12.7976,12.7078,12.7199,12.9431,13.1691,13.3819,13.5812,13.6876,13.7161,13.7547,13.6058,13.2992,13.284,13.0671,12.6805,12.7385,12.594,12.2724,12.4389,12.5807,12.6895,13.0738,13.387,13.6155,13.6797,13.5765,13.2975,12.7089,12.1495,11.624,11.3126,10.8538,10.2375,10.0083,9.6799,9.2221,9.1353,9.0297,8.867,8.8007,8.6511,8.3803,8.1337,7.8988,0.0,7.5302,0.0,0.0,0.0,0.0,0.0,0.0,0.0,0.0,8.4066,8.4997,8.8751,9.1263,9.4439,9.8798,10.0346,10.1184,10.1371,10.2036,10.3341,10.5578,10.646,10.8459,11.2541,11.4581,11.6497,11.8149,11.8468,11.8404,11.7662,11.4295,11.1303,11.0077,10.7835,10.4956,10.1891,9.8549,9.5284,9.2143,9.1031,9.0563,8.9533,8.8965,8.8164,8.7562,8.6997,8.6378,8.6011,8.5819,8.5799,8.605,8.6396,8.6742,8.6841,8.7239,8.7151,8.6091,8.5883,8.5659,14.5464,14.4811,14.4487,14.2338,13.9202,13.8381,13.711,13.537,13.2957,12.9622,12.571,12.2591,12.0529,11.9648,12.2297,12.5914,13.0021,13.1752,13.3947,13.6454,13.6238,13.481,13.2373,13.2097,12.975,12.5638,12.5127,12.3111,11.9827,11.986,12.0424,12.1504,12.5731,12.6761,12.4898,13.0698,13.304,13.1654,13.0055,12.5235,11.6947,11.1931,10.7404,10.3291,9.9986,9.7326,9.5445,9.3747,9.2646,9.2228,9.007,8.7488,8.4547,7.9252,7.5354,0.0,0.0,0.0,0.0,0.0,0.0,0.0,0.0,0.0,0.0,0.0,8.1601,8.357,8.6047,8.8891,9.2057,9.1144,9.2029,9.5994,9.3999,9.4509,10.0217,10.1619,10.398,10.8765,11.2284,11.5503,11.8558,11.8869,11.8592,11.8046,11.5447,11.3124,11.1569,10.8886,10.6021,10.3191,10.0056,9.6672,9.2609,9.0752,8.9262,8.8083,8.8257,8.8132,8.6691,8.6751,8.6531,8.5082,8.5256,8.5665,8.5489,8.5725,8.6087,8.6356,8.6907,8.6977,8.6014,8.6141,8.6135,13.9932,13.9056,13.7499,13.4441,13.0738,13.2501,13.2505,13.1229,12.9232,12.607,12.1847,11.682,11.4057,11.3123,11.4989,11.9081,12.4629,12.634,12.9951,13.4758,13.4288,13.343,13.2411,13.1441,12.8769,12.4643,12.2665,12.0037,11.6887,11.5244,11.4544,11.4879,11.708,11.6577,11.3735,12.384,12.9388,12.965,13.2022,12.8517,11.91,11.1572,10.6422,10.3681,9.9679,9.7453,9.7404,9.5546,9.4711,9.4921,9.1667,8.8082,8.4385,7.7121,0.0,0.0,0.0,0.0,0.0,0.0,0.0,0.0,0.0,7.8757,7.13,0.0,7.8777,0.0,8.2497,8.5108,8.6366,8.4511,0.0,0.0,8.619,8.615,9.3213,9.5772,9.8835,10.3819,10.9421,11.4436,11.8248,11.9195,11.9256,11.8453,11.6658,11.4597,11.2484,10.9012,10.5793,10.3415,10.0261,9.6873,9.3006,9.0085,8.777,8.6407,8.712,8.7436,8.5834,8.6532,8.661,8.4515,8.4674,8.5005,8.4824,8.4894,8.5101,8.5216,8.5916,8.6311,8.5718,8.6155,8.6429,13.3534,13.2255,12.493,12.1999,12.2208,12.3387,12.4366,12.4705,12.0126,11.9327,12.0651,11.2139,10.9489,11.1573,11.0373,0.0,11.6733,12.0523,12.5639,13.1719,13.1485,13.2151,13.3594,13.1107,12.7728,12.3475,12.0389,11.7071,11.3441,11.0615,10.7944,10.5448,10.1892,10.2411,10.723,11.759,12.4661,12.8101,13.1559,12.9998,12.3194,11.3231,10.576,10.1125,9.8895,9.6899,9.512,9.5183,9.4672,9.3162,9.0547,8.6125,7.9684,0.0,0.0,0.0,0.0,0.0,0.0,0.0,0.0,0.0,0.0,0.0,0.0,0.0,0.0,0.0,8.1158,0.0,8.4903,8.617,0.0,0.0,0.0,8.0734,8.4612,8.803,9.2076,9.7177,0.0,0.0,11.6453,11.9771,12.165,12.1245,11.7365,11.3908,11.2255,10.8028,10.4186,10.2305,9.7767,9.3744,9.1255,8.8002,8.5724,8.5191,8.4776,8.4877,8.5333,8.544,8.5152,8.4589,8.3733,8.329,8.411,8.3897,8.3897,8.2602,8.3413,8.4226,8.3856,8.5136,8.607,12.255,11.5551,11.2895,11.294,11.4578,11.459,11.7178,12.1105,11.5785,11.2172,10.9515,10.3882,9.8989,9.5038,9.5886,0.0,0.0,0.0,11.7192,12.4331,12.4352,12.6072,12.8983,12.6513,12.3875,12.1064,11.6937,11.2518,10.7805,10.4531,9.8247,8.926,0.0,0.0,9.8085,11.2044,12.195,12.7458,13.2005,13.1431,12.5597,11.7273,10.8991,10.1005,9.7721,9.51,9.2858,9.1515,9.0198,8.8743,8.5766,8.1539,0.0,0.0,0.0,0.0,0.0,0.0,0.0,0.0,0.0,0.0,0.0,7.1621,6.7767,0.0,0.0,0.0,7.6218,7.8946,7.9933,7.9942,0.0,0.0,0.0,0.0,0.0,0.0,0.0,8.9127,9.8173,10.6425,11.274,11.6548,11.8896,11.9504,11.7237,11.4591,11.198,0.0,10.6021,10.3236,9.8621,9.4005,9.011,8.5719,8.2926,8.3232,8.398,8.4646,8.4374,8.434,8.421,8.3663,8.2665,8.2071,8.2452,7.9605,7.7428,7.7978,7.9367,8.0553,8.0766,8.2285,8.3454,10.9379,0.0,0.0,0.0,0.0,10.5487,10.7948,11.1531,10.7332,10.3017,9.8503,9.4443,0.0,0.0,0.0,0.0,0.0,0.0,10.9144,11.5911,11.7955,12.036,12.3156,12.0135,11.7826,11.6153,11.207,10.7092,10.1397,9.5986,8.7827,7.7409,0.0,0.0,0.0,0.0,11.8694,12.5893,13.2437,13.3037,12.7689,12.0698,11.264,10.344,9.7198,9.282,9.0447,8.7964,8.5615,8.327,8.0717,0.0,0.0,0.0,0.0,0.0,0.0,0.0,0.0,0.0,0.0,0.0,0.0,0.0,0.0,0.0,0.0,0.0,0.0,0.0,7.8206,7.7122,7.5872,0.0,0.0,0.0,0.0,0.0,0.0,0.0,0.0,0.0,10.6002,11.1394,11.5862,0.0,0.0,11.5079,11.2173,10.8969,10.5892,10.2977,9.7898,0.0,8.8934,8.4153,8.0743,8.0311,8.2426,8.3599,8.2064,8.2374,8.2426,8.0879,7.9993,7.9313,7.868,7.4691,7.2137,7.3483,7.4733,7.5845,7.6742,7.8198,7.9449,0.0,0.0,0.0,0.0,0.0,0.0,0.0,0.0,9.2445,9.128,0.0,8.4163,0.0,0.0,0.0,0.0,8.9682,9.6684,0.0,0.0,11.2918,11.6138,11.613,11.221,10.9471,10.7923,10.5244,10.0608,9.404,8.4336,0.0,0.0,0.0,0.0,0.0,0.0,11.4386,12.2883,13.2533,13.5014,12.9774,12.299,11.6068,10.9107,9.764,9.0266,8.765,8.5123,8.162,7.6992,7.6035,0.0,0.0,0.0,0.0,0.0,0.0,0.0,0.0,0.0,0.0,0.0,0.0,0.0,0.0,0.0,0.0,0.0,0.0,0.0,0.0,8.0595,0.0,0.0,0.0,0.0,0.0,0.0,0.0,0.0,0.0,9.4449,9.5378,10.4539,11.3225,11.8656,0.0,0.0,0.0,0.0,10.254,10.0589,9.4368,8.9296,8.7515,8.3584,7.9836,7.6795,0.0,0.0,7.8349,7.9001,7.8947,7.6076,7.5231,7.4178,7.2763,6.9349,6.7817,6.9795,6.9753,7.0201,7.1614,7.3027,7.4216,0.0,0.0,0.0,0.0,0.0,0.0,0.0,0.0,0.0,8.4809,0.0,7.898,0.0,0.0,0.0,0.0,0.0,0.0,0.0,0.0,10.0156,10.3303,10.4198,10.4175,10.217,0.0,9.5456,8.9783,0.0,0.0,0.0,0.0,0.0,0.0,0.0,0.0,11.4837,12.3198,13.2718,13.574,13.1654,12.3751,11.6849,11.1122,10.1588,9.2156,8.3055,7.8755,7.5573,0.0,0.0,0.0,0.0,0.0,0.0,0.0,0.0,0.0,0.0,0.0,0.0,0.0,0.0,0.0,0.0,0.0,0.0,0.0,0.0,0.0,0.0,0.0,7.7098,0.0,0.0,0.0,0.0,0.0,0.0,0.0,0.0,0.0,9.0842,9.9435,10.7226,11.2403,11.3395,11.3093,11.1534,0.0,0.0,0.0,0.0,0.0,0.0,0.0,7.8391,7.6973,7.5295,7.4115,7.4147,7.5646,7.6305,7.4852,0.0,0.0,6.2833,5.8955,5.7696,6.0223,6.1218,6.2469,6.5005,6.5866,6.6278,0.0,0.0,0.0,0.0,0.0,0.0,0.0,0.0,0.0,7.8203,7.4996,0.0,0.0,0.0,0.0,0.0,0.0,0.0,0.0,0.0,0.0,0.0,9.2643,9.346,0.0,0.0,0.0,0.0,0.0,0.0,0.0,0.0,0.0,0.0,0.0,0.0,11.4925,12.2736,13.3698,13.7713,13.4361,12.6444,11.9312,11.311,10.4765,9.4444,8.198,0.0,0.0,0.0,0.0,0.0,0.0,0.0,0.0,0.0,0.0,0.0,0.0,0.0,0.0,0.0,0.0,0.0,0.0,0.0,0.0,0.0,0.0,0.0,0.0,0.0,7.6248,0.0,0.0,0.0,0.0,0.0,0.0,0.0,0.0,0.0,0.0,0.0,10.1711,10.7502,11.0095,11.1081,11.0229,10.7657,10.4755,0.0,0.0,0.0,0.0,0.0,0.0,0.0,0.0,0.0,0.0,0.0,0.0,0.0,0.0,6.5944,5.8091,5.3968,5.2206,5.3956,0.0,0.0,0.0,0.0,0.0,0.0,0.0,0.0,0.0,0.0,0.0,0.0,0.0,0.0,0.0,6.7846,0.0,0.0,6.8753,0.0,0.0,0.0,0.0,0.0,0.0,0.0,0.0,0.0,0.0,0.0,0.0,0.0,0.0,0.0,0.0,0.0,0.0,0.0,0.0,0.0,0.0,11.4492,12.12,13.5356,14.1054,13.756,13.1131,12.3522,11.5061,10.6625,9.6509,8.453,0.0,0.0,0.0,0.0,0.0,0.0,0.0,0.0,0.0,0.0,0.0,0.0,0.0,0.0,0.0,0.0,0.0,0.0,0.0,0.0,0.0,0.0,0.0,0.0,0.0,0.0,7.2958,7.0979,6.8849,0.0,0.0,0.0,0.0,0.0,0.0,0.0,0.0,0.0,10.4334,10.7573,10.9173,10.9226,10.6573,10.3753,10.1467,9.7064,9.3178,9.0627,8.748,8.1891,0.0,0.0,0.0,0.0,0.0,0.0,0.0,0.0,0.0,0.0,0.0,0.0,0.0,0.0,0.0,0.0,0.0,0.0,0.0,0.0,0.0,0.0,0.0,0.0,0.0,0.0,0.0,0.0,0.0,0.0,0.0,0.0,0.0,0.0,0.0,0.0,0.0,0.0,0.0,0.0,0.0,0.0,0.0,0.0,0.0,0.0,0.0,0.0,0.0,0.0,0.0,0.0,0.0,0.0,11.4621,12.0985,13.5401,14.1118,13.7667,13.1131,12.4164,11.6759,10.6227,9.5728,0.0,0.0,0.0,0.0,0.0,0.0,0.0,0.0,0.0,0.0,0.0,0.0,0.0,0.0,0.0,0.0,0.0,0.0,0.0,0.0,0.0,0.0,0.0,0.0,0.0,0.0,0.0,0.0,7.4027,7.3471,7.0223,0.0,0.0,0.0,0.0,0.0,0.0,0.0,0.0,0.0,0.0,10.5627,10.5238,10.4162,10.2769,10.1222,9.8533,9.6726,9.6628,9.0235,8.2751,7.5401,0.0,0.0,0.0,0.0,0.0,0.0,0.0,0.0,0.0,0.0,0.0,0.0,0.0,0.0,0.0,0.0,0.0,0.0,0.0,0.0,0.0,0.0,0.0,0.0,0.0,0.0,0.0,0.0,0.0,0.0,0.0,0.0,0.0,0.0,0.0,0.0,0.0,0.0,0.0,0.0,0.0,0.0,0.0,0.0,0.0,0.0,0.0,0.0,0.0,0.0,0.0,0.0,0.0,11.4685,12.095,13.6139,14.2113,13.8361,13.2181,12.5524,11.851,10.6979,9.6106,0.0,0.0,0.0,0.0,0.0,0.0,0.0,0.0,0.0,0.0,0.0,0.0,0.0,0.0,0.0,0.0,0.0,0.0,0.0,0.0,0.0,0.0,0.0,0.0,0.0,0.0,0.0,0.0,7.2983,7.3677,7.171,0.0,0.0,0.0,0.0,0.0,0.0,0.0,0.0,0.0,0.0,10.2683,10.2537,10.2603,0.0,0.0,10.0139,9.8821,9.8327,9.3808,8.6853,7.6533,7.0773,0.0,0.0,0.0,0.0,0.0,0.0,0.0,0.0,0.0,0.0,0.0,0.0,0.0,0.0,0.0,0.0,0.0,0.0,0.0,0.0,0.0,0.0,0.0,0.0,0.0,0.0,0.0,0.0,0.0,0.0,0.0,0.0,0.0,0.0,0.0,0.0,0.0,0.0,0.0,0.0,0.0,0.0,0.0,0.0,0.0,0.0,0.0,0.0,0.0,0.0,0.0,0.0,0.0,12.1033,13.6915,14.3423,13.9713,13.3813,12.7288,12.0176,10.833,9.7112,0.0,0.0,0.0,0.0,0.0,0.0,0.0,0.0,0.0,0.0,0.0,0.0,0.0,0.0,0.0,0.0,0.0,0.0,0.0,0.0,0.0,0.0,0.0,0.0,0.0,0.0,0.0,0.0,0.0,0.0,0.0,0.0,0.0,0.0,0.0,0.0,0.0,0.0,0.0,0.0,0.0,10.0347,10.08,10.1586,10.2185,0.0,10.1227,9.9278,9.6759,9.7318,9.2469,7.6032,0.0,0.0,0.0,0.0,0.0,0.0,0.0,0.0,0.0,0.0,0.0,0.0,0.0,0.0,0.0,0.0,0.0,0.0,0.0,0.0,0.0,0.0,0.0,0.0,0.0,0.0,0.0,0.0,0.0,0.0,0.0,0.0,0.0,0.0,0.0,0.0,0.0,0.0,0.0,0.0,0.0,0.0,0.0,0.0,0.0,0.0,0.0,0.0,0.0,0.0,0.0,0.0,0.0,0.0,11.9076,13.4173,14.1158,13.9405,13.3735,12.7662,12.1425,10.7409,0.0,0.0,0.0,0.0,0.0,0.0,0.0,0.0,0.0,0.0,0.0,0.0,0.0,0.0,0.0,0.0,0.0,0.0,0.0,0.0,0.0,0.0,0.0,0.0,0.0,0.0,0.0,6.9017,0.0,0.0,0.0,0.0,0.0,0.0,0.0,0.0,0.0,0.0,0.0,0.0,0.0,0.0,9.8755,9.8775,9.8435,9.8766,0.0,0.0,9.6828,9.7982,9.4406,8.8337,0.0,0.0,0.0,0.0,0.0,0.0,0.0,0.0,0.0,0.0,0.0,0.0,0.0,0.0,0.0,0.0,0.0,0.0,0.0,0.0,0.0,0.0,0.0,0.0,0.0,0.0,0.0,0.0,0.0,0.0,0.0,0.0,0.0,0.0,0.0,0.0,0.0,0.0,0.0,0.0,0.0,0.0,0.0,0.0,0.0,0.0,0.0,0.0,0.0,0.0,0.0,0.0,0.0,0.0,10.8759,11.8624,13.1107,13.8214,13.9323,13.4415,12.8624,12.2182,10.9835,9.8807,0.0,0.0,0.0,0.0,0.0,0.0,0.0,0.0,0.0,0.0,0.0,0.0,0.0,0.0,0.0,0.0,0.0,0.0,0.0,0.0,0.0,0.0,0.0,0.0,0.0,0.0,0.0,0.0,0.0,0.0,0.0,0.0,0.0,0.0,0.0,0.0,0.0,0.0,0.0,0.0,0.0,0.0,9.7559,9.6614,0.0,0.0,0.0,9.655,9.837,0.0,0.0,0.0,0.0,0.0,0.0,0.0,0.0,0.0,0.0,0.0,0.0,0.0,0.0,0.0,0.0,0.0,0.0,0.0,0.0,0.0,0.0,0.0,0.0,0.0,0.0,0.0,0.0,0.0,0.0,0.0,0.0,0.0,0.0,0.0,0.0,0.0,0.0,0.0,0.0,0.0,0.0,0.0,0.0,0.0,0.0,0.0,0.0,0.0,0.0,0.0,0.0,0.0,0.0,0.0,0.0,0.0,11.7825,12.8373,13.5709,13.9148,13.5354,12.9771,12.2652,11.3313,10.3266,0.0,0.0,0.0,0.0,0.0,0.0,0.0,0.0,0.0,0.0,0.0,0.0,0.0,0.0,0.0,0.0,0.0,0.0,0.0,0.0,0.0,0.0,0.0,0.0,0.0,0.0,0.0,0.0,0.0,0.0,0.0,0.0,0.0,0.0,0.0,0.0,0.0,0.0,0.0,0.0,0.0,9.7754,9.6946,9.5402,9.4843,0.0,0.0,9.6515,9.7581,9.5303,0.0,0.0,0.0,0.0,0.0,0.0,0.0,0.0,0.0,0.0,0.0,0.0,0.0,0.0,0.0,0.0,0.0,0.0,0.0,0.0,0.0,0.0,0.0,0.0,0.0,0.0,0.0,0.0,0.0,0.0,0.0,0.0,0.0,0.0,0.0,0.0,0.0,0.0,0.0,0.0,0.0,0.0,0.0,0.0,0.0,0.0,0.0,0.0,0.0,0.0,0.0,0.0,0.0,0.0,0.0,0.0,11.3392,12.7951,13.6392,13.7856,13.4835,13.0275,12.4191,11.2655,10.2339,0.0,0.0,0.0,0.0,0.0,0.0,0.0,0.0,0.0,0.0,0.0,0.0,0.0,0.0,0.0,0.0,0.0,0.0,0.0,0.0,0.0,0.0,0.0,0.0,0.0,0.0,0.0,0.0,0.0,0.0,0.0,0.0,0.0,0.0,0.0,0.0,0.0,0.0,0.0,0.0,0.0,9.5441,9.5784,9.3159,0.0,0.0,0.0,0.0,9.2867,8.957,0.0,0.0,0.0,0.0,0.0,0.0,0.0,0.0,0.0,0.0,0.0,0.0,0.0,0.0,0.0,0.0,0.0,0.0,0.0,0.0,0.0,0.0,0.0,0.0,0.0,0.0,0.0,0.0,0.0,0.0,0.0,0.0,0.0,0.0,0.0,0.0,0.0,0.0,0.0,0.0,0.0,0.0,0.0,0.0,0.0,0.0,0.0,0.0,0.0,0.0,0.0,0.0,0.0,0.0,0.0,0.0,11.7474,12.6057,13.2812,13.7625,13.6206,13.2313,12.5867,11.5853,10.6048,0.0,0.0,0.0,0.0,0.0,0.0,0.0,0.0,0.0,0.0,0.0,0.0,0.0,0.0,0.0,0.0,0.0,0.0,0.0,0.0,0.0,0.0,0.0,0.0,0.0,0.0,0.0,0.0,0.0,0.0,0.0,0.0,0.0,0.0,0.0,0.0,0.0,0.0,0.0,0.0,9.1844,9.3139,9.5497,0.0,0.0,0.0,0.0,0.0,0.0,8.8083,8.4007,0.0,0.0,0.0,0.0,0.0,0.0,0.0,0.0,0.0,0.0,0.0,0.0,0.0,0.0,0.0,0.0,0.0,0.0,0.0,0.0,0.0,0.0,0.0,0.0,0.0,0.0,0.0,0.0,0.0,0.0,0.0,0.0,0.0,0.0,0.0,0.0,0.0,0.0,0.0,0.0,0.0,0.0,0.0,0.0,0.0,0.0,0.0,0.0,0.0,0.0,0.0,0.0,0.0,0.0,0.0,12.0966,12.3777,12.9145,13.7249,13.7596,13.4324,12.7342,11.9382,11.0295,9.997,0.0,0.0,0.0,0.0,0.0,0.0,0.0,0.0,0.0,0.0,0.0,0.0,0.0,0.0,0.0,0.0,0.0,0.0,0.0,0.0,0.0,0.0,0.0,0.0,0.0,0.0,0.0,0.0,0.0,0.0,0.0,0.0,0.0,0.0,0.0,0.0,0.0,0.0,0.0,8.9911,9.1416,0.0,0.0,0.0,0.0,0.0,0.0,0.0,0.0,8.3775,0.0,0.0,0.0,0.0,0.0,0.0,0.0,0.0,0.0,0.0,0.0,0.0,0.0,0.0,0.0,0.0,0.0,0.0,0.0,0.0,0.0,0.0,0.0,0.0,0.0,0.0,0.0,0.0,0.0,0.0,0.0,0.0,0.0,0.0,0.0,0.0,0.0,0.0,0.0,0.0,0.0,0.0,0.0,0.0,0.0,0.0,0.0,0.0,0.0,0.0,0.0,0.0,0.0,0.0,0.0,0.0,12.1837,13.0627,13.4359,13.6722,13.464,12.7789,11.8886,10.9553,9.9952,0.0,0.0,0.0,0.0,0.0,0.0,0.0,0.0,0.0,0.0,0.0,0.0,0.0,0.0,0.0,0.0,0.0,0.0,0.0,0.0,0.0,0.0,0.0,0.0,0.0,0.0,0.0,0.0,0.0,0.0,0.0,0.0,0.0,0.0,0.0,0.0,0.0,0.0,8.2324,8.724,0.0,0.0,0.0,0.0,0.0,0.0,0.0,0.0,8.6023,0.0,0.0,0.0,0.0,0.0,0.0,0.0,0.0,0.0,0.0,0.0,0.0,0.0,0.0,0.0,0.0,0.0,0.0,0.0,0.0,0.0,0.0,0.0,0.0,0.0,0.0,0.0,0.0,0.0,0.0,0.0,0.0,0.0,0.0,0.0,0.0,0.0,0.0,0.0,0.0,0.0,0.0,0.0,0.0,0.0,0.0,0.0,0.0,0.0,0.0,0.0,0.0,0.0,0.0,0.0,0.0,0.0,0.0,12.7614,13.3774,13.6549,13.5094,12.9064,11.7939,10.7554,0.0,0.0,0.0,0.0,0.0,0.0,0.0,0.0,0.0,0.0,0.0,0.0,0.0,0.0,0.0,0.0,0.0,0.0,0.0,0.0,0.0,0.0,0.0,0.0,0.0,0.0,0.0,0.0,0.0,0.0,0.0,0.0,0.0,0.0,0.0,0.0,0.0,0.0,0.0,0.0,0.0,0.0,0.0,0.0,0.0,0.0,0.0,0.0,0.0,0.0,0.0,0.0,0.0,0.0,0.0,0.0,0.0,0.0,0.0,0.0,0.0,0.0,0.0,0.0,0.0,0.0,0.0,0.0,0.0,0.0,0.0,0.0,0.0,0.0,0.0,0.0,0.0,0.0,0.0,0.0,0.0,0.0,0.0,0.0,0.0,0.0,0.0,0.0,0.0,0.0,0.0,0.0,0.0,0.0,0.0,0.0,0.0,0.0,0.0,0.0,0.0,0.0,0.0,0.0,0.0,0.0,0.0,0.0,12.3184,13.238,13.5368,13.4519,12.9565,11.734,10.6011,0.0,0.0,0.0,0.0,0.0,0.0,0.0,0.0,0.0,0.0,0.0,0.0,0.0,0.0,0.0,0.0,0.0,0.0,0.0,0.0,0.0,0.0,0.0,0.0,0.0,0.0,0.0,0.0,0.0,0.0,0.0,0.0,0.0,0.0,0.0,0.0,0.0,0.0,0.0,0.0,0.0,0.0,0.0,0.0,0.0,0.0,0.0,0.0,8.5219,0.0,0.0,0.0,0.0,0.0,0.0,0.0,0.0,0.0,0.0,0.0,0.0,0.0,0.0,0.0,0.0,0.0,0.0,0.0,0.0,0.0,0.0,0.0,0.0,0.0,0.0,0.0,0.0,0.0,0.0,0.0,0.0,0.0,0.0,0.0,0.0,0.0,0.0,0.0,0.0,0.0,0.0,0.0,0.0,0.0,0.0,0.0,0.0,0.0,0.0,0.0,0.0,0.0,0.0,0.0,0.0,0.0,0.0,0.0,11.845,12.7642,13.1764,13.1421,12.6413,11.7944,10.6024,0.0,0.0,0.0,0.0,0.0,0.0,0.0,0.0,0.0,0.0,0.0,0.0,0.0,0.0,0.0,0.0,0.0,0.0,0.0,0.0,0.0,0.0,0.0,0.0,0.0,0.0,0.0,0.0,0.0,0.0,0.0,0.0,0.0,0.0,0.0,0.0,0.0,0.0,0.0,0.0,0.0,0.0,0.0,0.0,0.0,0.0,0.0,0.0,0.0,0.0,0.0,0.0,0.0,0.0,0.0,0.0,0.0,0.0,0.0,0.0,0.0,0.0,0.0,0.0,0.0,0.0,0.0,0.0,0.0,0.0,0.0,0.0,0.0,0.0,0.0,0.0,0.0,0.0,0.0,0.0,0.0,0.0,0.0,0.0,0.0,0.0,0.0,0.0,0.0,0.0,0.0,0.0,0.0,0.0,0.0,0.0,0.0,0.0,0.0,0.0,0.0,0.0,0.0,0.0,0.0,0.0,0.0,0.0,11.2635,12.2873,12.634,12.5745,12.1017,10.9083,9.8865,0.0,0.0,0.0,0.0,0.0,0.0,0.0,0.0,0.0,0.0,0.0,0.0,0.0,0.0,0.0,0.0,0.0,0.0,0.0,0.0,0.0,0.0,0.0,0.0,0.0,0.0,0.0,0.0,0.0,0.0,0.0,0.0,0.0,0.0,0.0,0.0,0.0,0.0,0.0,0.0,0.0,0.0,0.0,0.0,0.0,0.0,0.0,0.0,0.0,0.0,0.0,0.0,0.0,0.0,0.0,0.0,0.0,0.0,0.0,0.0,0.0,0.0,0.0,0.0,0.0,0.0,0.0,0.0,0.0,0.0,0.0,0.0,0.0,0.0,0.0,0.0,0.0,0.0,0.0,0.0,0.0,0.0,0.0,0.0,0.0,0.0,0.0,0.0,0.0,0.0,0.0,0.0,0.0,0.0,0.0,0.0,0.0,0.0,0.0,0.0,0.0,0.0,0.0,0.0,0.0,0.0,0.0,0.0,0.0,11.7308,11.9666,11.8458,11.3501,10.1093,9.2214,0.0,0.0,0.0,0.0,0.0,0.0,0.0,0.0,0.0,0.0,0.0,0.0,0.0,0.0,0.0,0.0,0.0,0.0,0.0,0.0,0.0,0.0,0.0,0.0,0.0,0.0,0.0,0.0,0.0,0.0,0.0,0.0,0.0,0.0,0.0,0.0,0.0,0.0,0.0,0.0,0.0,0.0,0.0,0.0,0.0,0.0,0.0,0.0,0.0,0.0,0.0,0.0,0.0,0.0,0.0,0.0,0.0,0.0,0.0,0.0,0.0,0.0,0.0,0.0,0.0,0.0,0.0,0.0,0.0,0.0,0.0,0.0,0.0,0.0,0.0,0.0,0.0,0.0,0.0,0.0,0.0,0.0,0.0,0.0,0.0,0.0,0.0,0.0,0.0,0.0,0.0,0.0,0.0,0.0,0.0,0.0,0.0,0.0,0.0,0.0,0.0,0.0,0.0,0.0,0.0,0.0,0.0,0.0,0.0,11.1374,11.1511,10.9116,10.4272,9.7118,8.8144,0.0,0.0,0.0,0.0,0.0,0.0,0.0,0.0,0.0,0.0,0.0,0.0,0.0,0.0,0.0,0.0,0.0,0.0,0.0,0.0,0.0,0.0,0.0,0.0,0.0,0.0,0.0,0.0,0.0,0.0,0.0,0.0,0.0,0.0,0.0,0.0,0.0,0.0,0.0,0.0,0.0,0.0,0.0,0.0,0.0,0.0,0.0,0.0,0.0,0.0,0.0,0.0,0.0,0.0,0.0,0.0,0.0,0.0,0.0,0.0,0.0,0.0,0.0,0.0,0.0,0.0,0.0,0.0,0.0,0.0,0.0,0.0,0.0,0.0,0.0,0.0,0.0,0.0,0.0,0.0,0.0,0.0,0.0,0.0,0.0,0.0,0.0,0.0,0.0,0.0,0.0,0.0,0.0,0.0,0.0,0.0,0.0,0.0,0.0,0.0,0.0,0.0,0.0,0.0,0.0,0.0,0.0,0.0,0.0,9.8859,9.9852,10.1777,10.4982,9.1729,8.4256,8.368,0.0,0.0,0.0,0.0,0.0,0.0,0.0,0.0,0.0,0.0,0.0,0.0,0.0,0.0,0.0,0.0,0.0,0.0,0.0,0.0,0.0,0.0,0.0,0.0,0.0,0.0,0.0,0.0,0.0,0.0,0.0,0.0,0.0,0.0,0.0,0.0,0.0,0.0,0.0,0.0,0.0,0.0,0.0,0.0,0.0,0.0,0.0,0.0,0.0,0.0,0.0,0.0,0.0,0.0,0.0,0.0,0.0,0.0,0.0,0.0,0.0,0.0,0.0,0.0,0.0,0.0,0.0,0.0,0.0,0.0,0.0,0.0,0.0,0.0,0.0,0.0,0.0,0.0,0.0,0.0,0.0,0.0,0.0,0.0,0.0,0.0,0.0,0.0,0.0,0.0,0.0,0.0,0.0,0.0,0.0,0.0,0.0,0.0,0.0,0.0,0.0,0.0,0.0,0.0,0.0,0.0,0.0,0.0,9.3195,9.5361,9.84,10.1878,8.9909,8.3266,0.0,0.0,0.0,0.0,0.0,0.0,0.0,0.0,0.0,0.0,0.0,0.0,0.0,0.0,0.0,0.0,0.0,0.0,0.0,0.0,0.0,0.0,0.0,0.0,0.0,0.0,0.0,0.0,0.0,0.0,0.0,0.0,0.0,0.0,0.0,0.0,0.0,0.0,0.0,0.0,0.0,0.0,0.0,0.0,0.0,0.0,0.0,0.0,0.0,0.0,0.0,0.0,0.0,0.0,0.0,0.0,0.0,0.0,0.0,0.0,0.0,0.0,0.0,0.0,0.0,0.0,0.0,0.0,0.0,0.0,0.0,0.0,0.0,0.0,0.0,0.0,0.0,0.0,0.0,0.0,0.0,0.0,0.0,0.0,0.0,0.0,0.0,0.0,0.0,0.0,0.0,0.0,0.0,0.0,0.0,0.0,0.0,0.0,0.0,0.0,0.0,0.0,0.0,0.0,0.0,0.0,0.0,0.0,8.8227,9.6117,9.9501,9.9048,9.469,9.2363,8.5438,0.0,0.0,0.0,0.0,0.0,0.0,0.0,0.0,0.0,0.0,0.0,0.0,0.0,0.0,0.0,0.0,0.0,0.0,0.0,0.0,0.0,0.0,0.0,0.0,0.0,0.0,0.0,0.0,0.0,0.0,0.0,0.0,0.0,0.0,0.0,0.0,0.0,0.0,0.0,0.0,0.0,0.0,0.0,0.0,0.0,0.0,0.0,0.0,0.0,0.0,0.0,0.0,0.0,0.0,0.0,0.0,0.0,0.0,0.0,0.0,0.0,0.0,0.0,0.0,0.0,0.0,0.0,0.0,0.0,0.0,0.0,0.0,0.0,0.0,0.0,0.0,0.0,0.0,0.0,0.0,0.0,0.0,0.0,0.0,0.0,0.0,0.0,0.0,0.0,0.0,0.0,0.0,0.0,0.0,0.0,0.0,0.0,0.0,0.0,0.0,0.0,0.0,0.0,0.0,0.0,0.0,0.0,0.0,0.0,8.9937,0.0,9.6985,0.0,9.0712,8.4179,0.0,0.0,0.0,0.0,0.0,0.0,0.0,0.0,0.0,0.0,0.0,0.0,0.0,0.0,0.0,0.0,0.0,0.0,0.0,0.0,0.0,0.0,0.0,0.0,0.0,0.0,0.0,0.0,0.0,0.0,0.0,0.0,0.0,0.0,0.0,0.0,0.0,0.0,0.0,0.0,0.0,0.0,0.0,0.0,0.0,0.0,0.0,0.0,0.0,0.0,0.0,0.0,0.0,0.0,0.0,0.0,0.0,0.0,0.0,0.0,0.0,0.0,0.0,0.0,0.0,0.0,0.0,0.0,0.0,0.0,0.0,0.0,0.0,0.0,0.0,0.0,0.0,0.0,0.0,0.0,0.0,0.0,0.0,0.0,0.0,0.0,0.0,0.0,0.0,0.0,0.0,0.0,0.0,0.0,0.0,0.0,0.0,0.0,0.0,0.0,0.0,0.0,0.0,0.0,0.0,0.0,0.0,0.0,0.0,9.1058,9.2187,9.5534,10.0815,9.2316,8.6617,0.0,0.0,0.0,0.0,0.0,0.0,0.0,0.0,0.0,0.0,0.0,0.0,0.0,0.0,0.0,0.0,0.0,0.0,0.0,0.0,0.0,0.0,0.0,0.0,0.0,0.0,0.0,0.0,0.0,0.0,0.0,0.0,0.0,0.0,0.0,0.0,0.0,0.0,0.0,0.0,0.0,0.0,0.0,0.0,0.0,0.0,0.0,0.0,0.0,0.0,0.0,0.0,0.0,0.0,0.0,0.0,0.0,0.0,0.0,0.0,0.0,0.0,0.0,0.0,0.0,0.0,0.0,0.0,0.0,0.0,0.0,0.0,0.0,0.0,0.0,0.0,0.0,0.0,0.0,0.0,0.0,0.0,0.0,0.0,0.0,0.0,0.0,0.0,0.0,0.0,0.0,0.0,0.0,0.0,0.0,0.0,0.0,0.0,0.0,0.0,0.0,0.0,0.0,0.0,0.0,0.0,0.0,0.0,0.0,0.0,9.5397,9.4872,9.6661,9.6364,9.1785,0.0,0.0,0.0,0.0,0.0,0.0,0.0,0.0,0.0,0.0,0.0,0.0,0.0,0.0,0.0,0.0,0.0,0.0,0.0,0.0,0.0,0.0,0.0,0.0,0.0,0.0,0.0,0.0,0.0,0.0,0.0,0.0,0.0,0.0,0.0,0.0,0.0,0.0,0.0,0.0,0.0,0.0,0.0,0.0,0.0,0.0,0.0,0.0,0.0,0.0,0.0,0.0,0.0,0.0,0.0,0.0,0.0,0.0,0.0,0.0,0.0,0.0,0.0,0.0,0.0,0.0,0.0,0.0,0.0,0.0,0.0,0.0,0.0,0.0,0.0,0.0,0.0,0.0,0.0,0.0,0.0,0.0,0.0,0.0,0.0,0.0,0.0,0.0,0.0,0.0,0.0,0.0,0.0,0.0,0.0,0.0,0.0,0.0,0.0,0.0,0.0,0.0,0.0,0.0,0.0,0.0,0.0,0.0,0.0,0.0,9.222,0.0,9.4675,9.0368,8.6112,8.2129,0.0,0.0,0.0,0.0,0.0,0.0,0.0,0.0,0.0,0.0,0.0,0.0,0.0,0.0,0.0,0.0,0.0,0.0,0.0,0.0,0.0,0.0,0.0,0.0,0.0,0.0,0.0,0.0,0.0,0.0,0.0,0.0,0.0,0.0,0.0,0.0,0.0,0.0,0.0,0.0,0.0,0.0,0.0,0.0,0.0,0.0,0.0,0.0,0.0,0.0,0.0,0.0,0.0,0.0,0.0,0.0,0.0,0.0,0.0,0.0,0.0,0.0,0.0,0.0,0.0,0.0,0.0,0.0,0.0,0.0,0.0,0.0,0.0,0.0,0.0,0.0,0.0,0.0,0.0,0.0,0.0,0.0,0.0,0.0,0.0,0.0,0.0,0.0,0.0,0.0,0.0,0.0,0.0,0.0,0.0,0.0,0.0,0.0,0.0,0.0,0.0,0.0,0.0,0.0,0.0,0.0,0.0,0.0,0.0,0.0,0.0,9.3303,8.9574,8.5865,0.0,0.0,0.0,0.0,0.0,0.0,0.0,0.0,0.0,0.0,0.0,0.0,0.0,0.0,0.0,0.0,0.0,0.0,0.0,0.0,0.0,0.0,0.0,0.0,0.0,0.0,0.0,0.0,0.0,0.0,0.0,0.0,0.0,0.0,0.0,0.0,0.0,0.0,0.0,0.0,0.0,0.0,0.0,0.0,0.0,0.0,0.0,0.0,0.0,0.0,0.0,0.0,0.0,0.0,0.0,0.0,0.0,0.0,0.0,0.0,0.0,0.0,0.0,0.0,0.0,0.0,0.0,0.0,0.0,0.0,0.0,0.0,0.0,0.0,0.0,0.0,0.0,0.0,0.0,0.0,0.0,0.0,0.0,0.0,0.0,0.0,0.0,0.0,0.0,0.0,0.0,0.0,0.0,0.0,0.0,0.0,0.0,0.0,0.0,0.0,0.0,0.0,0.0,0.0,0.0,0.0,0.0,0.0,0.0,0.0,0.0,8.9447,9.1205,9.1011,0.0,8.2159,0.0,0.0,0.0,0.0,0.0,0.0,0.0,0.0,0.0,0.0,0.0,0.0,0.0,0.0,0.0,0.0,0.0,0.0,0.0,0.0,0.0,0.0,0.0,0.0,0.0,0.0,0.0,0.0,0.0,0.0,0.0,0.0,0.0,0.0,0.0,0.0,0.0,0.0,0.0,0.0,0.0,0.0,0.0,0.0,0.0,0.0,0.0,0.0,0.0,0.0,0.0,0.0,0.0,0.0,0.0,0.0,0.0,0.0,0.0,0.0,0.0,0.0,0.0,0.0,0.0,0.0,0.0,0.0,0.0,0.0,0.0,0.0,0.0,0.0,0.0,0.0,0.0,0.0,0.0,0.0,0.0,0.0,0.0,0.0,0.0,0.0,0.0,0.0,0.0,0.0,0.0,0.0,0.0,0.0,0.0,0.0,0.0,0.0,0.0,0.0,0.0,0.0,0.0,0.0,0.0,0.0,0.0,0.0,0.0,0.0,0.0,0.0,8.501,8.2503,7.8552,0.0,0.0,0.0,0.0,0.0,0.0,0.0,0.0,0.0,0.0,0.0,0.0,0.0,0.0,0.0,0.0,0.0,0.0,0.0,0.0,0.0,0.0,0.0,0.0,0.0,0.0,0.0,0.0,0.0,0.0,0.0,0.0,0.0,0.0,0.0,0.0,0.0,0.0,0.0,0.0,0.0,0.0,0.0,0.0,0.0,0.0,0.0,0.0,0.0,0.0,0.0,0.0,0.0,0.0,0.0,0.0,0.0,0.0,0.0,0.0,0.0,0.0,0.0,0.0,0.0,0.0,0.0,0.0,0.0,0.0,0.0,0.0,0.0,0.0,0.0,0.0,0.0,0.0,0.0,0.0,0.0,0.0,0.0,0.0,0.0,0.0,0.0,0.0,0.0,0.0,0.0,0.0,0.0,0.0,0.0,0.0,0.0,0.0,0.0,0.0,0.0,0.0,0.0,0.0,0.0,0.0,0.0,0.0,0.0,0.0,8.4067,8.3388,8.1883,7.9586,7.6278,0.0,0.0,0.0,0.0,0.0,0.0,0.0,0.0,0.0,0.0,0.0,0.0,0.0,0.0,0.0,0.0,0.0,0.0,0.0,0.0,0.0,0.0,0.0,0.0,0.0,0.0,0.0,0.0,0.0,0.0,0.0,0.0,0.0,0.0,0.0,0.0,0.0,0.0,0.0,0.0,0.0,0.0,0.0,0.0,0.0,0.0,0.0,0.0,0.0,0.0,0.0,0.0,0.0,0.0,0.0,0.0,0.0,0.0,0.0,0.0,0.0,0.0,0.0,0.0,0.0,0.0,0.0,0.0,0.0,0.0,0.0,0.0,0.0,0.0,0.0,0.0,0.0,0.0,0.0,0.0,0.0,0.0,0.0,0.0,0.0,0.0,0.0,0.0,0.0,0.0,0.0,0.0,0.0,0.0,0.0,0.0,0.0,0.0,0.0,0.0,0.0,0.0,0.0,0.0,0.0,0.0,0.0,0.0,0.0,0.0,0.0,0.0,0.0,0.0,7.4961,0.0,0.0,0.0,0.0,0.0,0.0,0.0,0.0,0.0,0.0,0.0,0.0,0.0,0.0,0.0,0.0,0.0,0.0,0.0,0.0,0.0,0.0,0.0,0.0,0.0,0.0,0.0,0.0,0.0,0.0,0.0,0.0,0.0,0.0,0.0,0.0,0.0,0.0,0.0,0.0,0.0,0.0,0.0,0.0,0.0,0.0,0.0,0.0,0.0,0.0,0.0,0.0,0.0,0.0,0.0,0.0,0.0,0.0,0.0,0.0,0.0,0.0,0.0,0.0,0.0,0.0,0.0,0.0,0.0,0.0,0.0,0.0,0.0,0.0,0.0,0.0,0.0,0.0,0.0,0.0,0.0,0.0,0.0,0.0,0.0,0.0,0.0,0.0,0.0,0.0,0.0,0.0,0.0,0.0,0.0,0.0,0.0,0.0,0.0,0.0,0.0,0.0,0.0,0.0,0.0,0.0,0.0,0.0,0.0,0.0,0.0,0.0,0.0,0.0,0.0,0.0,0.0,0.0,0.0,0.0,0.0,0.0,0.0,0.0,0.0,0.0,0.0,0.0,0.0,0.0,0.0,0.0,0.0,0.0,0.0,0.0,0.0,0.0,0.0,0.0,0.0,0.0,0.0,0.0,0.0,0.0,0.0,0.0,0.0,0.0,0.0,0.0,0.0,0.0,0.0,0.0,0.0,0.0,0.0,0.0,0.0,0.0,0.0,0.0,0.0,0.0,0.0,0.0,0.0,0.0,0.0,0.0,0.0,0.0,0.0,0.0,0.0,0.0,0.0,0.0,0.0,0.0,0.0,0.0,0.0,0.0,0.0,0.0,0.0,0.0,0.0,0.0,0.0,0.0,0.0,0.0,0.0,0.0,0.0,0.0,0.0,0.0,0.0,0.0,0.0,0.0,0.0,0.0,0.0,0.0,0.0,0.0,0.0,0.0,0.0,0.0,0.0,0.0,0.0,0.0,0.0,0.0,0.0,0.0,0.0,0.0,0.0,0.0,0.0,0.0,0.0,0.0,0.0,0.0,0.0,0.0,0.0,0.0,0.0,0.0,0.0,0.0,0.0,0.0,0.0,0.0,0.0,0.0,0.0,0.0,0.0,0.0,0.0,0.0,0.0,0.0,0.0,0.0,0.0,0.0,0.0,0.0,0.0,0.0,0.0,0.0,0.0,0.0,0.0,0.0,0.0,0.0,0.0,0.0,0.0,0.0,0.0,0.0,0.0,0.0,0.0,0.0,0.0,0.0,0.0,0.0,0.0,0.0,0.0,0.0,0.0,0.0,0.0,0.0,0.0,0.0,0.0,0.0,0.0,0.0,0.0,0.0,0.0,0.0,0.0,0.0,0.0,0.0,0.0,0.0,0.0,0.0,0.0,0.0,0.0,0.0,0.0,0.0,0.0,0.0,0.0,0.0,0.0,0.0,0.0,0.0,0.0,0.0,0.0,0.0,0.0,0.0,0.0,0.0,0.0,0.0,0.0,0.0,0.0,0.0,0.0,0.0,0.0,0.0,0.0,0.0,0.0,0.0,0.0,0.0,0.0,0.0,0.0,0.0,0.0,0.0,0.0,0.0,0.0,0.0,0.0,0.0,0.0,0.0,0.0,0.0,0.0,0.0,0.0,0.0,0.0,0.0,0.0,0.0,0.0,0.0,0.0,0.0,0.0,0.0,0.0,0.0,0.0,0.0,0.0,0.0,0.0,0.0,0.0,0.0,0.0,0.0,0.0,0.0,0.0,0.0,0.0,0.0,0.0,0.0,0.0,0.0,0.0,0.0,0.0,0.0,0.0,0.0,0.0,0.0,0.0,0.0,0.0,0.0,0.0,0.0,0.0,0.0,0.0,0.0,0.0,0.0,0.0,0.0,0.0,0.0,0.0,0.0,0.0,0.0,0.0,0.0,0.0,0.0,0.0,0.0,0.0,0.0,0.0,0.0,0.0,0.0,0.0,0.0,0.0,0.0,0.0,0.0,0.0,0.0,0.0,0.0,0.0,0.0,0.0,0.0,0.0,0.0,0.0,0.0,0.0,0.0,0.0,0.0,0.0,0.0,0.0,0.0,0.0,0.0,0.0,0.0,0.0,0.0,0.0,0.0,0.0,0.0,0.0,0.0,0.0,0.0,0.0,0.0,0.0,0.0,0.0,0.0,0.0,0.0,0.0,0.0,0.0,0.0,0.0,0.0,0.0,0.0,0.0,0.0,0.0,0.0,0.0,0.0,0.0,0.0,0.0,0.0,0.0,0.0,0.0,0.0,0.0,0.0,0.0,0.0,0.0,0.0,0.0,0.0,0.0,0.0,0.0,0.0,0.0,0.0,0.0,0.0,0.0,0.0,0.0,0.0,0.0,0.0,0.0,0.0,0.0,0.0,0.0,0.0,0.0,0.0,0.0,0.0,0.0,0.0,0.0,0.0,0.0,0.0,0.0,0.0,0.0,0.0,0.0,0.0,0.0,0.0,0.0,0.0,0.0,0.0,0.0,0.0,0.0,0.0,0.0,0.0,0.0,0.0,0.0,0.0,0.0,0.0,0.0,0.0,0.0,0.0,0.0,0.0,0.0,0.0,0.0,0.0,0.0,0.0,0.0,0.0,0.0,0.0,0.0,0.0,0.0,0.0,0.0,0.0,0.0,0.0,0.0,0.0,0.0,0.0,0.0,0.0,0.0,0.0,0.0,0.0,0.0,0.0,0.0,0.0,0.0,0.0,0.0,0.0,0.0,0.0,0.0,0.0,0.0,0.0,0.0,0.0,0.0,0.0,0.0,0.0,0.0,0.0,0.0,0.0,0.0,0.0,0.0,0.0,0.0,0.0,0.0,0.0,0.0,0.0,0.0,0.0,0.0,0.0,0.0,0.0,0.0,0.0,0.0,0.0,0.0,0.0,0.0,0.0,0.0,0.0,0.0,0.0,0.0,0.0,0.0,0.0,0.0,0.0,0.0,0.0,0.0,0.0,0.0,0.0,0.0,0.0,0.0,0.0,0.0,0.0,0.0,0.0,0.0,0.0,0.0,0.0,0.0,0.0,0.0,0.0,0.0,0.0,0.0,0.0,0.0,0.0,0.0,0.0,0.0,0.0,0.0,0.0,0.0,0.0,0.0,0.0,0.0,0.0,0.0,0.0,0.0,0.0,0.0,0.0,0.0,0.0,0.0,0.0,0.0,0.0,0.0,0.0,0.0,0.0,0.0,0.0,0.0,0.0,0.0,0.0,0.0,0.0,0.0,0.0,0.0,0.0,0.0,0.0,0.0,0.0,0.0,0.0,0.0,0.0,0.0,0.0,0.0,0.0,0.0,0.0,0.0,0.0,0.0,0.0,0.0,0.0,0.0,0.0,0.0,0.0,0.0,0.0,0.0,0.0,0.0,0.0,0.0,0.0,0.0,0.0,0.0,0.0,0.0,0.0,0.0,0.0,0.0,0.0,0.0,0.0,0.0,0.0,0.0,0.0,0.0,0.0,0.0,0.0,0.0,0.0,0.0,0.0,0.0,0.0,0.0,0.0,0.0,0.0,0.0,0.0,0.0,0.0,0.0,0.0,0.0,0.0,0.0,0.0,0.0,0.0,0.0,0.0,0.0,0.0,0.0,0.0,0.0,0.0,0.0,0.0,0.0,0.0,0.0,0.0,0.0,0.0,0.0,0.0,0.0,0.0,0.0,0.0,0.0,0.0,0.0,0.0,0.0,0.0,0.0,0.0,0.0,0.0,0.0,0.0,0.0,0.0,0.0,0.0,0.0,0.0,0.0,0.0,0.0,0.0,0.0,0.0,0.0,0.0,0.0,0.0,0.0,0.0,0.0,0.0,0.0,0.0,0.0,0.0,0.0,0.0,0.0,0.0,0.0,0.0,0.0,0.0,0.0,0.0,0.0,0.0,0.0,0.0,0.0,0.0,0.0,0.0,0.0,0.0,0.0,0.0,0.0,0.0,0.0,0.0,0.0,0.0,0.0,0.0,0.0,0.0,0.0,0.0,0.0,0.0,0.0,0.0,0.0,0.0,0.0,0.0,0.0,0.0,0.0,0.0,0.0,0.0,0.0,0.0,0.0,0.0,0.0,0.0,0.0,0.0,0.0,0.0,0.0,0.0,0.0,0.0,0.0,0.0,0.0,0.0,0.0,0.0,0.0,0.0,0.0,0.0,0.0,0.0,0.0,0.0,0.0,0.0,0.0,0.0,0.0,0.0,0.0,0.0,0.0,0.0,0.0,0.0,0.0,0.0,0.0,0.0,0.0,0.0,0.0,0.0,0.0,0.0,0.0,0.0,0.0,0.0,0.0,0.0,0.0,0.0,0.0,0.0,0.0,0.0,0.0,0.0,0.0,0.0,0.0,0.0,0.0,0.0,0.0,0.0,0.0,0.0]}],[{"header":{"parameterUnit":"kt","parameterCategory":2,"dx":1,"dy":1,"la1":29.587661999999998,"la2":31.0,"lo1":-88.76705300000003,"lo2":-86.6583820000003,"nx":115,"ny":88,"refTime":"2022-10-08T12:00:00:Z","depth":0,"parameterNumber":2,"parameterNumberName":"V-component_of_WINDS"},"data":[7.933,7.7673,7.7927,7.6999,7.5421,7.5586,7.5106,7.4223,7.5192,7.5503,7.5661,7.7236,7.8481,7.8397,7.9573,8.106,8.2801,8.352,8.3808,8.3303,8.2331,8.1339,8.0284,7.9401,7.9059,7.9739,8.0762,8.1898,8.3229,8.3464,8.3515,8.3515,8.3515,8.3636,8.3677,8.3999,8.4322,8.5083,8.5885,8.6406,8.7123,8.7879,8.8474,9.0247,9.2395,9.4253,9.6018,9.7779,9.9854,10.332,10.8374,11.3755,11.7685,12.069,12.2952,12.5015,12.7515,12.9335,13.1437,13.3056,13.4178,13.5371,13.6146,13.5936,13.5579,13.5615,13.6064,13.6543,13.5306,13.4281,13.2819,13.0143,12.8267,12.649,12.49,12.4162,12.3933,12.448,12.5035,12.651,12.8431,12.9627,13.0173,13.0638,13.0897,13.055,13.0307,13.0353,13.0442,13.1384,13.2357,13.3742,13.519,13.733,13.8789,13.8252,13.9503,14.0519,14.1023,14.0433,13.9872,13.9444,13.8421,13.7063,13.6233,13.5185,13.4682,13.3955,13.3471,13.2831,13.2168,13.0979,12.957,12.7932,12.6536,8.0973,7.9227,7.7909,7.7298,7.7433,7.6392,7.5707,7.5444,7.5161,7.5361,7.6288,7.6558,7.8361,7.9606,8.0437,8.1883,8.2932,8.3267,8.2967,8.2196,8.0677,8.0039,7.9076,7.8007,7.8024,7.8517,7.9374,8.0886,8.2413,8.2588,8.2585,8.2585,8.2747,8.299,8.3556,8.3838,8.408,8.4686,8.5047,8.5608,8.6408,8.7164,8.8395,9.0168,9.2239,9.4063,9.5563,9.7362,9.9441,10.3026,10.7159,11.1711,11.525,11.8583,12.0846,12.3149,12.5625,12.8201,13.0733,13.2818,13.4228,13.549,13.6833,13.7068,13.649,13.6593,13.698,13.6543,13.498,13.3778,13.2584,13.09,12.938,12.772,12.6279,12.5073,12.515,12.5401,12.5895,12.6443,12.8385,13.0327,13.0941,13.1429,13.1347,13.093,13.077,13.0762,13.1035,13.1712,13.2419,13.3598,13.4749,13.5455,13.6515,13.762,13.9563,14.0431,14.0791,14.1051,14.067,13.889,13.7639,13.7143,13.6367,13.5075,13.4479,13.3579,13.3657,13.3288,13.1973,13.0213,12.8753,12.7265,12.6194,8.3098,8.3045,8.1391,8.0045,7.8933,7.7832,7.7018,7.6523,7.5807,7.6497,7.8024,7.7979,7.8924,8.0791,8.1358,8.2464,8.33,8.2857,8.2397,8.1602,8.0425,7.9361,7.8598,7.7895,7.7677,7.7885,7.87,7.9455,8.0822,8.1375,8.1696,8.1655,8.1655,8.1818,8.2061,8.2345,8.2831,8.4244,8.4244,8.5087,8.6328,8.7124,8.8197,8.9776,9.1774,9.348,9.5103,9.671,9.8907,10.2038,10.4382,10.8077,11.2428,11.573,11.8254,12.063,12.3114,12.5974,12.9094,13.1625,13.3618,13.5103,13.6522,13.7421,13.696,13.797,13.8394,13.7627,13.6096,13.4741,13.3604,13.1804,13.0218,12.8927,12.7571,12.6569,12.6544,12.6887,12.7408,12.804,12.947,13.1137,13.1258,13.1713,13.1453,13.0979,13.0573,13.0473,13.1066,13.1772,13.2389,13.324,13.3967,13.4664,13.5818,13.7489,13.9195,13.9796,14.0158,14.0372,14.0279,13.8321,13.6799,13.6207,13.5449,13.4599,13.3323,13.2138,13.1953,13.2105,13.0854,12.9391,12.778,12.6132,12.4851,8.4551,8.5956,8.4703,8.2679,8.0329,7.9471,7.8512,7.7485,7.688,7.7755,7.9203,7.9082,7.9524,8.0801,8.1431,8.1856,8.2612,8.1967,8.1954,8.0703,7.9705,7.8856,7.8559,7.7883,7.787,7.8119,7.8368,7.8795,8.0063,8.0768,8.1049,8.1049,8.08,8.1289,8.1736,8.1777,8.2629,8.4203,8.4244,8.4726,8.6128,8.7124,8.7762,8.9142,9.103,9.278,9.3765,9.5503,9.7887,10.0072,10.1184,10.4492,10.9276,11.2119,11.5011,11.79,12.0269,12.3818,12.7298,13.0509,13.3174,13.4988,13.658,13.7206,13.8012,13.9209,13.9485,13.8753,13.7724,13.6428,13.5013,13.2972,13.1151,12.9971,12.8789,12.8368,12.8003,12.8534,12.9163,13.0118,13.1158,13.1573,13.1515,13.1461,13.1289,13.1028,13.059,13.0711,13.1361,13.1743,13.2416,13.2882,13.3483,13.436,13.5723,13.7185,13.8144,13.8805,13.9255,13.9555,13.9768,13.8372,13.7023,13.596,13.4641,13.3782,13.2717,13.1266,13.0332,13.0068,12.9237,12.8192,12.6687,12.4439,12.3164,8.4472,8.6146,8.5783,8.4362,8.2073,8.1134,7.992,7.8508,7.8417,7.871,7.8952,7.8871,7.9431,8.0578,8.1209,8.129,8.0906,8.0946,8.0506,7.9028,7.8769,7.8719,7.8487,7.8001,7.8028,7.8034,7.8212,7.8782,7.9854,8.0744,8.1248,8.1009,8.0515,8.0637,8.1574,8.1736,8.275,8.4203,8.4525,8.4885,8.6208,8.7047,8.7605,8.8193,8.9877,9.164,9.2114,9.3705,9.5984,9.7925,9.969,10.1705,10.5148,10.8018,11.1198,11.4135,11.761,12.1338,12.5208,12.8907,13.2155,13.5045,13.7486,13.7946,13.8418,13.9367,14.0007,13.958,13.8877,13.7728,13.6048,13.4069,13.2314,13.1013,13.0026,12.9445,12.9221,12.9592,13.0135,13.0884,13.171,13.165,13.165,13.1709,13.1565,13.1271,13.1095,13.1302,13.1684,13.1889,13.2357,13.2675,13.3195,13.3896,13.5078,13.5789,13.6891,13.7723,13.8142,13.8443,13.8415,13.7829,13.718,13.5424,13.359,13.2865,13.2163,13.1137,13.013,12.9188,12.8,12.7003,12.5089,12.2709,12.1362,8.6504,8.7571,8.7563,8.6406,8.4436,8.2617,8.1553,8.0828,7.979,8.0083,8.0813,8.0331,8.0651,8.1258,8.1477,8.1067,7.9818,7.9844,7.9641,7.897,7.8822,7.8735,7.883,7.8718,7.8406,7.8093,7.824,7.8894,8.0506,8.1343,8.1533,8.1212,8.0846,8.08,8.1126,8.1818,8.2915,8.4203,8.5288,8.6008,8.6965,8.784,8.8196,8.8658,8.9589,9.0404,9.0816,9.2356,9.455,9.6656,9.7768,9.9765,10.2297,10.4017,10.6692,11.0827,11.4529,11.8652,12.2771,12.6514,13.0172,13.3319,13.5822,13.6946,13.7836,13.9106,13.9894,14.0256,13.9642,13.8791,13.6988,13.5195,13.3651,13.2086,13.1252,13.0449,13.0558,13.0695,13.1122,13.1655,13.1801,13.1801,13.1743,13.1772,13.1743,13.1478,13.142,13.139,13.1302,13.1596,13.1947,13.1973,13.2526,13.3314,13.3578,13.4168,13.5437,13.6471,13.668,13.668,13.6945,13.6332,13.5159,13.3834,13.2554,13.191,13.1191,13.0407,12.9062,12.799,12.673,12.4813,12.2527,12.0647,11.9932,8.7196,8.8182,8.7968,8.7298,8.6129,8.3753,8.2586,8.2281,8.1491,8.1385,8.2382,8.1736,8.1501,8.2017,8.198,8.0823,7.9906,7.9306,7.9397,7.9512,7.9654,7.9117,7.898,7.9127,7.8827,7.8337,7.8169,7.8802,8.0452,8.1939,8.1939,8.1777,8.1655,8.1493,8.1533,8.1655,8.3033,8.4324,8.5608,8.6486,8.7363,8.8236,8.8271,8.8533,8.9145,8.9529,8.9986,9.1331,9.3226,9.5311,9.6476,9.7812,10.0072,10.1147,10.2777,10.7087,11.1402,11.5627,11.9889,12.3738,12.7688,13.1504,13.2804,13.4296,13.6294,13.7982,13.9818,14.0117,13.9872,13.9894,13.875,13.7253,13.5762,13.435,13.3184,13.275,13.2961,13.2885,13.2419,13.2827,13.2588,13.2531,13.2211,13.224,13.2328,13.1743,13.1302,13.0833,13.0715,13.1067,13.1273,13.092,13.1445,13.2588,13.285,13.2466,13.3902,13.487,13.4604,13.4487,13.4872,13.4553,13.3233,13.2123,13.1243,13.0645,12.9945,12.8288,12.6462,12.5612,12.4515,12.2204,12.0216,11.911,11.8253,8.5768,8.7067,8.6379,8.6551,8.6755,8.467,8.3021,8.2348,8.2988,8.2958,8.2419,8.2378,8.2098,8.1371,8.1131,8.0308,7.9209,8.0108,7.9566,7.9257,8.017,7.9458,7.9053,7.883,7.8115,7.779,7.7698,7.8051,7.9749,8.1126,8.2585,8.3071,8.2666,8.2706,8.3071,8.3397,8.3881,8.4766,8.5928,8.7005,8.7523,8.8276,8.8228,8.7895,8.8114,8.8455,8.9105,9.0228,9.213,9.3797,9.5525,9.671,9.7887,9.9171,10.0745,10.3577,10.8268,11.3058,11.7647,12.188,12.5784,12.8039,12.8843,13.0518,13.2755,13.5519,13.7299,13.8262,13.9278,13.9755,14.0235,13.8736,13.7361,13.6156,13.4831,13.4923,13.5161,13.4927,13.4362,13.3883,13.3642,13.3228,13.291,13.2853,13.3059,13.221,13.1302,13.0627,12.9836,13.0246,12.9603,12.931,13.0041,13.1388,13.1563,13.1092,13.197,13.2584,13.2376,13.2839,13.2959,13.2934,13.2114,13.1237,13.0128,12.8726,12.7546,12.5931,12.4382,12.2791,12.1736,11.9708,11.7762,11.6915,11.6475,8.8358,8.8759,8.7416,8.7318,8.7741,8.6564,8.4762,8.3171,8.2752,8.2914,8.304,8.2684,8.2504,8.2423,8.1651,8.0325,7.9336,7.9435,7.8608,7.8492,7.9691,7.8989,7.8069,7.7518,7.6967,7.5887,7.5907,7.7107,7.8842,8.0106,8.1696,8.3111,8.3475,8.3475,8.3959,8.4726,8.5208,8.5608,8.6606,8.7681,8.7722,8.8078,8.8103,8.7223,8.693,8.7145,8.7673,8.9033,9.0962,9.2519,9.4487,9.6633,9.7546,9.8644,9.9847,10.1453,10.4966,10.8782,11.3875,11.8387,12.1296,12.3823,12.4983,12.6618,12.9116,13.1871,13.3818,13.5749,13.7328,13.7694,13.7794,13.8534,13.7403,13.6698,13.5932,13.629,13.6528,13.6704,13.6221,13.5415,13.4995,13.4252,13.375,13.3812,13.3347,13.2264,13.13,12.9983,12.8871,12.8201,12.7414,12.7269,12.7734,12.8405,12.8696,12.8988,12.9601,13.0127,13.0914,13.1668,13.167,13.129,13.1028,13.0591,12.855,12.6745,12.5318,12.4384,12.3646,12.2153,11.9657,11.7386,11.5508,11.4847,11.4465,8.9521,8.967,8.7982,8.7896,8.866,8.7698,8.6306,8.4706,8.3604,8.3411,8.3847,8.3864,8.3894,8.3301,8.2385,8.1423,8.0596,7.9849,7.9259,7.9187,8.0302,7.8844,7.7218,7.6505,7.5689,7.4274,7.4453,7.5866,7.765,7.9293,8.1045,8.2426,8.2909,8.3434,8.408,8.4927,8.5848,8.6168,8.7363,8.8157,8.7682,8.8275,8.8142,8.679,8.6385,8.6329,8.65,8.8365,9.0098,9.1574,9.3681,9.5793,9.6981,9.7855,9.9058,10.0633,10.2269,10.5522,10.9828,11.3934,11.6803,11.8937,12.0929,12.3015,12.4917,12.745,12.9839,13.1909,13.4003,13.589,13.6553,13.7681,13.8368,13.7567,13.7895,13.822,13.8011,13.8123,13.7609,13.668,13.5801,13.5048,13.438,13.4095,13.2959,13.1792,13.0888,12.9661,12.7909,12.6803,12.628,12.6136,12.5614,12.5787,12.6019,12.6803,12.7531,12.7997,12.8782,12.9768,12.9767,12.936,12.907,12.8604,12.6716,12.4802,12.373,12.2774,12.2447,12.083,11.7507,11.4844,11.4027,11.3524,11.2914,8.9275,8.963,8.8148,8.8395,8.9577,8.7937,8.7121,8.6632,8.531,8.4806,8.5152,8.5368,8.4967,8.3936,8.3152,8.247,8.207,8.2391,8.179,8.0621,8.1051,7.9342,7.7382,7.5645,7.4767,7.2981,7.3284,7.4536,7.5956,7.8062,7.9866,8.1208,8.2163,8.2769,8.3792,8.4603,8.5007,8.5288,8.6766,8.7442,8.7602,8.8039,8.7953,8.6996,8.6279,8.5834,8.6161,8.7665,8.9304,9.0851,9.2951,9.4763,9.6189,9.7144,9.8304,9.9938,10.1474,10.3787,10.6847,11.0391,11.3488,11.594,11.8113,11.959,12.0902,12.3229,12.5969,12.7431,13.0523,13.3406,13.5962,13.8193,13.9385,13.989,14.0565,14.0856,13.9991,13.9716,13.8333,13.725,13.6384,13.5557,13.5002,13.4112,13.2746,13.123,13.0445,12.9044,12.7122,12.628,12.6135,12.5613,12.4571,12.4398,12.4109,12.4831,12.5207,12.5787,12.6455,12.7467,12.7756,12.7407,12.6944,12.6395,12.4918,12.3214,12.2119,12.1112,11.9879,11.8477,11.5181,11.3402,11.2885,11.2363,11.1601,9.2613,9.1615,9.0516,9.0304,9.0553,8.9508,8.8364,8.7319,8.6638,8.6585,8.6666,8.5556,8.5126,8.4761,8.3644,8.2628,8.2867,8.2546,8.1555,8.112,8.0657,7.874,7.6466,7.4744,7.3678,7.1875,7.2269,7.3651,7.5102,7.6942,7.8942,8.0475,8.1347,8.2335,8.3571,8.5064,8.5928,8.6088,8.6925,8.7481,8.7364,8.7251,8.6818,8.6699,8.5665,8.522,8.567,8.6732,8.8475,9.0109,9.1869,9.3833,9.5343,9.6593,9.7691,9.9498,10.1434,10.3303,10.5807,10.8562,11.0947,11.3593,11.5726,11.643,11.726,11.9266,12.144,12.2957,12.6694,13.0005,13.1196,13.5638,13.8279,14.0184,14.1064,14.1853,14.1136,14.0404,13.9076,13.7757,13.7123,13.6391,13.5586,13.4408,13.2367,12.9978,12.8621,12.6681,12.5666,12.5783,12.5639,12.4541,12.3329,12.2668,12.2236,12.2092,12.2121,12.2696,12.3705,12.4828,12.5257,12.5461,12.5086,12.3846,12.2667,12.1547,12.057,11.9623,11.7999,11.6157,11.4491,11.2748,11.2126,11.09,11.0231,9.4418,9.3924,9.3048,9.2305,9.1615,9.1034,9.003,8.8759,8.7654,8.7601,8.8316,8.6945,8.6219,8.5646,8.4195,8.3728,8.3572,8.3084,8.2067,8.1211,8.0055,7.8147,7.5653,7.3808,7.262,7.1219,7.1555,7.2847,7.4819,7.6499,7.8489,8.0002,8.1122,8.205,8.3161,8.4611,8.5427,8.5922,8.6488,8.7005,8.685,8.6228,8.5918,8.6036,8.4935,8.4148,8.4787,8.5883,8.7258,8.8798,9.0414,9.2334,9.4059,9.507,9.6816,9.928,10.0586,10.2914,10.5701,10.7411,10.9074,11.154,11.3328,11.4355,11.397,11.5831,11.7374,11.9297,12.2037,12.5668,12.7851,13.2506,13.6642,13.9045,14.0616,14.161,14.1501,14.081,13.9683,13.8313,13.7597,13.6672,13.5576,13.4398,13.1505,12.8602,12.6337,12.4588,12.4963,12.5195,12.4245,12.321,12.1572,12.0685,11.9971,11.9485,11.9,11.9857,12.08,12.1111,12.1275,12.1764,12.2026,12.0881,11.9654,11.8858,11.8287,11.7828,11.675,11.5141,11.3647,11.2271,11.0874,10.9495,10.889,9.4992,9.6523,9.558,9.4326,9.2893,9.26,9.2103,9.1084,8.8697,8.8634,8.9599,8.8989,8.7699,8.6307,8.5532,8.4947,8.4485,8.452,8.3182,8.1859,8.068,7.8192,7.5392,7.3433,7.2248,7.1103,7.1555,7.3256,7.5233,7.6597,7.7951,7.9296,8.0809,8.169,8.2757,8.4019,8.4753,8.5306,8.5807,8.6168,8.6136,8.5517,8.533,8.5412,8.4014,8.3043,8.4409,8.4819,8.5727,8.7358,8.8772,9.0555,9.2665,9.3709,9.5871,9.8398,10.0036,10.2207,10.4976,10.6608,10.7757,10.9247,11.0889,11.1997,11.1756,11.2994,11.4604,11.6579,11.8364,12.1349,12.5548,12.9658,13.3509,13.64,13.9023,14.0161,14.0574,14.0204,13.9848,13.8713,13.754,13.6187,13.4971,13.3296,13.0617,12.8044,12.5739,12.522,12.531,12.418,12.3059,12.1479,11.9821,11.8542,11.7833,11.7662,11.7577,11.8117,11.8628,11.8394,11.8215,11.7931,11.8532,11.7768,11.7943,11.664,11.565,11.5226,11.4633,11.3646,11.2858,11.1906,11.0596,10.9533,10.866,9.7554,9.8473,9.7524,9.6497,9.5578,9.4853,9.4024,9.3128,9.1683,9.1013,9.0876,9.0487,8.9144,8.7165,8.5623,8.4946,8.452,8.452,8.3348,8.2024,8.0603,7.8384,7.5564,7.3411,7.2322,7.1607,7.1978,7.3396,7.5378,7.6934,7.8355,8.0026,8.0699,8.1478,8.2624,8.349,8.4213,8.4706,8.5188,8.5608,8.5855,8.4846,8.4816,8.4475,8.3666,8.2585,8.3002,8.3559,8.4684,8.6114,8.739,8.9288,9.155,9.2691,9.4657,9.7656,9.9556,10.1477,10.358,10.5776,10.7263,10.8308,10.9328,10.9825,11.0061,11.2402,11.4256,11.4183,11.5687,11.8761,12.2636,12.6284,13.0243,13.389,13.7115,13.8355,13.9293,13.9514,13.924,13.8114,13.6955,13.5627,13.3773,13.2111,12.9828,12.7353,12.6443,12.5998,12.4861,12.3372,12.1821,11.9757,11.808,11.6638,11.6187,11.613,11.6215,11.644,11.658,11.6547,11.6682,11.6454,11.5806,11.6037,11.6466,11.528,11.3844,11.2997,11.2292,11.2292,11.2152,11.1288,11.0734,10.9928,10.9061,9.8602,9.8689,9.8557,9.8168,9.7602,9.6713,9.6043,9.5155,9.3402,9.2355,9.2202,9.1562,9.0184,8.8272,8.6056,8.4989,8.4477,8.4087,8.3086,8.1779,7.9636,7.7559,7.5231,7.3058,7.2556,7.2386,7.2778,7.3829,7.5647,7.73,7.8364,7.9567,8.0196,8.1087,8.1546,8.245,8.335,8.3995,8.4515,8.4885,8.5219,8.4843,8.4346,8.4388,8.3203,8.2587,8.2583,8.2905,8.3714,8.4811,8.6497,8.8204,8.9979,9.1906,9.3605,9.7182,9.8853,10.0428,10.2049,10.4242,10.5774,10.6956,10.7434,10.7988,10.9294,11.119,11.2565,11.2718,11.4113,11.6406,11.9708,12.2757,12.6976,13.0978,13.4205,13.6004,13.8131,13.8546,13.8524,13.7463,13.6258,13.4305,13.2372,13.008,12.7437,12.5613,12.4931,12.4594,12.3647,12.2325,12.0491,11.8154,11.6208,11.4575,11.4294,11.39,11.3759,11.4433,11.4571,11.4256,11.4645,11.456,11.372,11.3639,11.3698,11.3137,11.238,11.1678,11.1477,11.1419,11.1389,11.109,11.0732,10.9927,10.8927,9.9144,9.8241,9.9369,9.9672,9.9374,9.8636,9.8178,9.7476,9.4566,9.335,9.3389,9.2199,9.1009,8.9527,8.7315,8.566,8.4571,8.3771,8.2789,8.1379,7.8867,7.6881,7.5166,7.2322,7.2727,7.3721,7.3528,7.4773,7.7004,7.795,7.8618,7.9272,8.0043,8.0283,8.0529,8.1575,8.2372,8.3078,8.3679,8.4314,8.4855,8.497,8.4236,8.3542,8.2703,8.2125,8.1626,8.226,8.2485,8.3365,8.5536,8.7287,8.8438,9.1171,9.3719,9.572,9.7781,9.9407,10.0146,10.2159,10.407,10.4888,10.5889,10.6895,10.8258,10.9939,11.1357,11.195,11.2221,11.402,11.7287,11.9362,12.3208,12.7277,13.1008,13.4032,13.6168,13.5977,13.6843,13.6065,13.5106,13.3157,13.0514,12.7762,12.5287,12.432,12.346,12.3035,12.2285,12.1147,11.9549,11.6282,11.398,11.2384,11.1769,11.1125,11.1375,11.2351,11.2011,11.1445,11.1861,11.2056,11.1363,11.0666,11.0282,10.9866,10.9723,10.9998,11.0497,11.027,10.9655,10.9858,11.0256,10.962,10.8539,10.1619,10.0222,10.1931,10.2167,10.1488,10.1107,10.0255,9.8771,9.7263,9.5617,9.3857,9.3326,9.2394,9.0652,8.8738,8.6621,8.4528,8.3671,8.2682,8.1312,7.905,7.7737,7.6626,7.5075,7.3995,7.5118,7.5161,7.6586,7.8633,7.9496,7.9776,7.9989,8.0067,8.0015,7.9933,8.1181,8.131,8.2236,8.3339,8.4643,8.4899,8.4862,8.4014,8.1972,8.1591,8.1012,8.0404,8.1493,8.1876,8.2497,8.4646,8.7365,8.8467,9.1128,9.2814,9.3428,9.5912,9.7355,9.8511,10.0185,10.1911,10.2848,10.441,10.5707,10.7077,10.8585,11.0118,11.1637,11.1825,11.2843,11.5287,11.7004,11.9895,12.3822,12.7557,13.0581,13.2328,13.4071,13.4931,13.434,13.3746,13.1459,12.8256,12.5533,12.4208,12.3211,12.1926,12.1485,12.1239,12.007,11.7869,11.4588,11.2269,11.0707,10.951,10.9009,10.9201,11.0031,10.9746,10.9545,10.9653,10.9735,10.8702,10.7952,10.7631,10.7828,10.7412,10.7435,10.8374,10.8677,10.7984,10.7849,10.8189,10.792,10.7457,10.2324,10.0956,10.3088,10.3491,10.2793,10.2529,10.1729,10.043,9.9452,9.7527,9.5777,9.5356,9.4269,9.1769,8.99,8.7384,8.4821,8.3245,8.2267,8.1276,7.9348,7.7981,7.7346,7.5738,7.567,7.6466,7.7393,7.8482,7.9089,8.0259,8.0604,8.055,8.0779,8.074,8.0713,8.1338,8.1612,8.1949,8.3212,8.4461,8.4891,8.5437,8.479,8.3281,8.2432,8.1506,8.0852,8.198,8.2175,8.2778,8.5295,8.6973,8.8482,9.0259,9.1935,9.2206,9.4507,9.6174,9.6185,9.8238,10.0035,10.1098,10.2555,10.427,10.6025,10.7216,10.8723,11.0455,11.1063,11.1815,11.3143,11.4908,11.7158,12.0305,12.4141,12.7238,12.9339,13.2031,13.2128,13.1355,13.0269,12.8325,12.5529,12.4315,12.3105,12.1883,12.0605,12.0193,12.0055,11.8364,11.6396,11.3716,11.1878,11.0066,10.8234,10.7404,10.7014,10.7642,10.7687,10.8013,10.8147,10.8147,10.7228,10.5998,10.5995,10.6358,10.614,10.6119,10.6673,10.7143,10.6915,10.6747,10.6649,10.6415,10.6181,10.2955,10.1422,10.3953,10.4695,10.4089,10.3812,10.307,10.2053,10.1229,9.9335,9.6922,9.7321,9.5795,9.324,9.1069,8.8427,8.5852,8.3397,8.2154,8.1614,7.9852,7.8759,7.8389,7.7187,7.7112,7.8358,7.9448,7.9802,7.9876,8.0657,8.1533,8.1164,8.1568,8.1526,8.1425,8.191,8.2035,8.1566,8.3085,8.3972,8.4487,8.5117,8.5213,8.4282,8.2775,8.2038,8.2019,8.2351,8.3077,8.4252,8.6156,8.7153,8.7902,8.9753,9.0648,9.101,9.2945,9.4334,9.4263,9.6285,9.824,9.9771,10.0829,10.2619,10.4537,10.5868,10.7151,10.8779,10.9803,11.0395,11.0149,11.2389,11.487,11.7428,12.0846,12.4366,12.6548,12.8296,12.8935,12.7595,12.6402,12.4924,12.3724,12.2511,12.1747,12.0915,11.9232,11.8213,11.8232,11.6845,11.5005,11.326,11.1373,10.9176,10.7018,10.6025,10.5005,10.5628,10.5974,10.6241,10.6617,10.659,10.6137,10.5091,10.4776,10.4918,10.5147,10.5236,10.5214,10.4392,10.5098,10.5831,10.4874,10.3949,10.401,10.5359,10.3242,10.5929,10.6955,10.675,10.5847,10.4635,10.33,10.291,10.0971,9.8132,9.7669,9.7193,9.5171,9.2295,9.0323,8.8062,8.5284,8.2926,8.2702,8.1009,8.0517,8.037,7.9595,7.957,8.094,8.1436,8.1786,8.1962,8.2764,8.2563,8.2668,8.2842,8.2241,8.1529,8.2075,8.2203,8.1152,8.3089,8.4168,8.3359,8.4536,8.4828,8.3968,8.2577,8.176,8.2038,8.2636,8.3214,8.286,8.6112,8.7168,8.7465,8.8709,8.9845,8.8671,9.1008,9.231,9.2866,9.4085,9.5699,9.6995,9.8568,10.0315,10.2004,10.3746,10.5267,10.6553,10.7431,10.8236,10.8838,11.0423,11.2014,11.4174,11.7807,12.0692,12.2205,12.2767,12.3637,12.3065,12.2884,12.2406,12.1506,12.0447,12.0346,11.9791,11.7595,11.6145,11.6292,11.5599,11.419,11.2509,11.0579,10.8478,10.6465,10.5199,10.3664,10.3874,10.416,10.464,10.5253,10.5378,10.5325,10.4252,10.3608,10.3571,10.3662,10.3648,10.283,10.1463,10.1728,10.2529,10.2275,10.1562,10.1382,10.6973,10.516,10.6792,10.748,10.7409,10.6962,10.6041,10.5104,10.5254,10.3127,9.9996,9.9772,9.8525,9.6205,9.3189,9.0981,8.9197,8.6194,8.4122,8.311,8.2585,8.1919,8.1657,8.2267,8.2414,8.2337,8.2877,8.2659,8.2694,8.2839,8.3052,8.2542,8.2601,8.2289,8.2387,8.2856,8.2356,8.1792,8.3499,8.4003,8.3054,8.4464,8.5178,8.3771,8.2604,8.2355,8.2811,8.3469,8.3686,8.4696,8.667,8.7648,8.6986,8.8266,8.8693,8.8138,8.9666,9.0944,9.1575,9.2763,9.4169,9.5263,9.6771,9.8349,10.0079,10.1651,10.3288,10.4423,10.5063,10.5534,10.6397,10.8035,10.983,11.1839,11.4919,11.775,11.9127,11.9566,11.94,11.8803,11.9549,11.9451,11.8911,11.7743,11.7536,11.8045,11.5943,11.5552,11.5609,11.5126,11.3577,11.1977,10.9919,10.794,10.599,10.4264,10.2813,10.2695,10.3057,10.3497,10.3833,10.4132,10.4479,10.3816,10.302,10.2854,10.2359,10.1671,10.1139,10.0465,9.9996,9.9511,9.9486,9.9907,9.9772,10.8205,10.6658,10.7676,10.8242,10.8337,10.7959,10.7388,10.6787,10.7278,10.5084,10.2133,10.1661,9.9941,9.6916,9.3974,9.1537,8.955,8.7167,8.5069,8.3671,8.3617,8.3269,8.3313,8.4543,8.5055,8.4528,8.4528,8.3877,8.3006,8.3248,8.2959,8.2296,8.2462,8.2531,8.2909,8.2895,8.2745,8.2355,8.3349,8.3228,8.2513,8.4076,8.4712,8.3267,8.306,8.3568,8.4416,8.415,8.4367,8.5466,8.6656,8.6866,8.6264,8.747,8.7739,8.7425,8.8654,8.9891,9.014,9.157,9.3195,9.385,9.5043,9.6485,9.8217,9.9506,10.0986,10.2157,10.2515,10.3007,10.3982,10.6138,10.7977,10.9637,11.222,11.4485,11.5169,11.5686,11.5308,11.483,11.547,11.6108,11.5329,11.5397,11.5328,11.5707,11.5486,11.5174,11.4885,11.46,11.3245,11.1778,10.9806,10.7856,10.5829,10.3861,10.274,10.2298,10.235,10.2591,10.2522,10.2683,10.3012,10.2831,10.2408,10.2004,10.1596,10.0909,10.009,9.9855,9.9522,9.8697,9.8162,9.8388,9.8448,10.9123,10.7527,10.938,11.062,11.0902,10.9486,10.8661,10.8533,10.7964,10.631,10.4167,10.2527,10.0707,9.8666,9.4803,9.2013,8.9675,8.7591,8.5856,8.492,8.491,8.5184,8.4933,8.5723,8.6097,8.6206,8.5127,8.4954,8.4739,8.3794,8.3351,8.2945,8.2375,8.2281,8.2443,8.2317,8.1924,8.164,8.24,8.1988,8.1237,8.2749,8.3395,8.2424,8.3325,8.4485,8.4524,8.4576,8.4407,8.447,8.5364,8.523,8.4726,8.6434,8.6703,8.6123,8.7793,8.9169,8.8861,9.0466,9.1875,9.2348,9.3164,9.428,9.5517,9.6775,9.7983,9.9052,9.9958,10.0691,10.1689,10.3489,10.5401,10.7204,10.9449,10.9858,10.8927,10.9433,11.0674,11.1017,11.1593,11.3169,11.3816,11.4012,11.3442,11.45,11.454,11.4193,11.3793,11.3625,11.2673,11.1033,10.9154,10.7458,10.5543,10.353,10.2689,10.1734,10.1698,10.1754,10.1765,10.2095,10.209,10.1784,10.1511,10.1178,10.0528,9.9814,9.9167,9.8602,9.7458,9.6984,9.6713,9.6641,9.6687,11.0727,11.0028,11.0267,11.098,11.1569,11.0302,10.9816,10.9701,10.9311,10.7867,10.549,10.3571,10.1412,9.8873,9.5204,9.2214,8.9778,8.7771,8.607,8.4821,8.4874,8.5141,8.5503,8.6454,8.6669,8.6521,8.6766,8.6508,8.573,8.4302,8.3628,8.3249,8.1753,8.1395,8.2086,8.1824,8.1562,8.1768,8.1956,8.1484,8.0172,8.1939,8.2318,8.2533,8.3721,8.4533,8.4019,8.3897,8.3516,8.3226,8.3716,8.375,8.2885,8.5194,8.6138,8.5053,8.757,8.9103,8.9071,8.9924,9.0529,9.0502,9.0895,9.1535,9.2267,9.3357,9.4792,9.5727,9.6829,9.7841,9.8944,9.998,10.1708,10.3663,10.4601,10.4765,10.4564,10.6071,10.7482,10.84,10.9225,11.0438,11.1598,11.1619,11.2276,11.3236,11.3277,11.2946,11.2727,11.2568,11.1829,10.9288,10.7166,10.6111,10.4451,10.3375,10.2484,10.1329,10.1108,10.1414,10.173,10.2316,10.1554,10.0463,10.0438,10.0066,9.892,9.7947,9.7578,9.6798,9.5234,9.455,9.4416,9.4307,9.4526,11.1405,11.1345,11.0685,11.0908,11.1617,11.107,11.0753,11.0753,11.0525,10.8801,10.6442,10.4325,10.1773,9.8879,9.5059,9.1983,8.9682,8.7555,8.5653,8.4154,8.3889,8.3987,8.4406,8.6083,8.6823,8.6541,8.7133,8.7446,8.6534,8.431,8.3332,8.3483,8.1486,8.0875,8.1677,8.1332,8.1373,8.1868,8.1728,8.0979,8.0211,8.1217,8.1859,8.2141,8.3132,8.3398,8.3124,8.3004,8.2465,8.1444,8.2255,8.2407,8.1916,8.4187,8.5369,8.4904,8.7106,8.8906,8.884,8.9432,8.9605,8.9051,8.9352,8.9302,8.932,8.9966,9.0834,9.1967,9.328,9.4386,9.5727,9.6648,9.8052,9.9845,9.954,9.939,10.0798,10.2652,10.4307,10.5396,10.6435,10.7634,10.8801,10.9509,11.0317,11.1116,11.1354,11.1251,11.1481,11.1375,11.0579,10.7902,10.6155,10.5017,10.3882,10.3081,10.2127,10.0885,10.0268,10.0486,10.0777,10.1285,10.0235,9.929,9.9446,9.8587,9.739,9.6502,9.5908,9.5531,9.4494,9.4038,9.3457,9.2987,9.3299,11.0452,11.0494,11.0415,11.0944,11.1707,11.1705,11.1614,11.1481,11.0756,10.9213,10.7034,10.4469,10.1778,9.8588,9.4521,9.1574,8.9586,8.7123,8.467,8.2739,8.2309,8.2029,8.2323,8.4521,8.6099,8.6781,8.6569,8.6982,8.7608,8.4387,8.2752,8.3312,8.18,8.1081,8.1149,8.1117,8.099,8.1004,8.0389,7.9989,7.9723,7.9996,8.037,8.1122,8.1319,8.1584,8.1851,8.1622,8.1038,8.0018,8.062,8.1116,8.1698,8.3432,8.4191,8.369,8.65,8.7417,8.7594,8.811,8.8788,8.8582,8.8067,8.7925,8.7698,8.7242,8.7087,8.7533,8.9033,9.0658,9.2142,9.3438,9.4981,9.6533,9.5188,9.5093,9.6496,9.8206,10.0405,10.2234,10.3162,10.438,10.6787,10.7619,10.8357,10.898,10.9119,10.9637,10.9953,10.9336,10.8769,10.7632,10.6068,10.4787,10.328,10.2504,10.1583,10.015,9.8915,9.8871,9.889,9.9176,9.8676,9.8617,9.8488,9.7122,9.6054,9.5691,9.5142,9.4273,9.3898,9.4024,9.3595,9.3018,9.2925,11.0216,11.1173,11.0687,11.0904,11.1753,11.1753,11.1753,11.1574,11.0212,10.88,10.7005,10.4027,10.1255,9.851,9.4369,9.1469,8.9594,8.6943,8.3853,8.0927,8.0981,8.0036,7.8719,8.1413,8.3828,8.5519,8.655,8.6988,8.6881,8.4457,8.3212,8.3115,8.1419,8.0556,8.0968,8.0637,8.0349,8.024,7.9512,7.8699,7.796,7.769,7.8102,7.8886,7.9383,7.9687,7.9673,7.7867,7.7118,7.7857,7.7853,7.8295,7.9071,8.0709,8.1771,8.2167,8.3718,8.5027,8.4798,8.585,8.6222,8.6037,8.5766,8.5543,8.5365,8.4653,8.4538,8.4971,8.5898,8.6955,8.8305,8.9851,9.0593,9.0669,9.0474,9.1577,9.3644,9.5799,9.815,10.0274,10.1543,10.2969,10.4673,10.5809,10.6675,10.7768,10.7594,10.7515,10.7392,10.6814,10.5873,10.5014,10.4489,10.3756,10.2606,10.1794,10.087,9.9176,9.7552,9.7197,9.7339,9.7629,9.7814,9.7788,9.7191,9.5887,9.4742,9.4471,9.3963,9.3113,9.2303,9.225,9.2153,9.198,9.201,10.9717,11.1116,11.0057,11.0227,11.1243,11.0716,11.05,11.028,10.888,10.7393,10.5863,10.3289,10.0618,9.7814,9.3958,9.1016,8.927,8.6889,8.3996,8.1199,8.0539,7.9106,7.7512,7.8919,8.1157,8.3594,8.5691,8.6585,8.6126,8.4283,8.3375,8.317,8.1357,8.0366,8.0281,7.9794,7.9391,7.9084,7.8138,7.7254,7.652,7.6439,7.665,7.716,7.7426,7.6982,7.5939,7.3777,7.3612,7.5409,7.5039,7.5397,7.6979,7.8825,8.0032,8.0502,8.2103,8.3282,8.3564,8.4131,8.4544,8.448,8.4154,8.3917,8.3765,8.2474,8.184,8.2414,8.2609,8.2984,8.4302,8.5943,8.6558,8.5426,8.6558,8.8285,9.0589,9.271,9.5455,9.8208,9.9666,10.1045,10.2723,10.3172,10.4211,10.601,10.5695,10.5553,10.5723,10.5162,10.374,10.3457,10.2182,10.1603,10.1429,10.1031,9.93,9.7188,9.6042,9.5519,9.6086,9.6529,9.677,9.6585,9.5735,9.4689,9.3605,9.2859,9.234,9.1591,9.1322,9.0979,9.0471,9.0452,9.0626,10.8914,11.0231,10.8486,10.8953,11.0222,10.892,10.7884,10.7835,10.6824,10.5393,10.3882,10.2374,9.9825,9.6532,9.3153,9.0241,8.846,8.6809,8.4832,8.2711,8.0756,7.9229,7.7878,7.7625,7.8846,8.121,8.3683,8.5616,8.6795,8.4124,8.286,8.306,8.1575,7.9952,7.8719,7.8629,7.8282,7.7316,7.5948,7.5483,7.6198,7.5869,7.5761,7.594,7.5166,7.3521,7.0948,7.0392,7.0884,7.2347,7.2409,7.3287,7.5058,7.7635,7.9506,7.9816,8.1683,8.3172,8.3753,8.3765,8.3969,8.4319,8.382,8.3141,8.26,8.0768,7.9298,7.9266,7.9094,7.9214,8.0169,8.1629,8.2547,8.2525,8.3507,8.5269,8.7311,8.8762,9.1017,9.486,9.7073,9.8726,10.0374,10.0898,10.1515,10.3362,10.3432,10.3377,10.4621,10.3942,10.3573,10.3413,10.1991,10.0403,10.0364,10.0083,9.7534,9.5434,9.4698,9.4405,9.5186,9.5558,9.5776,9.5786,9.5,9.3956,9.2877,9.184,9.1196,9.0767,9.0678,9.0443,8.9934,8.9474,8.9488,11.136,11.1075,10.9387,10.9335,11.0182,10.9152,10.8243,10.7455,10.5405,10.4106,10.293,10.0423,9.8304,9.6317,9.3561,9.0638,8.7773,8.7091,8.493,8.1839,8.1479,7.966,7.7056,7.644,7.7385,7.9295,8.0371,8.2227,8.4434,8.3249,8.2285,8.1816,8.0162,7.8525,7.7166,7.6858,7.6237,7.5096,7.401,7.3313,7.2982,7.2047,7.1774,7.1913,7.0454,6.9648,7.0378,6.8268,6.8045,6.9731,6.9505,6.9651,7.0913,7.3536,7.5937,7.7744,7.8731,7.9444,8.0157,8.0812,8.1446,8.2023,8.2222,8.1898,8.0919,8.0517,7.9165,7.7612,7.7127,7.7219,7.7275,7.6759,7.6935,7.8418,8.0447,8.2701,8.5039,8.7168,8.9242,9.1295,9.3831,9.662,9.8875,9.9171,9.9844,10.1003,10.1387,10.1279,10.1877,10.1624,10.1547,10.1106,10.003,9.9246,9.8298,9.7549,9.5479,9.463,9.3983,9.405,9.4423,9.4593,9.4757,9.4874,9.4295,9.3285,9.2234,9.1106,9.0452,9.0037,8.9683,8.9426,8.9182,8.8653,8.7932,11.1754,11.0142,10.8667,10.8226,10.8299,10.7059,10.5816,10.4528,10.2498,10.1554,10.098,9.9041,9.7149,9.5579,9.3265,9.0781,8.8331,8.7608,8.5905,8.3477,8.2164,8.0294,7.7618,7.6446,7.6648,7.7655,7.8407,8.0329,8.2878,8.2091,8.1177,8.0408,7.8691,7.6702,7.4993,7.4493,7.3616,7.2185,7.1367,7.0777,7.0308,6.9382,6.8373,6.7597,6.6286,6.6126,6.7124,6.5485,6.5233,6.6892,6.6426,6.6768,6.8241,7.0225,7.2813,7.5883,7.6841,7.7441,7.8265,7.8881,7.938,7.9806,8.0458,8.0315,7.9587,7.9083,7.8249,7.6396,7.5518,7.4565,7.3921,7.2826,7.3051,7.5459,7.777,7.9924,8.2291,8.4359,8.6275,8.7734,9.0017,9.3258,9.5524,9.6638,9.7205,9.8552,9.9189,9.9376,9.9362,9.9928,10.0186,9.9304,9.8439,9.7432,9.5991,9.4808,9.4231,9.3684,9.3455,9.3425,9.336,9.3452,9.3257,9.3296,9.2234,9.1208,9.0689,8.9617,8.9122,8.868,8.8162,8.8027,8.8414,8.6877,8.6058,11.0266,10.7906,10.6964,10.6274,10.4943,10.3117,10.1181,9.9717,9.8536,9.794,9.7895,9.7571,9.6276,9.3872,9.2218,9.0815,8.9733,8.8264,8.7269,8.6429,8.3053,8.0967,8.054,7.7602,7.6058,7.622,7.7428,7.9507,8.1955,8.0768,7.9926,7.9689,7.7467,7.5031,7.2804,7.1902,7.0545,6.9207,6.8336,6.7876,6.8035,6.7865,6.5915,6.3192,6.3009,6.2849,6.1993,6.2145,6.2728,6.3378,6.3462,6.4593,6.7033,6.8088,7.0313,7.3873,7.5803,7.7037,7.7694,7.7895,7.7895,7.7895,7.8176,7.8473,7.7964,7.6905,7.583,7.5332,7.313,7.1432,7.0296,6.9956,7.0982,7.3452,7.5072,7.6869,7.9111,8.0581,8.2124,8.4276,8.6283,8.8922,9.2415,9.2774,9.4208,9.5846,9.6915,9.7187,9.7596,9.866,9.885,9.8115,9.7398,9.6585,9.3741,9.3231,9.2849,9.2447,9.2482,9.2502,9.2355,9.2147,9.1817,9.1312,9.0432,8.9665,8.8957,8.8412,8.8008,8.7742,8.7217,8.6939,8.7415,8.5416,8.4564,11.1558,10.9886,11.0106,10.8637,10.5763,10.3207,10.0728,9.8531,9.7502,9.6338,9.5129,9.4471,9.3419,9.2151,9.1593,9.0456,8.9094,8.864,8.7466,8.5586,8.4439,8.2162,7.9245,7.7689,7.6463,7.5356,7.5265,7.6843,7.9463,8.0263,8.007,7.8795,7.7013,7.4564,7.1894,7.0866,6.9461,6.7456,6.6668,6.6,6.532,6.3514,6.1919,6.1054,6.105,6.1465,6.2077,6.178,6.1816,6.2458,6.2436,6.2775,6.3628,6.5686,6.761,6.9345,7.2094,7.3901,7.4201,7.471,7.4741,7.4398,7.5467,7.5731,7.4916,7.5259,7.4673,7.2557,7.0283,6.8674,6.7875,6.7661,6.7858,6.8763,7.0963,7.3096,7.5302,7.7705,7.9778,8.1991,8.4296,8.6747,8.8393,9.0433,9.2036,9.3226,9.4383,9.5234,9.5068,9.5522,9.6024,9.5694,9.4835,9.373,9.2645,9.2271,9.2569,9.2091,9.111,9.0907,9.0824,9.0323,8.9956,8.9834,8.9422,8.8759,8.8236,8.7977,8.7608,8.7586,8.7442,8.722,8.6754,8.578,8.4731,11.1161,10.9883,10.9544,10.6963,10.301,10.0781,9.8414,9.5911,9.4976,9.42,9.3337,9.142,9.0261,8.9823,9.0497,9.0048,8.8723,8.8827,8.798,8.6505,8.5054,8.3176,8.0578,7.8648,7.6805,7.5429,7.5005,7.5684,7.7317,7.9225,7.9247,7.7568,7.5936,7.3394,7.0107,6.9116,6.7577,6.5301,6.4598,6.3217,6.1176,5.9938,5.8813,5.7891,5.8745,5.9505,5.969,5.9836,5.9963,6.0338,6.0316,6.062,6.1454,6.3597,6.5372,6.6676,6.9495,7.1326,7.1814,7.2197,7.2094,7.1471,7.2381,7.2584,7.1707,7.2382,7.1681,6.8748,6.6917,6.5766,6.5131,6.4934,6.5071,6.5655,6.753,6.9996,7.2351,7.4706,7.7104,7.9797,8.228,8.4239,8.5763,8.8044,8.979,9.0743,9.1844,9.2477,9.1975,9.2241,9.2597,9.257,9.1257,9.0362,9.0528,9.0627,9.0327,9.0118,8.9609,8.9034,8.8874,8.8435,8.8233,8.8233,8.7443,8.7015,8.7277,8.6523,8.6115,8.6589,8.6579,8.6164,8.6397,8.5228,8.3647,10.9948,10.8714,10.705,10.3179,9.8701,9.6976,9.4731,9.2184,9.126,9.138,9.1461,8.8549,8.7311,8.7647,8.8987,8.9346,8.883,8.8627,8.8581,8.8183,8.5354,8.3799,8.3101,7.9642,7.7198,7.6118,7.578,7.5313,7.5188,7.7167,7.7552,7.6188,7.4397,7.1652,6.8218,6.6944,6.5349,6.3071,6.2034,5.9712,5.6334,5.7116,5.6456,5.3748,5.6214,5.6963,5.598,5.6737,5.739,5.754,5.753,5.8242,6.0091,6.1657,6.3275,6.5139,6.7398,6.9108,6.99,6.9973,6.9581,6.9056,6.9008,6.9069,6.9006,6.849,6.6986,6.5018,6.3739,6.3032,6.2306,6.2168,6.2326,6.2749,6.4524,6.7099,6.9811,7.1691,7.4012,7.7631,8.0029,8.1792,8.3607,8.5798,8.7539,8.863,8.9571,8.9914,8.9329,8.9275,8.9279,8.894,8.7653,8.6765,8.7723,8.7338,8.7383,8.7651,8.745,8.7139,8.6817,8.6561,8.642,8.6342,8.5647,8.5202,8.4856,8.4173,8.4155,8.5268,8.5002,8.4156,8.4198,8.3546,8.2095,11.0134,10.7905,10.675,10.3982,9.9908,9.4887,9.0857,8.7961,8.7566,8.7129,8.6561,8.5277,8.5737,8.7362,8.7232,8.7752,8.8499,8.7361,8.713,8.7487,8.5607,8.3976,8.255,8.0486,7.791,7.5389,7.4055,7.3726,7.4165,7.4665,7.5368,7.5743,7.282,7.0101,6.7979,6.6045,6.3906,6.1591,5.8273,5.6331,5.5976,5.5205,5.4031,5.2578,5.3934,5.4742,5.4762,5.4431,5.4896,5.621,5.5446,5.5516,5.6953,5.8868,6.0633,6.2187,6.4263,6.5652,6.5999,6.5664,6.5132,6.4418,6.4947,6.5376,6.5255,6.391,6.2825,6.269,6.2013,6.1452,6.069,6.0151,5.9422,5.8642,6.0361,6.299,6.6298,6.897,7.1895,7.5467,7.8633,8.0579,8.1606,8.4143,8.629,8.6765,8.7178,8.7515,8.7382,8.6614,8.5369,8.441,8.3988,8.4302,8.5062,8.5358,8.5541,8.5829,8.5162,8.4834,8.4836,8.4428,8.4339,8.4709,8.4638,8.464,8.4679,8.4434,8.448,8.471,8.4564,8.4256,8.3737,8.2703,8.1219,10.8803,10.6834,10.4743,10.1953,9.8626,9.3218,8.8747,8.5175,8.316,8.2413,8.2601,8.2583,8.3464,8.5066,8.5906,8.6352,8.6523,8.6673,8.6797,8.6808,8.5554,8.4425,8.3422,8.1048,7.8634,7.62,7.4609,7.3672,7.3432,7.4097,7.4645,7.4913,7.2644,6.9623,6.6446,6.4129,6.2221,6.0643,5.6474,5.4229,5.4093,5.3076,5.1893,5.0526,5.1015,5.1316,5.1141,5.2033,5.291,5.3644,5.3773,5.4391,5.556,5.6526,5.773,5.9183,6.0864,6.1874,6.2106,6.2223,6.1977,6.1413,6.1874,6.1469,5.9639,5.8767,5.8537,5.8853,5.8347,5.7759,5.7342,5.6405,5.5476,5.4712,5.6281,5.8854,6.2261,6.5456,6.9021,7.3161,7.6755,7.9201,8.0154,8.2902,8.4842,8.5185,8.5251,8.5047,8.4512,8.2879,8.1164,7.9995,8.0354,8.1407,8.2682,8.2986,8.3174,8.3745,8.3236,8.2856,8.2749,8.2866,8.2896,8.3339,8.3598,8.3879,8.4082,8.3733,8.3819,8.4071,8.4134,8.3889,8.3714,8.2908,8.1433,10.6194,10.4918,10.1565,9.8604,9.5911,9.1401,8.7287,8.3344,7.922,7.8144,7.9484,8.023,8.1099,8.218,8.4281,8.4702,8.3957,8.5803,8.6545,8.6091,8.518,8.474,8.4541,8.1397,7.9106,7.7508,7.5798,7.4213,7.2988,7.4013,7.4375,7.3632,7.2807,6.9823,6.4882,6.2042,6.0323,5.9406,5.5243,5.2632,5.1782,5.1004,4.9877,4.8434,4.8245,4.7771,4.7019,4.9273,5.0477,5.038,5.1596,5.2977,5.4252,5.4311,5.4946,5.6436,5.768,5.8405,5.845,5.8963,5.9131,5.8705,5.8794,5.7092,5.3184,5.3597,5.4256,5.4456,5.4095,5.3576,5.3651,5.2792,5.2142,5.1987,5.2897,5.5049,5.8758,6.2074,6.5925,7.0852,7.4656,7.7621,7.9472,8.173,8.3334,8.358,8.3718,8.3157,8.1774,7.9145,7.737,7.6931,7.7296,7.8479,8.0201,8.0265,8.0503,8.1378,8.1524,8.1371,8.1181,8.1608,8.2107,8.244,8.2654,8.2849,8.308,8.2385,8.2664,8.3497,8.3388,8.2902,8.3404,8.2812,8.1541,10.2215,10.0442,9.7575,9.5321,9.3213,8.8185,8.4788,8.2546,7.8403,0.0,0.0,7.7849,7.9309,8.118,8.1089,8.2022,8.3726,8.3441,8.3975,8.5178,8.423,8.3768,8.3525,8.1106,7.901,7.7339,7.5174,7.3614,7.275,7.2971,7.299,7.2698,7.203,6.9936,6.6316,6.1051,5.7752,5.641,5.2309,5.0402,5.0899,4.9768,4.8229,4.6294,4.6679,4.6429,4.5351,4.5203,4.5823,4.7285,4.6555,4.7354,5.0083,5.1698,5.3083,5.4356,5.5996,5.641,5.5315,5.4908,5.4347,5.3678,5.3823,5.2051,4.7617,4.8864,5.0411,5.1732,5.1949,5.2319,5.2967,5.2293,5.1674,5.1177,5.1302,5.3056,5.694,5.9666,6.3192,6.8546,7.2847,7.5971,7.761,8.0411,8.2214,8.1767,8.2333,8.2577,8.1009,7.8367,7.6149,7.5573,7.5827,7.6867,7.805,7.8268,7.8465,7.9356,7.972,8.0057,8.0447,8.1196,8.1768,8.176,8.2321,8.2393,8.2226,8.2279,8.2568,8.2844,8.304,8.3028,8.2189,8.0904,7.9668,9.8873,9.672,9.4418,9.2032,0.0,8.5902,8.2543,7.9275,7.6355,7.5088,7.5091,7.5891,7.7148,7.8578,7.9005,7.9947,8.1236,8.1595,8.2204,8.3101,8.3007,8.2932,8.2719,8.0827,7.883,7.6765,7.4719,7.2777,7.0999,7.1337,7.1051,7.0255,6.9419,6.7775,6.507,6.1264,5.721,5.2942,4.9275,4.8022,4.9091,4.7402,4.6046,4.5295,4.4231,0.0,0.0,0.0,0.0,0.0,0.0,0.0,0.0,0.0,0.0,5.1966,5.1426,5.0742,5.004,4.9819,4.982,5.0099,4.9519,4.7412,4.3448,4.5109,4.6396,4.6627,4.7311,4.781,4.7915,4.7864,4.7547,4.7115,4.8109,4.9905,5.2844,5.6644,6.0991,6.5628,7.0134,7.3948,7.6339,7.8843,8.0093,8.0302,8.092,8.1039,7.9988,7.6664,7.3966,7.3559,7.3674,7.4302,7.5819,7.6602,7.7426,7.8461,7.893,7.9123,7.9155,7.9967,8.0326,7.9635,8.1024,8.1871,8.1266,8.1862,8.254,8.2321,8.2607,8.2681,8.1898,8.0597,7.9335,9.5126,9.2653,9.1017,8.8469,8.5384,8.3445,7.9821,7.5156,7.4023,7.3224,7.2897,7.3772,7.4491,7.5201,7.6904,7.771,7.7952,7.9626,8.046,8.0593,8.1685,8.2038,8.1717,8.0458,7.8587,7.6162,7.4452,7.2155,6.9183,6.9843,6.9369,6.7823,6.693,6.5467,6.3385,0.0,0.0,0.0,4.706,4.6149,4.7463,4.5326,4.4173,4.4304,4.1986,0.0,4.192,4.4295,4.6861,4.9368,5.0829,0.0,0.0,0.0,0.0,0.0,0.0,0.0,0.0,0.0,0.0,0.0,4.4643,4.2596,4.0147,4.1106,4.1719,4.12,4.2447,4.3212,4.297,4.3367,4.3501,4.3252,4.4826,4.6656,4.8394,5.3347,5.8361,6.2279,6.744,7.1993,7.5307,7.7311,7.8646,7.9335,7.9253,7.8892,7.8329,7.427,7.1372,7.1116,7.0827,7.1412,7.3582,7.4652,7.5537,7.715,7.7669,7.7663,7.7449,7.8141,7.8277,7.7341,7.9008,8.0524,7.9511,8.078,8.1743,8.1438,8.1951,8.217,8.1132,8.0041,7.8902,8.9698,8.7222,8.6331,8.4412,8.1732,7.935,7.5607,7.1147,7.1769,7.1196,6.983,7.0619,7.0985,7.1235,7.3462,7.4555,7.4799,7.6986,7.8033,7.8146,8.0366,8.0946,8.0008,7.9966,7.8563,7.6004,7.4428,7.2072,6.9125,6.926,6.8574,6.7028,6.621,6.5022,6.3219,5.842,5.395,5.0007,4.6885,4.5803,4.6743,4.4918,4.3508,4.2536,4.152,4.0715,4.0218,4.1422,4.3676,4.7054,4.8439,5.001,5.2017,5.1662,5.0261,0.0,4.7139,0.0,0.0,0.0,0.0,0.0,0.0,0.0,0.0,3.5928,3.5479,3.7131,3.9564,4.14,4.2224,4.2853,4.3211,4.316,4.2951,4.3766,4.6249,4.9643,5.3891,5.925,6.5779,7.104,7.4142,7.6888,7.8509,7.8527,7.7547,7.6006,7.416,7.1502,6.9386,6.905,6.8286,6.8437,7.0505,7.1321,7.2037,7.3193,7.4238,7.4719,7.5074,7.5959,7.6547,7.6389,7.706,7.7423,7.6803,7.8348,7.9658,7.9663,8.0687,8.0782,7.8457,7.733,7.6328,8.4726,8.2819,8.2007,7.8697,7.3966,7.2758,7.109,6.9161,6.8707,6.7387,6.5528,6.5741,6.6039,6.6536,6.849,7.011,7.1471,7.3361,7.4726,7.5686,7.762,7.8275,7.778,7.8248,7.7145,7.47,7.3476,7.0899,6.715,6.6311,6.4961,6.3083,6.1961,5.911,5.4753,5.2308,4.9618,4.654,4.49,4.4194,4.4307,4.2756,4.1835,4.17,4.0556,4.0438,4.1563,4.3125,4.6128,5.0533,5.1284,5.2244,5.383,5.0976,4.8615,0.0,0.0,0.0,0.0,0.0,0.0,0.0,0.0,0.0,0.0,0.0,3.3957,3.5151,3.747,3.9113,3.964,3.9838,3.9896,3.9885,3.9538,4.0086,4.2185,4.6177,5.0785,5.598,6.228,6.8121,7.3053,7.5137,7.6418,7.7119,7.457,7.2285,7.1334,6.8619,6.6612,6.6534,6.5366,6.4976,6.6172,6.8193,7.0132,7.1727,7.2713,7.334,7.3755,7.4503,7.4642,7.388,7.518,7.6207,7.5261,7.6596,7.7897,7.7713,7.7781,7.7588,7.6728,7.6128,7.5331,7.9573,7.7725,7.5679,7.1437,6.621,6.6424,6.6245,6.5741,6.4301,6.2985,6.175,6.057,6.0605,6.1541,6.2719,6.4572,6.6922,6.8865,7.0649,7.2455,7.4581,7.5491,7.544,7.6366,7.552,7.31,7.212,6.9391,6.5251,6.3675,6.1466,5.8534,5.5962,5.198,4.6856,4.6687,4.566,4.3498,4.3096,4.2573,4.1956,4.0678,4.0154,4.0515,3.9485,3.9931,4.2006,4.43,4.777,5.2413,5.2924,5.3318,5.4083,4.9517,0.0,0.0,0.0,0.0,0.0,0.0,0.0,0.0,0.0,3.6646,3.1768,0.0,3.3034,0.0,3.6112,3.7531,3.7497,3.7379,0.0,0.0,3.617,3.6264,3.766,4.2141,4.6944,5.1797,5.8487,6.5116,7.1226,7.3177,7.452,7.5508,7.1795,6.89,6.9015,6.5663,6.3058,6.3179,6.193,6.1048,6.1852,6.448,6.7348,6.9815,7.0745,7.1439,7.2064,7.2649,7.2675,7.1508,7.2959,7.3853,7.325,7.4327,7.5126,7.465,7.4193,7.4084,7.4884,7.4729,7.4062,7.3591,7.1017,6.5381,6.1952,6.0349,6.156,6.0951,5.9023,5.7861,5.8119,5.9213,5.5529,5.4888,5.6658,5.6504,0.0,6.0242,6.3158,6.5665,6.7794,7.1484,7.3111,7.3008,7.4508,7.3837,7.1333,7.0297,6.7846,6.41,6.2464,5.9143,5.4127,4.8294,4.4962,4.4108,4.3673,4.3305,4.2862,4.231,4.1456,4.0288,3.9646,3.8886,3.8061,3.8365,3.8873,3.9613,4.2347,4.5442,4.8626,4.9965,5.0069,4.886,0.0,0.0,0.0,0.0,0.0,0.0,0.0,0.0,0.0,0.0,0.0,0.0,0.0,0.0,0.0,3.5949,0.0,3.6862,3.6994,0.0,0.0,0.0,3.2465,3.2984,3.6886,4.1296,4.5832,0.0,0.0,6.7701,7.1345,7.3819,7.4481,7.0042,6.6638,6.6453,6.2095,5.887,5.9252,5.7985,5.7306,5.7856,5.9498,6.1961,6.5222,6.6869,6.8083,6.9333,7.0041,7.0272,7.0118,6.9486,6.9425,7.0811,7.0828,7.0946,6.9889,7.0342,7.1145,7.158,7.1715,7.1425,6.5978,5.9553,5.6057,5.4932,5.5382,5.4656,5.5578,5.7399,5.4261,5.2307,5.1177,4.9237,4.7149,4.5204,4.6767,0.0,0.0,0.0,5.8669,6.085,6.4518,6.7122,6.8762,7.0127,7.0174,6.8975,6.7471,6.4799,6.0954,5.7942,5.217,4.3897,0.0,0.0,3.6216,3.7489,3.8451,3.8892,3.9063,3.9127,3.8999,3.8848,3.8429,3.7733,3.8032,3.8664,3.9506,4.1615,4.4053,4.6752,4.684,4.6162,0.0,0.0,0.0,0.0,0.0,0.0,0.0,0.0,0.0,0.0,0.0,3.5029,3.1826,0.0,0.0,0.0,3.4534,3.6056,3.627,3.588,0.0,0.0,0.0,0.0,0.0,0.0,0.0,4.278,5.1004,5.9068,6.6078,6.9038,7.0736,7.1495,6.7559,6.4379,6.3597,0.0,5.7116,5.6674,5.5443,5.4342,5.3776,5.3824,5.5344,5.9574,6.3427,6.6543,6.7982,6.8145,6.8306,6.8736,6.7917,6.7204,6.7817,6.4823,6.2805,6.453,6.5353,6.6182,6.7471,6.802,6.8033,5.7433,0.0,0.0,0.0,0.0,4.7761,4.8769,5.1343,4.7542,4.5094,4.3663,4.2327,0.0,0.0,0.0,0.0,0.0,0.0,5.2315,5.4706,5.9011,6.1989,6.3855,6.5016,6.5438,6.5007,6.4053,6.1286,5.6858,5.1407,4.4389,3.6122,0.0,0.0,0.0,0.0,3.4807,3.5876,3.6728,3.7403,3.7861,3.7875,3.7621,3.7043,3.7068,3.7619,3.8772,4.0436,4.2018,4.329,4.3087,0.0,0.0,0.0,0.0,0.0,0.0,0.0,0.0,0.0,0.0,0.0,0.0,0.0,0.0,0.0,0.0,0.0,0.0,0.0,3.6028,3.5477,3.4377,0.0,0.0,0.0,0.0,0.0,0.0,0.0,0.0,0.0,6.2557,6.5371,6.7357,0.0,0.0,6.1915,6.1063,5.7559,5.4757,5.4107,5.2982,0.0,5.0669,5.0128,5.1038,5.4874,5.9783,6.3678,6.4912,6.5743,6.6043,6.5421,6.4705,6.3976,6.343,5.9179,5.69,5.9472,5.9979,6.0533,6.2806,6.3784,6.405,0.0,0.0,0.0,0.0,0.0,0.0,0.0,0.0,3.6095,3.6359,0.0,3.4915,0.0,0.0,0.0,0.0,4.0693,4.4189,0.0,0.0,5.5838,5.8737,5.8415,5.9389,5.9515,5.8865,5.962,5.7175,5.1492,4.2711,0.0,0.0,0.0,0.0,0.0,0.0,3.3307,3.4801,3.6094,3.6809,3.6944,3.6614,3.6144,3.5484,3.4996,3.5414,3.6811,3.8429,3.8767,3.7526,3.8429,0.0,0.0,0.0,0.0,0.0,0.0,0.0,0.0,0.0,0.0,0.0,0.0,0.0,0.0,0.0,0.0,0.0,0.0,0.0,0.0,3.6279,0.0,0.0,0.0,0.0,0.0,0.0,0.0,0.0,0.0,5.2793,5.6357,6.0242,6.4019,6.7218,0.0,0.0,0.0,0.0,5.1299,5.1287,5.0408,4.9561,4.9168,4.945,5.0342,5.2349,0.0,0.0,5.904,6.2175,6.322,5.9137,5.9108,5.8971,5.7943,5.4303,5.2687,5.5455,5.465,5.4816,5.7798,5.8708,5.9166,0.0,0.0,0.0,0.0,0.0,0.0,0.0,0.0,0.0,3.3728,0.0,3.2942,0.0,0.0,0.0,0.0,0.0,0.0,0.0,0.0,4.5908,4.8686,4.9456,5.1763,5.2199,0.0,5.0788,4.6894,0.0,0.0,0.0,0.0,0.0,0.0,0.0,0.0,3.114,3.2795,3.5407,3.6451,3.5854,3.618,3.5933,3.517,3.4515,3.4513,3.5201,3.5373,3.5567,0.0,0.0,0.0,0.0,0.0,0.0,0.0,0.0,0.0,0.0,0.0,0.0,0.0,0.0,0.0,0.0,0.0,0.0,0.0,0.0,0.0,0.0,0.0,3.4983,0.0,0.0,0.0,0.0,0.0,0.0,0.0,0.0,0.0,5.8923,5.9636,6.0126,6.2066,5.8598,5.5656,5.504,0.0,0.0,0.0,0.0,0.0,0.0,0.0,4.7774,5.0857,5.1447,5.2349,5.5023,5.8078,5.9952,5.8975,0.0,0.0,4.8953,4.5777,4.4799,4.6867,4.732,4.7934,4.9993,5.0741,5.0828,0.0,0.0,0.0,0.0,0.0,0.0,0.0,0.0,0.0,3.0191,2.9636,0.0,0.0,0.0,0.0,0.0,0.0,0.0,0.0,0.0,0.0,0.0,4.1702,4.3923,0.0,0.0,0.0,0.0,0.0,0.0,0.0,0.0,0.0,0.0,0.0,0.0,2.9922,3.1563,3.4966,3.6418,3.5727,3.5884,3.5661,3.4919,3.4103,3.356,3.3435,0.0,0.0,0.0,0.0,0.0,0.0,0.0,0.0,0.0,0.0,0.0,0.0,0.0,0.0,0.0,0.0,0.0,0.0,0.0,0.0,0.0,0.0,0.0,0.0,0.0,3.3724,0.0,0.0,0.0,0.0,0.0,0.0,0.0,0.0,0.0,0.0,0.0,5.5981,5.6597,5.4181,5.213,5.1621,4.9951,4.8987,0.0,0.0,0.0,0.0,0.0,0.0,0.0,0.0,0.0,0.0,0.0,0.0,0.0,0.0,5.1261,4.5156,4.1551,3.9856,4.1192,0.0,0.0,0.0,0.0,0.0,0.0,0.0,0.0,0.0,0.0,0.0,0.0,0.0,0.0,0.0,2.5599,0.0,0.0,2.925,0.0,0.0,0.0,0.0,0.0,0.0,0.0,0.0,0.0,0.0,0.0,0.0,0.0,0.0,0.0,0.0,0.0,0.0,0.0,0.0,0.0,0.0,2.9776,3.1133,3.4927,3.6849,3.6698,3.575,3.5055,3.4766,3.3523,3.2467,3.171,0.0,0.0,0.0,0.0,0.0,0.0,0.0,0.0,0.0,0.0,0.0,0.0,0.0,0.0,0.0,0.0,0.0,0.0,0.0,0.0,0.0,0.0,0.0,0.0,0.0,0.0,3.3081,3.3737,3.4467,0.0,0.0,0.0,0.0,0.0,0.0,0.0,0.0,0.0,5.1098,4.977,4.8821,4.8702,4.7938,4.79,4.9181,5.0832,5.1484,4.9977,5.0761,5.0923,0.0,0.0,0.0,0.0,0.0,0.0,0.0,0.0,0.0,0.0,0.0,0.0,0.0,0.0,0.0,0.0,0.0,0.0,0.0,0.0,0.0,0.0,0.0,0.0,0.0,0.0,0.0,0.0,0.0,0.0,0.0,0.0,0.0,0.0,0.0,0.0,0.0,0.0,0.0,0.0,0.0,0.0,0.0,0.0,0.0,0.0,0.0,0.0,0.0,0.0,0.0,0.0,0.0,0.0,2.9276,3.1359,3.5056,3.6906,3.6888,3.575,3.5018,3.4655,3.3016,3.2641,0.0,0.0,0.0,0.0,0.0,0.0,0.0,0.0,0.0,0.0,0.0,0.0,0.0,0.0,0.0,0.0,0.0,0.0,0.0,0.0,0.0,0.0,0.0,0.0,0.0,0.0,0.0,0.0,3.4029,3.6257,3.9176,0.0,0.0,0.0,0.0,0.0,0.0,0.0,0.0,0.0,0.0,4.4598,4.5316,4.5697,4.6767,4.9164,5.0138,5.1633,5.4496,5.3119,5.1552,5.1158,0.0,0.0,0.0,0.0,0.0,0.0,0.0,0.0,0.0,0.0,0.0,0.0,0.0,0.0,0.0,0.0,0.0,0.0,0.0,0.0,0.0,0.0,0.0,0.0,0.0,0.0,0.0,0.0,0.0,0.0,0.0,0.0,0.0,0.0,0.0,0.0,0.0,0.0,0.0,0.0,0.0,0.0,0.0,0.0,0.0,0.0,0.0,0.0,0.0,0.0,0.0,0.0,0.0,2.9026,3.1491,3.4931,3.7001,3.7519,3.565,3.4663,3.4893,3.3154,3.2711,0.0,0.0,0.0,0.0,0.0,0.0,0.0,0.0,0.0,0.0,0.0,0.0,0.0,0.0,0.0,0.0,0.0,0.0,0.0,0.0,0.0,0.0,0.0,0.0,0.0,0.0,0.0,0.0,3.247,3.5488,3.8834,0.0,0.0,0.0,0.0,0.0,0.0,0.0,0.0,0.0,0.0,4.1584,4.3327,4.4713,0.0,0.0,5.1334,5.3029,5.5348,5.4982,5.3583,5.1108,5.0104,0.0,0.0,0.0,0.0,0.0,0.0,0.0,0.0,0.0,0.0,0.0,0.0,0.0,0.0,0.0,0.0,0.0,0.0,0.0,0.0,0.0,0.0,0.0,0.0,0.0,0.0,0.0,0.0,0.0,0.0,0.0,0.0,0.0,0.0,0.0,0.0,0.0,0.0,0.0,0.0,0.0,0.0,0.0,0.0,0.0,0.0,0.0,0.0,0.0,0.0,0.0,0.0,0.0,3.1477,3.4653,3.7092,3.8623,3.5425,3.4256,3.5419,3.367,3.2817,0.0,0.0,0.0,0.0,0.0,0.0,0.0,0.0,0.0,0.0,0.0,0.0,0.0,0.0,0.0,0.0,0.0,0.0,0.0,0.0,0.0,0.0,0.0,0.0,0.0,0.0,0.0,0.0,0.0,0.0,0.0,0.0,0.0,0.0,0.0,0.0,0.0,0.0,0.0,0.0,0.0,3.9654,4.256,4.4765,4.7311,0.0,5.3682,5.4889,5.3324,5.6045,5.6043,4.9523,0.0,0.0,0.0,0.0,0.0,0.0,0.0,0.0,0.0,0.0,0.0,0.0,0.0,0.0,0.0,0.0,0.0,0.0,0.0,0.0,0.0,0.0,0.0,0.0,0.0,0.0,0.0,0.0,0.0,0.0,0.0,0.0,0.0,0.0,0.0,0.0,0.0,0.0,0.0,0.0,0.0,0.0,0.0,0.0,0.0,0.0,0.0,0.0,0.0,0.0,0.0,0.0,0.0,0.0,3.1454,3.4037,3.6752,3.9439,3.5717,3.4618,3.6545,3.4317,0.0,0.0,0.0,0.0,0.0,0.0,0.0,0.0,0.0,0.0,0.0,0.0,0.0,0.0,0.0,0.0,0.0,0.0,0.0,0.0,0.0,0.0,0.0,0.0,0.0,0.0,0.0,2.461,0.0,0.0,0.0,0.0,0.0,0.0,0.0,0.0,0.0,0.0,0.0,0.0,0.0,0.0,3.8932,4.2853,4.4924,4.744,0.0,0.0,5.1926,5.3304,5.287,5.2002,0.0,0.0,0.0,0.0,0.0,0.0,0.0,0.0,0.0,0.0,0.0,0.0,0.0,0.0,0.0,0.0,0.0,0.0,0.0,0.0,0.0,0.0,0.0,0.0,0.0,0.0,0.0,0.0,0.0,0.0,0.0,0.0,0.0,0.0,0.0,0.0,0.0,0.0,0.0,0.0,0.0,0.0,0.0,0.0,0.0,0.0,0.0,0.0,0.0,0.0,0.0,0.0,0.0,0.0,2.6425,3.0782,3.2841,3.5704,3.917,3.582,3.4841,3.6664,3.5456,3.5566,0.0,0.0,0.0,0.0,0.0,0.0,0.0,0.0,0.0,0.0,0.0,0.0,0.0,0.0,0.0,0.0,0.0,0.0,0.0,0.0,0.0,0.0,0.0,0.0,0.0,0.0,0.0,0.0,0.0,0.0,0.0,0.0,0.0,0.0,0.0,0.0,0.0,0.0,0.0,0.0,0.0,0.0,4.3915,4.6309,0.0,0.0,0.0,5.0831,5.1447,0.0,0.0,0.0,0.0,0.0,0.0,0.0,0.0,0.0,0.0,0.0,0.0,0.0,0.0,0.0,0.0,0.0,0.0,0.0,0.0,0.0,0.0,0.0,0.0,0.0,0.0,0.0,0.0,0.0,0.0,0.0,0.0,0.0,0.0,0.0,0.0,0.0,0.0,0.0,0.0,0.0,0.0,0.0,0.0,0.0,0.0,0.0,0.0,0.0,0.0,0.0,0.0,0.0,0.0,0.0,0.0,0.0,2.9616,3.1561,3.4466,3.8099,3.5833,3.4962,3.6149,3.6545,3.7076,0.0,0.0,0.0,0.0,0.0,0.0,0.0,0.0,0.0,0.0,0.0,0.0,0.0,0.0,0.0,0.0,0.0,0.0,0.0,0.0,0.0,0.0,0.0,0.0,0.0,0.0,0.0,0.0,0.0,0.0,0.0,0.0,0.0,0.0,0.0,0.0,0.0,0.0,0.0,0.0,0.0,4.2727,4.5432,4.8086,4.9998,0.0,0.0,5.0243,4.8652,4.9282,0.0,0.0,0.0,0.0,0.0,0.0,0.0,0.0,0.0,0.0,0.0,0.0,0.0,0.0,0.0,0.0,0.0,0.0,0.0,0.0,0.0,0.0,0.0,0.0,0.0,0.0,0.0,0.0,0.0,0.0,0.0,0.0,0.0,0.0,0.0,0.0,0.0,0.0,0.0,0.0,0.0,0.0,0.0,0.0,0.0,0.0,0.0,0.0,0.0,0.0,0.0,0.0,0.0,0.0,0.0,0.0,2.7616,3.1051,3.4243,3.7059,3.542,3.5136,3.6566,3.6604,3.7628,0.0,0.0,0.0,0.0,0.0,0.0,0.0,0.0,0.0,0.0,0.0,0.0,0.0,0.0,0.0,0.0,0.0,0.0,0.0,0.0,0.0,0.0,0.0,0.0,0.0,0.0,0.0,0.0,0.0,0.0,0.0,0.0,0.0,0.0,0.0,0.0,0.0,0.0,0.0,0.0,0.0,4.119,4.6976,4.8302,0.0,0.0,0.0,0.0,4.6365,4.5147,0.0,0.0,0.0,0.0,0.0,0.0,0.0,0.0,0.0,0.0,0.0,0.0,0.0,0.0,0.0,0.0,0.0,0.0,0.0,0.0,0.0,0.0,0.0,0.0,0.0,0.0,0.0,0.0,0.0,0.0,0.0,0.0,0.0,0.0,0.0,0.0,0.0,0.0,0.0,0.0,0.0,0.0,0.0,0.0,0.0,0.0,0.0,0.0,0.0,0.0,0.0,0.0,0.0,0.0,0.0,0.0,2.7188,2.9501,3.2269,3.5552,3.5582,3.6034,3.706,3.7818,3.8762,0.0,0.0,0.0,0.0,0.0,0.0,0.0,0.0,0.0,0.0,0.0,0.0,0.0,0.0,0.0,0.0,0.0,0.0,0.0,0.0,0.0,0.0,0.0,0.0,0.0,0.0,0.0,0.0,0.0,0.0,0.0,0.0,0.0,0.0,0.0,0.0,0.0,0.0,0.0,0.0,3.7399,4.2079,4.7386,0.0,0.0,0.0,0.0,0.0,0.0,4.302,4.2688,0.0,0.0,0.0,0.0,0.0,0.0,0.0,0.0,0.0,0.0,0.0,0.0,0.0,0.0,0.0,0.0,0.0,0.0,0.0,0.0,0.0,0.0,0.0,0.0,0.0,0.0,0.0,0.0,0.0,0.0,0.0,0.0,0.0,0.0,0.0,0.0,0.0,0.0,0.0,0.0,0.0,0.0,0.0,0.0,0.0,0.0,0.0,0.0,0.0,0.0,0.0,0.0,0.0,0.0,0.0,2.6541,2.7547,2.9964,3.3942,3.5665,3.6739,3.7155,3.8754,3.9295,3.8532,0.0,0.0,0.0,0.0,0.0,0.0,0.0,0.0,0.0,0.0,0.0,0.0,0.0,0.0,0.0,0.0,0.0,0.0,0.0,0.0,0.0,0.0,0.0,0.0,0.0,0.0,0.0,0.0,0.0,0.0,0.0,0.0,0.0,0.0,0.0,0.0,0.0,0.0,0.0,3.7703,4.345,0.0,0.0,0.0,0.0,0.0,0.0,0.0,0.0,4.1797,0.0,0.0,0.0,0.0,0.0,0.0,0.0,0.0,0.0,0.0,0.0,0.0,0.0,0.0,0.0,0.0,0.0,0.0,0.0,0.0,0.0,0.0,0.0,0.0,0.0,0.0,0.0,0.0,0.0,0.0,0.0,0.0,0.0,0.0,0.0,0.0,0.0,0.0,0.0,0.0,0.0,0.0,0.0,0.0,0.0,0.0,0.0,0.0,0.0,0.0,0.0,0.0,0.0,0.0,0.0,0.0,2.5377,2.8922,3.2334,3.4485,3.5565,3.5589,3.7057,3.6556,3.3899,0.0,0.0,0.0,0.0,0.0,0.0,0.0,0.0,0.0,0.0,0.0,0.0,0.0,0.0,0.0,0.0,0.0,0.0,0.0,0.0,0.0,0.0,0.0,0.0,0.0,0.0,0.0,0.0,0.0,0.0,0.0,0.0,0.0,0.0,0.0,0.0,0.0,0.0,2.6006,3.4805,0.0,0.0,0.0,0.0,0.0,0.0,0.0,0.0,4.1175,0.0,0.0,0.0,0.0,0.0,0.0,0.0,0.0,0.0,0.0,0.0,0.0,0.0,0.0,0.0,0.0,0.0,0.0,0.0,0.0,0.0,0.0,0.0,0.0,0.0,0.0,0.0,0.0,0.0,0.0,0.0,0.0,0.0,0.0,0.0,0.0,0.0,0.0,0.0,0.0,0.0,0.0,0.0,0.0,0.0,0.0,0.0,0.0,0.0,0.0,0.0,0.0,0.0,0.0,0.0,0.0,0.0,0.0,2.7052,3.0846,3.3927,3.5331,3.496,3.5215,3.4364,0.0,0.0,0.0,0.0,0.0,0.0,0.0,0.0,0.0,0.0,0.0,0.0,0.0,0.0,0.0,0.0,0.0,0.0,0.0,0.0,0.0,0.0,0.0,0.0,0.0,0.0,0.0,0.0,0.0,0.0,0.0,0.0,0.0,0.0,0.0,0.0,0.0,0.0,0.0,0.0,0.0,0.0,0.0,0.0,0.0,0.0,0.0,0.0,0.0,0.0,0.0,0.0,0.0,0.0,0.0,0.0,0.0,0.0,0.0,0.0,0.0,0.0,0.0,0.0,0.0,0.0,0.0,0.0,0.0,0.0,0.0,0.0,0.0,0.0,0.0,0.0,0.0,0.0,0.0,0.0,0.0,0.0,0.0,0.0,0.0,0.0,0.0,0.0,0.0,0.0,0.0,0.0,0.0,0.0,0.0,0.0,0.0,0.0,0.0,0.0,0.0,0.0,0.0,0.0,0.0,0.0,0.0,0.0,2.4852,2.9083,3.3007,3.4828,3.4263,3.3197,3.1906,0.0,0.0,0.0,0.0,0.0,0.0,0.0,0.0,0.0,0.0,0.0,0.0,0.0,0.0,0.0,0.0,0.0,0.0,0.0,0.0,0.0,0.0,0.0,0.0,0.0,0.0,0.0,0.0,0.0,0.0,0.0,0.0,0.0,0.0,0.0,0.0,0.0,0.0,0.0,0.0,0.0,0.0,0.0,0.0,0.0,0.0,0.0,0.0,3.8584,0.0,0.0,0.0,0.0,0.0,0.0,0.0,0.0,0.0,0.0,0.0,0.0,0.0,0.0,0.0,0.0,0.0,0.0,0.0,0.0,0.0,0.0,0.0,0.0,0.0,0.0,0.0,0.0,0.0,0.0,0.0,0.0,0.0,0.0,0.0,0.0,0.0,0.0,0.0,0.0,0.0,0.0,0.0,0.0,0.0,0.0,0.0,0.0,0.0,0.0,0.0,0.0,0.0,0.0,0.0,0.0,0.0,0.0,0.0,2.2555,2.655,3.1102,3.3148,3.2509,3.0983,2.8533,0.0,0.0,0.0,0.0,0.0,0.0,0.0,0.0,0.0,0.0,0.0,0.0,0.0,0.0,0.0,0.0,0.0,0.0,0.0,0.0,0.0,0.0,0.0,0.0,0.0,0.0,0.0,0.0,0.0,0.0,0.0,0.0,0.0,0.0,0.0,0.0,0.0,0.0,0.0,0.0,0.0,0.0,0.0,0.0,0.0,0.0,0.0,0.0,0.0,0.0,0.0,0.0,0.0,0.0,0.0,0.0,0.0,0.0,0.0,0.0,0.0,0.0,0.0,0.0,0.0,0.0,0.0,0.0,0.0,0.0,0.0,0.0,0.0,0.0,0.0,0.0,0.0,0.0,0.0,0.0,0.0,0.0,0.0,0.0,0.0,0.0,0.0,0.0,0.0,0.0,0.0,0.0,0.0,0.0,0.0,0.0,0.0,0.0,0.0,0.0,0.0,0.0,0.0,0.0,0.0,0.0,0.0,0.0,2.0178,2.4476,2.8262,2.95,2.8043,2.6377,2.4994,0.0,0.0,0.0,0.0,0.0,0.0,0.0,0.0,0.0,0.0,0.0,0.0,0.0,0.0,0.0,0.0,0.0,0.0,0.0,0.0,0.0,0.0,0.0,0.0,0.0,0.0,0.0,0.0,0.0,0.0,0.0,0.0,0.0,0.0,0.0,0.0,0.0,0.0,0.0,0.0,0.0,0.0,0.0,0.0,0.0,0.0,0.0,0.0,0.0,0.0,0.0,0.0,0.0,0.0,0.0,0.0,0.0,0.0,0.0,0.0,0.0,0.0,0.0,0.0,0.0,0.0,0.0,0.0,0.0,0.0,0.0,0.0,0.0,0.0,0.0,0.0,0.0,0.0,0.0,0.0,0.0,0.0,0.0,0.0,0.0,0.0,0.0,0.0,0.0,0.0,0.0,0.0,0.0,0.0,0.0,0.0,0.0,0.0,0.0,0.0,0.0,0.0,0.0,0.0,0.0,0.0,0.0,0.0,0.0,2.1643,2.4244,2.4842,2.3318,2.1805,2.1157,0.0,0.0,0.0,0.0,0.0,0.0,0.0,0.0,0.0,0.0,0.0,0.0,0.0,0.0,0.0,0.0,0.0,0.0,0.0,0.0,0.0,0.0,0.0,0.0,0.0,0.0,0.0,0.0,0.0,0.0,0.0,0.0,0.0,0.0,0.0,0.0,0.0,0.0,0.0,0.0,0.0,0.0,0.0,0.0,0.0,0.0,0.0,0.0,0.0,0.0,0.0,0.0,0.0,0.0,0.0,0.0,0.0,0.0,0.0,0.0,0.0,0.0,0.0,0.0,0.0,0.0,0.0,0.0,0.0,0.0,0.0,0.0,0.0,0.0,0.0,0.0,0.0,0.0,0.0,0.0,0.0,0.0,0.0,0.0,0.0,0.0,0.0,0.0,0.0,0.0,0.0,0.0,0.0,0.0,0.0,0.0,0.0,0.0,0.0,0.0,0.0,0.0,0.0,0.0,0.0,0.0,0.0,0.0,0.0,1.7609,1.8661,1.9148,1.9061,1.8082,1.6909,0.0,0.0,0.0,0.0,0.0,0.0,0.0,0.0,0.0,0.0,0.0,0.0,0.0,0.0,0.0,0.0,0.0,0.0,0.0,0.0,0.0,0.0,0.0,0.0,0.0,0.0,0.0,0.0,0.0,0.0,0.0,0.0,0.0,0.0,0.0,0.0,0.0,0.0,0.0,0.0,0.0,0.0,0.0,0.0,0.0,0.0,0.0,0.0,0.0,0.0,0.0,0.0,0.0,0.0,0.0,0.0,0.0,0.0,0.0,0.0,0.0,0.0,0.0,0.0,0.0,0.0,0.0,0.0,0.0,0.0,0.0,0.0,0.0,0.0,0.0,0.0,0.0,0.0,0.0,0.0,0.0,0.0,0.0,0.0,0.0,0.0,0.0,0.0,0.0,0.0,0.0,0.0,0.0,0.0,0.0,0.0,0.0,0.0,0.0,0.0,0.0,0.0,0.0,0.0,0.0,0.0,0.0,0.0,0.0,1.4031,1.4589,1.558,1.7186,1.4477,1.3604,1.4732,0.0,0.0,0.0,0.0,0.0,0.0,0.0,0.0,0.0,0.0,0.0,0.0,0.0,0.0,0.0,0.0,0.0,0.0,0.0,0.0,0.0,0.0,0.0,0.0,0.0,0.0,0.0,0.0,0.0,0.0,0.0,0.0,0.0,0.0,0.0,0.0,0.0,0.0,0.0,0.0,0.0,0.0,0.0,0.0,0.0,0.0,0.0,0.0,0.0,0.0,0.0,0.0,0.0,0.0,0.0,0.0,0.0,0.0,0.0,0.0,0.0,0.0,0.0,0.0,0.0,0.0,0.0,0.0,0.0,0.0,0.0,0.0,0.0,0.0,0.0,0.0,0.0,0.0,0.0,0.0,0.0,0.0,0.0,0.0,0.0,0.0,0.0,0.0,0.0,0.0,0.0,0.0,0.0,0.0,0.0,0.0,0.0,0.0,0.0,0.0,0.0,0.0,0.0,0.0,0.0,0.0,0.0,0.0,1.2295,1.2713,1.3474,1.4375,1.2236,1.1494,0.0,0.0,0.0,0.0,0.0,0.0,0.0,0.0,0.0,0.0,0.0,0.0,0.0,0.0,0.0,0.0,0.0,0.0,0.0,0.0,0.0,0.0,0.0,0.0,0.0,0.0,0.0,0.0,0.0,0.0,0.0,0.0,0.0,0.0,0.0,0.0,0.0,0.0,0.0,0.0,0.0,0.0,0.0,0.0,0.0,0.0,0.0,0.0,0.0,0.0,0.0,0.0,0.0,0.0,0.0,0.0,0.0,0.0,0.0,0.0,0.0,0.0,0.0,0.0,0.0,0.0,0.0,0.0,0.0,0.0,0.0,0.0,0.0,0.0,0.0,0.0,0.0,0.0,0.0,0.0,0.0,0.0,0.0,0.0,0.0,0.0,0.0,0.0,0.0,0.0,0.0,0.0,0.0,0.0,0.0,0.0,0.0,0.0,0.0,0.0,0.0,0.0,0.0,0.0,0.0,0.0,0.0,0.0,1.2203,1.2787,1.3265,1.2628,1.071,1.1622,1.0703,0.0,0.0,0.0,0.0,0.0,0.0,0.0,0.0,0.0,0.0,0.0,0.0,0.0,0.0,0.0,0.0,0.0,0.0,0.0,0.0,0.0,0.0,0.0,0.0,0.0,0.0,0.0,0.0,0.0,0.0,0.0,0.0,0.0,0.0,0.0,0.0,0.0,0.0,0.0,0.0,0.0,0.0,0.0,0.0,0.0,0.0,0.0,0.0,0.0,0.0,0.0,0.0,0.0,0.0,0.0,0.0,0.0,0.0,0.0,0.0,0.0,0.0,0.0,0.0,0.0,0.0,0.0,0.0,0.0,0.0,0.0,0.0,0.0,0.0,0.0,0.0,0.0,0.0,0.0,0.0,0.0,0.0,0.0,0.0,0.0,0.0,0.0,0.0,0.0,0.0,0.0,0.0,0.0,0.0,0.0,0.0,0.0,0.0,0.0,0.0,0.0,0.0,0.0,0.0,0.0,0.0,0.0,0.0,0.0,1.1441,0.0,1.1989,0.0,1.0736,0.9731,0.0,0.0,0.0,0.0,0.0,0.0,0.0,0.0,0.0,0.0,0.0,0.0,0.0,0.0,0.0,0.0,0.0,0.0,0.0,0.0,0.0,0.0,0.0,0.0,0.0,0.0,0.0,0.0,0.0,0.0,0.0,0.0,0.0,0.0,0.0,0.0,0.0,0.0,0.0,0.0,0.0,0.0,0.0,0.0,0.0,0.0,0.0,0.0,0.0,0.0,0.0,0.0,0.0,0.0,0.0,0.0,0.0,0.0,0.0,0.0,0.0,0.0,0.0,0.0,0.0,0.0,0.0,0.0,0.0,0.0,0.0,0.0,0.0,0.0,0.0,0.0,0.0,0.0,0.0,0.0,0.0,0.0,0.0,0.0,0.0,0.0,0.0,0.0,0.0,0.0,0.0,0.0,0.0,0.0,0.0,0.0,0.0,0.0,0.0,0.0,0.0,0.0,0.0,0.0,0.0,0.0,0.0,0.0,0.0,1.2241,1.1804,1.1968,1.2574,1.0748,0.9797,0.0,0.0,0.0,0.0,0.0,0.0,0.0,0.0,0.0,0.0,0.0,0.0,0.0,0.0,0.0,0.0,0.0,0.0,0.0,0.0,0.0,0.0,0.0,0.0,0.0,0.0,0.0,0.0,0.0,0.0,0.0,0.0,0.0,0.0,0.0,0.0,0.0,0.0,0.0,0.0,0.0,0.0,0.0,0.0,0.0,0.0,0.0,0.0,0.0,0.0,0.0,0.0,0.0,0.0,0.0,0.0,0.0,0.0,0.0,0.0,0.0,0.0,0.0,0.0,0.0,0.0,0.0,0.0,0.0,0.0,0.0,0.0,0.0,0.0,0.0,0.0,0.0,0.0,0.0,0.0,0.0,0.0,0.0,0.0,0.0,0.0,0.0,0.0,0.0,0.0,0.0,0.0,0.0,0.0,0.0,0.0,0.0,0.0,0.0,0.0,0.0,0.0,0.0,0.0,0.0,0.0,0.0,0.0,0.0,0.0,1.3566,1.2359,1.0853,1.1432,1.0711,0.0,0.0,0.0,0.0,0.0,0.0,0.0,0.0,0.0,0.0,0.0,0.0,0.0,0.0,0.0,0.0,0.0,0.0,0.0,0.0,0.0,0.0,0.0,0.0,0.0,0.0,0.0,0.0,0.0,0.0,0.0,0.0,0.0,0.0,0.0,0.0,0.0,0.0,0.0,0.0,0.0,0.0,0.0,0.0,0.0,0.0,0.0,0.0,0.0,0.0,0.0,0.0,0.0,0.0,0.0,0.0,0.0,0.0,0.0,0.0,0.0,0.0,0.0,0.0,0.0,0.0,0.0,0.0,0.0,0.0,0.0,0.0,0.0,0.0,0.0,0.0,0.0,0.0,0.0,0.0,0.0,0.0,0.0,0.0,0.0,0.0,0.0,0.0,0.0,0.0,0.0,0.0,0.0,0.0,0.0,0.0,0.0,0.0,0.0,0.0,0.0,0.0,0.0,0.0,0.0,0.0,0.0,0.0,0.0,0.0,1.2141,0.0,1.0839,0.9722,0.8813,0.8202,0.0,0.0,0.0,0.0,0.0,0.0,0.0,0.0,0.0,0.0,0.0,0.0,0.0,0.0,0.0,0.0,0.0,0.0,0.0,0.0,0.0,0.0,0.0,0.0,0.0,0.0,0.0,0.0,0.0,0.0,0.0,0.0,0.0,0.0,0.0,0.0,0.0,0.0,0.0,0.0,0.0,0.0,0.0,0.0,0.0,0.0,0.0,0.0,0.0,0.0,0.0,0.0,0.0,0.0,0.0,0.0,0.0,0.0,0.0,0.0,0.0,0.0,0.0,0.0,0.0,0.0,0.0,0.0,0.0,0.0,0.0,0.0,0.0,0.0,0.0,0.0,0.0,0.0,0.0,0.0,0.0,0.0,0.0,0.0,0.0,0.0,0.0,0.0,0.0,0.0,0.0,0.0,0.0,0.0,0.0,0.0,0.0,0.0,0.0,0.0,0.0,0.0,0.0,0.0,0.0,0.0,0.0,0.0,0.0,0.0,0.0,1.0811,0.9291,0.8221,0.0,0.0,0.0,0.0,0.0,0.0,0.0,0.0,0.0,0.0,0.0,0.0,0.0,0.0,0.0,0.0,0.0,0.0,0.0,0.0,0.0,0.0,0.0,0.0,0.0,0.0,0.0,0.0,0.0,0.0,0.0,0.0,0.0,0.0,0.0,0.0,0.0,0.0,0.0,0.0,0.0,0.0,0.0,0.0,0.0,0.0,0.0,0.0,0.0,0.0,0.0,0.0,0.0,0.0,0.0,0.0,0.0,0.0,0.0,0.0,0.0,0.0,0.0,0.0,0.0,0.0,0.0,0.0,0.0,0.0,0.0,0.0,0.0,0.0,0.0,0.0,0.0,0.0,0.0,0.0,0.0,0.0,0.0,0.0,0.0,0.0,0.0,0.0,0.0,0.0,0.0,0.0,0.0,0.0,0.0,0.0,0.0,0.0,0.0,0.0,0.0,0.0,0.0,0.0,0.0,0.0,0.0,0.0,0.0,0.0,0.0,1.1677,1.0442,0.9415,0.0,0.7053,0.0,0.0,0.0,0.0,0.0,0.0,0.0,0.0,0.0,0.0,0.0,0.0,0.0,0.0,0.0,0.0,0.0,0.0,0.0,0.0,0.0,0.0,0.0,0.0,0.0,0.0,0.0,0.0,0.0,0.0,0.0,0.0,0.0,0.0,0.0,0.0,0.0,0.0,0.0,0.0,0.0,0.0,0.0,0.0,0.0,0.0,0.0,0.0,0.0,0.0,0.0,0.0,0.0,0.0,0.0,0.0,0.0,0.0,0.0,0.0,0.0,0.0,0.0,0.0,0.0,0.0,0.0,0.0,0.0,0.0,0.0,0.0,0.0,0.0,0.0,0.0,0.0,0.0,0.0,0.0,0.0,0.0,0.0,0.0,0.0,0.0,0.0,0.0,0.0,0.0,0.0,0.0,0.0,0.0,0.0,0.0,0.0,0.0,0.0,0.0,0.0,0.0,0.0,0.0,0.0,0.0,0.0,0.0,0.0,0.0,0.0,0.0,0.7578,0.6584,0.545,0.0,0.0,0.0,0.0,0.0,0.0,0.0,0.0,0.0,0.0,0.0,0.0,0.0,0.0,0.0,0.0,0.0,0.0,0.0,0.0,0.0,0.0,0.0,0.0,0.0,0.0,0.0,0.0,0.0,0.0,0.0,0.0,0.0,0.0,0.0,0.0,0.0,0.0,0.0,0.0,0.0,0.0,0.0,0.0,0.0,0.0,0.0,0.0,0.0,0.0,0.0,0.0,0.0,0.0,0.0,0.0,0.0,0.0,0.0,0.0,0.0,0.0,0.0,0.0,0.0,0.0,0.0,0.0,0.0,0.0,0.0,0.0,0.0,0.0,0.0,0.0,0.0,0.0,0.0,0.0,0.0,0.0,0.0,0.0,0.0,0.0,0.0,0.0,0.0,0.0,0.0,0.0,0.0,0.0,0.0,0.0,0.0,0.0,0.0,0.0,0.0,0.0,0.0,0.0,0.0,0.0,0.0,0.0,0.0,0.0,0.9369,0.78,0.6714,0.5892,0.5313,0.0,0.0,0.0,0.0,0.0,0.0,0.0,0.0,0.0,0.0,0.0,0.0,0.0,0.0,0.0,0.0,0.0,0.0,0.0,0.0,0.0,0.0,0.0,0.0,0.0,0.0,0.0,0.0,0.0,0.0,0.0,0.0,0.0,0.0,0.0,0.0,0.0,0.0,0.0,0.0,0.0,0.0,0.0,0.0,0.0,0.0,0.0,0.0,0.0,0.0,0.0,0.0,0.0,0.0,0.0,0.0,0.0,0.0,0.0,0.0,0.0,0.0,0.0,0.0,0.0,0.0,0.0,0.0,0.0,0.0,0.0,0.0,0.0,0.0,0.0,0.0,0.0,0.0,0.0,0.0,0.0,0.0,0.0,0.0,0.0,0.0,0.0,0.0,0.0,0.0,0.0,0.0,0.0,0.0,0.0,0.0,0.0,0.0,0.0,0.0,0.0,0.0,0.0,0.0,0.0,0.0,0.0,0.0,0.0,0.0,0.0,0.0,0.0,0.0,0.5632,0.0,0.0,0.0,0.0,0.0,0.0,0.0,0.0,0.0,0.0,0.0,0.0,0.0,0.0,0.0,0.0,0.0,0.0,0.0,0.0,0.0,0.0,0.0,0.0,0.0,0.0,0.0,0.0,0.0,0.0,0.0,0.0,0.0,0.0,0.0,0.0,0.0,0.0,0.0,0.0,0.0,0.0,0.0,0.0,0.0,0.0,0.0,0.0,0.0,0.0,0.0,0.0,0.0,0.0,0.0,0.0,0.0,0.0,0.0,0.0,0.0,0.0,0.0,0.0,0.0,0.0,0.0,0.0,0.0,0.0,0.0,0.0,0.0,0.0,0.0,0.0,0.0,0.0,0.0,0.0,0.0,0.0,0.0,0.0,0.0,0.0,0.0,0.0,0.0,0.0,0.0,0.0,0.0,0.0,0.0,0.0,0.0,0.0,0.0,0.0,0.0,0.0,0.0,0.0,0.0,0.0,0.0,0.0,0.0,0.0,0.0,0.0,0.0,0.0,0.0,0.0,0.0,0.0,0.0,0.0,0.0,0.0,0.0,0.0,0.0,0.0,0.0,0.0,0.0,0.0,0.0,0.0,0.0,0.0,0.0,0.0,0.0,0.0,0.0,0.0,0.0,0.0,0.0,0.0,0.0,0.0,0.0,0.0,0.0,0.0,0.0,0.0,0.0,0.0,0.0,0.0,0.0,0.0,0.0,0.0,0.0,0.0,0.0,0.0,0.0,0.0,0.0,0.0,0.0,0.0,0.0,0.0,0.0,0.0,0.0,0.0,0.0,0.0,0.0,0.0,0.0,0.0,0.0,0.0,0.0,0.0,0.0,0.0,0.0,0.0,0.0,0.0,0.0,0.0,0.0,0.0,0.0,0.0,0.0,0.0,0.0,0.0,0.0,0.0,0.0,0.0,0.0,0.0,0.0,0.0,0.0,0.0,0.0,0.0,0.0,0.0,0.0,0.0,0.0,0.0,0.0,0.0,0.0,0.0,0.0,0.0,0.0,0.0,0.0,0.0,0.0,0.0,0.0,0.0,0.0,0.0,0.0,0.0,0.0,0.0,0.0,0.0,0.0,0.0,0.0,0.0,0.0,0.0,0.0,0.0,0.0,0.0,0.0,0.0,0.0,0.0,0.0,0.0,0.0,0.0,0.0,0.0,0.0,0.0,0.0,0.0,0.0,0.0,0.0,0.0,0.0,0.0,0.0,0.0,0.0,0.0,0.0,0.0,0.0,0.0,0.0,0.0,0.0,0.0,0.0,0.0,0.0,0.0,0.0,0.0,0.0,0.0,0.0,0.0,0.0,0.0,0.0,0.0,0.0,0.0,0.0,0.0,0.0,0.0,0.0,0.0,0.0,0.0,0.0,0.0,0.0,0.0,0.0,0.0,0.0,0.0,0.0,0.0,0.0,0.0,0.0,0.0,0.0,0.0,0.0,0.0,0.0,0.0,0.0,0.0,0.0,0.0,0.0,0.0,0.0,0.0,0.0,0.0,0.0,0.0,0.0,0.0,0.0,0.0,0.0,0.0,0.0,0.0,0.0,0.0,0.0,0.0,0.0,0.0,0.0,0.0,0.0,0.0,0.0,0.0,0.0,0.0,0.0,0.0,0.0,0.0,0.0,0.0,0.0,0.0,0.0,0.0,0.0,0.0,0.0,0.0,0.0,0.0,0.0,0.0,0.0,0.0,0.0,0.0,0.0,0.0,0.0,0.0,0.0,0.0,0.0,0.0,0.0,0.0,0.0,0.0,0.0,0.0,0.0,0.0,0.0,0.0,0.0,0.0,0.0,0.0,0.0,0.0,0.0,0.0,0.0,0.0,0.0,0.0,0.0,0.0,0.0,0.0,0.0,0.0,0.0,0.0,0.0,0.0,0.0,0.0,0.0,0.0,0.0,0.0,0.0,0.0,0.0,0.0,0.0,0.0,0.0,0.0,0.0,0.0,0.0,0.0,0.0,0.0,0.0,0.0,0.0,0.0,0.0,0.0,0.0,0.0,0.0,0.0,0.0,0.0,0.0,0.0,0.0,0.0,0.0,0.0,0.0,0.0,0.0,0.0,0.0,0.0,0.0,0.0,0.0,0.0,0.0,0.0,0.0,0.0,0.0,0.0,0.0,0.0,0.0,0.0,0.0,0.0,0.0,0.0,0.0,0.0,0.0,0.0,0.0,0.0,0.0,0.0,0.0,0.0,0.0,0.0,0.0,0.0,0.0,0.0,0.0,0.0,0.0,0.0,0.0,0.0,0.0,0.0,0.0,0.0,0.0,0.0,0.0,0.0,0.0,0.0,0.0,0.0,0.0,0.0,0.0,0.0,0.0,0.0,0.0,0.0,0.0,0.0,0.0,0.0,0.0,0.0,0.0,0.0,0.0,0.0,0.0,0.0,0.0,0.0,0.0,0.0,0.0,0.0,0.0,0.0,0.0,0.0,0.0,0.0,0.0,0.0,0.0,0.0,0.0,0.0,0.0,0.0,0.0,0.0,0.0,0.0,0.0,0.0,0.0,0.0,0.0,0.0,0.0,0.0,0.0,0.0,0.0,0.0,0.0,0.0,0.0,0.0,0.0,0.0,0.0,0.0,0.0,0.0,0.0,0.0,0.0,0.0,0.0,0.0,0.0,0.0,0.0,0.0,0.0,0.0,0.0,0.0,0.0,0.0,0.0,0.0,0.0,0.0,0.0,0.0,0.0,0.0,0.0,0.0,0.0,0.0,0.0,0.0,0.0,0.0,0.0,0.0,0.0,0.0,0.0,0.0,0.0,0.0,0.0,0.0,0.0,0.0,0.0,0.0,0.0,0.0,0.0,0.0,0.0,0.0,0.0,0.0,0.0,0.0,0.0,0.0,0.0,0.0,0.0,0.0,0.0,0.0,0.0,0.0,0.0,0.0,0.0,0.0,0.0,0.0,0.0,0.0,0.0,0.0,0.0,0.0,0.0,0.0,0.0,0.0,0.0,0.0,0.0,0.0,0.0,0.0,0.0,0.0,0.0,0.0,0.0,0.0,0.0,0.0,0.0,0.0,0.0,0.0,0.0,0.0,0.0,0.0,0.0,0.0,0.0,0.0,0.0,0.0,0.0,0.0,0.0,0.0,0.0,0.0,0.0,0.0,0.0,0.0,0.0,0.0,0.0,0.0,0.0,0.0,0.0,0.0,0.0,0.0,0.0,0.0,0.0,0.0,0.0,0.0,0.0,0.0,0.0,0.0,0.0,0.0,0.0,0.0,0.0,0.0,0.0,0.0,0.0,0.0,0.0,0.0,0.0,0.0,0.0,0.0,0.0,0.0,0.0,0.0,0.0,0.0,0.0,0.0,0.0,0.0,0.0,0.0,0.0,0.0,0.0,0.0,0.0,0.0,0.0,0.0,0.0,0.0,0.0,0.0,0.0,0.0,0.0,0.0,0.0,0.0,0.0,0.0,0.0,0.0,0.0,0.0,0.0,0.0,0.0,0.0,0.0,0.0,0.0,0.0,0.0,0.0,0.0,0.0,0.0,0.0,0.0,0.0,0.0,0.0,0.0,0.0,0.0,0.0,0.0,0.0,0.0,0.0,0.0,0.0,0.0,0.0,0.0,0.0,0.0,0.0,0.0,0.0,0.0,0.0,0.0,0.0,0.0,0.0,0.0,0.0,0.0,0.0,0.0,0.0,0.0,0.0,0.0,0.0,0.0,0.0,0.0,0.0,0.0,0.0,0.0,0.0,0.0,0.0,0.0,0.0,0.0,0.0,0.0,0.0,0.0,0.0,0.0,0.0,0.0,0.0,0.0,0.0,0.0,0.0,0.0,0.0,0.0,0.0,0.0,0.0,0.0,0.0,0.0,0.0,0.0,0.0,0.0,0.0,0.0,0.0,0.0,0.0,0.0,0.0,0.0,0.0,0.0,0.0,0.0,0.0,0.0,0.0,0.0,0.0,0.0,0.0,0.0,0.0,0.0,0.0,0.0,0.0,0.0,0.0,0.0,0.0,0.0,0.0,0.0,0.0,0.0,0.0,0.0,0.0,0.0,0.0,0.0,0.0,0.0,0.0,0.0,0.0,0.0,0.0,0.0,0.0,0.0,0.0,0.0,0.0,0.0,0.0,0.0,0.0,0.0,0.0,0.0,0.0,0.0,0.0,0.0,0.0,0.0,0.0,0.0,0.0,0.0,0.0,0.0,0.0,0.0,0.0,0.0,0.0,0.0,0.0,0.0,0.0,0.0,0.0,0.0,0.0,0.0,0.0,0.0,0.0,0.0,0.0,0.0,0.0,0.0,0.0,0.0,0.0,0.0,0.0,0.0,0.0,0.0,0.0,0.0,0.0,0.0,0.0,0.0,0.0,0.0,0.0,0.0,0.0,0.0,0.0,0.0,0.0,0.0,0.0]}]]]